[[{"header":{"parameterUnit":"m.s-1","parameterCategory":1,"la1":31.0,"la2":29.5877,"lo1":-88.7671,"lo2":-86.6584,"dx":0.0162,"dy":0.0185,"nx":115,"ny":88,"refTime":"2022-11-29T18:00:00:Z","depth":0,"parameterNumber":2,"parameterNumberName":"U-component_of_WINDS"},"data":[0.0,0.0,0.0,0.0,0.0,0.0,0.0,0.0,0.0,0.0,0.0,0.0,0.0,0.0,0.0,0.0,0.0,0.0,0.0,0.0,0.0,0.0,0.0,0.0,0.0,0.0,0.0,0.0,0.0,0.0,0.0,0.0,0.0,0.0,0.0,0.0,0.0,0.0,0.0,0.0,0.0,0.0,0.0,0.0,0.0,0.0,0.0,0.0,0.0,0.0,0.0,0.0,0.0,0.0,0.0,0.0,0.0,0.0,0.0,0.0,0.0,0.0,0.0,0.0,0.0,0.0,0.0,0.0,0.0,0.0,0.0,0.0,0.0,0.0,0.0,0.0,0.0,0.0,0.0,0.0,0.0,0.0,0.0,0.0,0.0,0.0,0.0,0.0,0.0,0.0,0.0,0.0,0.0,0.0,0.0,0.0,0.0,0.0,0.0,0.0,0.0,0.0,0.0,0.0,0.0,0.0,0.0,0.0,0.0,0.0,0.0,0.0,0.0,0.0,0.0,0.0,0.0,0.0,0.0,0.0,0.0,0.0,0.0,0.0,0.0,0.0,0.0,0.0,0.0,0.0,0.0,0.0,0.0,0.0,0.0,0.0,0.0,0.0,0.0,0.0,0.0,0.0,0.0,0.0,0.0,0.0,0.0,0.0,0.0,0.0,0.0,0.0,0.0,0.0,0.0,0.0,0.0,0.0,0.0,0.0,0.0,0.0,0.0,0.0,0.0,0.0,0.0,0.0,0.0,0.0,0.0,0.0,0.0,0.0,0.0,0.0,0.0,0.0,0.0,0.0,0.0,0.0,0.0,0.0,0.0,0.0,0.0,0.0,0.0,0.0,0.0,0.0,0.0,0.0,0.0,0.0,0.0,0.0,0.0,0.0,0.0,0.0,0.0,0.0,0.0,0.0,0.0,0.0,0.0,0.0,0.0,0.0,0.0,0.0,0.0,0.0,0.0,0.0,0.0,0.0,0.0,0.0,0.0,0.0,0.0,0.0,0.0,0.0,0.0,0.0,0.0,0.0,0.0,0.0,0.0,0.0,0.0,0.0,0.0,0.0,0.0,0.0,0.0,0.0,0.0,0.0,0.0,0.0,0.0,0.0,0.0,0.0,0.0,0.0,0.0,0.0,0.0,0.0,0.0,0.0,0.0,0.0,0.0,0.0,0.0,0.0,0.0,0.0,0.0,0.0,0.0,0.0,0.0,0.0,0.0,0.0,0.0,0.0,0.0,0.0,0.0,0.0,0.0,0.0,0.0,0.0,0.0,0.0,0.0,0.0,0.0,0.0,0.0,0.0,0.0,0.0,0.0,0.0,0.0,0.0,0.0,0.0,0.0,0.0,0.0,0.0,0.0,0.0,0.0,0.0,0.0,0.0,0.0,0.0,0.0,0.0,0.0,0.0,0.0,0.0,0.0,0.0,0.0,0.0,0.0,0.0,0.0,0.0,0.0,0.0,0.0,0.0,0.0,0.0,0.0,0.0,0.0,0.0,0.0,0.0,0.0,0.0,0.0,0.0,0.0,0.0,0.0,0.0,0.0,0.0,0.0,0.0,0.0,0.0,0.0,0.0,0.0,0.0,0.0,0.0,0.0,0.0,0.0,0.0,0.0,0.0,0.0,0.0,0.0,0.0,0.0,0.0,0.0,0.0,0.0,0.0,0.0,0.0,0.0,0.0,0.0,0.0,0.0,0.0,0.0,0.0,0.0,0.0,0.0,0.0,0.0,0.0,0.0,0.0,0.0,0.0,0.0,0.0,0.0,0.0,0.0,0.0,0.0,0.0,0.0,0.0,0.0,0.0,0.0,0.0,0.0,0.0,0.0,0.0,0.0,0.0,0.0,0.0,0.0,0.0,0.0,0.0,0.0,0.0,0.0,0.0,0.0,0.0,0.0,0.0,0.0,0.0,0.0,0.0,0.0,0.0,0.0,0.0,0.0,0.0,0.0,0.0,0.0,0.0,0.0,0.0,0.0,0.0,0.0,0.0,0.0,0.0,0.0,0.0,0.0,0.0,0.0,0.0,0.0,0.0,0.0,0.0,0.0,0.0,0.0,0.0,0.0,0.0,0.0,0.0,0.0,0.0,0.0,0.0,0.0,0.0,0.0,0.0,0.0,0.0,0.0,0.0,0.0,0.0,0.0,0.0,0.0,0.0,0.0,0.0,0.0,0.0,0.0,0.0,0.0,0.0,0.0,0.0,0.0,0.0,0.0,0.0,0.0,0.0,0.0,0.0,0.0,0.0,0.0,0.0,0.0,0.0,0.0,0.0,0.0,0.0,0.0,0.0,0.0,0.0,0.0,0.0,0.0,0.0,0.0,0.0,0.0,0.0,0.0,0.0,0.0,0.0,0.0,0.0,0.0,0.0,0.0,0.0,0.0,0.0,0.0,0.0,0.0,0.0,0.0,0.0,0.0,0.0,0.0,0.0,0.0,0.0,0.0,0.0,0.0,0.0,0.0,0.0,0.0,0.0,0.0,0.0,0.0,0.0,0.0,0.0,0.0,0.0,0.0,0.0,0.0,0.0,0.0,0.0,0.0,0.0,0.0,0.0,0.0,0.0,0.0,0.0,0.0,0.0,0.0,0.0,0.0,0.0,0.0,0.0,0.0,0.0,0.0,0.0,0.0,0.0,0.0,0.0,0.0,0.0,0.0,0.0,0.0,0.0,0.0,0.0,0.0,0.0,0.0,0.0,0.0,0.0,0.0,0.0,0.0,0.0,0.0,0.0,0.0,0.0,0.0,0.0,0.0,0.0,0.0,0.0,0.0,0.0,0.0,0.0,0.0,0.0,0.0,0.0,0.0,0.0,0.0,0.0,0.0,0.0,0.0,0.0,0.0,0.0,0.0,0.0,0.0,0.0,0.0,0.0,0.0,0.0,0.0,0.0,0.0,0.0,0.0,0.0,0.0,0.0,0.0,0.0,0.0,0.0,0.0,0.0,0.0,0.0,0.0,0.0,0.0,0.0,0.0,0.0,0.0,0.0,0.0,0.0,0.0,0.0,0.0,0.0,0.0,0.0,0.0,0.0,0.0,0.0,0.0,0.0,0.0,0.0,0.0,0.0,0.0,0.0,0.0,0.0,0.0,0.0,0.0,0.0,0.0,0.0,0.0,0.0,0.0,0.0,0.0,0.0,0.0,0.0,0.0,0.0,0.0,0.0,0.0,0.0,0.0,0.0,0.0,0.0,0.0,0.0,0.0,0.0,0.0,0.0,0.0,0.0,0.0,0.0,0.0,0.0,0.0,0.0,0.0,0.0,0.0,0.0,0.0,0.0,0.0,0.0,0.0,0.0,0.0,0.0,0.0,0.0,0.0,0.0,0.0,0.0,0.0,0.0,0.0,0.0,0.0,0.0,0.0,0.0,0.0,0.0,0.0,0.0,0.0,0.0,0.0,0.0,0.0,0.0,0.0,0.0,0.0,0.0,0.0,0.0,0.0,0.0,0.0,0.0,0.0,0.0,0.0,0.0,0.0,0.0,0.0,0.0,0.0,0.0,0.0,0.0,0.0,0.0,0.0,0.0,0.0,0.0,0.0,0.0,0.0,0.0,0.0,0.0,0.0,0.0,0.0,0.0,0.0,0.0,0.0,0.0,0.0,0.0,0.0,0.0,0.0,0.0,0.0,0.0,0.0,0.0,0.0,0.0,0.0,0.0,0.0,0.0,0.0,0.0,0.0,0.0,0.0,0.0,0.0,0.0,0.0,0.0,0.0,0.0,0.0,0.0,0.0,0.0,0.0,0.0,0.0,0.0,0.0,0.0,0.0,0.0,0.0,0.0,0.0,0.0,0.0,0.0,0.0,0.0,0.0,0.0,0.0,0.0,0.0,0.0,0.0,0.0,0.0,0.0,0.0,0.0,0.0,0.0,0.0,0.0,0.0,0.0,0.0,0.0,0.0,0.0,0.0,0.0,0.0,0.0,0.0,0.0,0.0,0.0,0.0,0.0,0.0,0.0,0.0,0.0,0.0,0.0,0.0,0.0,0.0,0.0,0.0,0.0,0.0,0.0,0.0,0.0,0.0,0.0,0.0,0.0,0.0,0.0,0.0,0.0,0.0,0.0,0.0,0.0,0.0,0.0,0.0,0.0,0.0,0.0,0.0,0.0,0.0,0.0,0.0,0.0,0.0,0.0,0.0,0.0,0.0,0.0,0.0,0.0,0.0,0.0,0.0,0.0,0.0,0.0,0.0,0.0,0.0,0.0,0.0,0.0,0.0,0.0,0.0,0.0,0.0,0.0,0.0,0.0,-5.6055,0.0,0.0,0.0,-5.7522,0.0,0.0,0.0,0.0,0.0,0.0,0.0,0.0,0.0,0.0,0.0,0.0,0.0,0.0,0.0,0.0,0.0,0.0,0.0,0.0,0.0,0.0,0.0,0.0,0.0,0.0,0.0,0.0,0.0,0.0,0.0,0.0,0.0,0.0,0.0,0.0,0.0,0.0,0.0,0.0,0.0,0.0,0.0,0.0,0.0,0.0,0.0,0.0,0.0,0.0,0.0,0.0,0.0,0.0,0.0,0.0,0.0,0.0,0.0,0.0,0.0,0.0,0.0,0.0,0.0,0.0,0.0,0.0,0.0,0.0,0.0,0.0,0.0,0.0,0.0,0.0,0.0,0.0,0.0,0.0,0.0,0.0,0.0,0.0,0.0,0.0,0.0,0.0,0.0,0.0,0.0,0.0,0.0,0.0,0.0,0.0,0.0,0.0,0.0,0.0,0.0,0.0,0.0,0.0,0.0,0.0,0.0,0.0,0.0,0.0,-5.6588,-5.7022,-5.9908,-6.01,-5.7176,0.0,0.0,0.0,0.0,0.0,0.0,0.0,0.0,0.0,0.0,0.0,0.0,0.0,0.0,0.0,0.0,0.0,0.0,0.0,0.0,0.0,0.0,0.0,0.0,0.0,0.0,0.0,0.0,0.0,0.0,0.0,0.0,0.0,0.0,0.0,0.0,0.0,0.0,0.0,0.0,0.0,0.0,0.0,0.0,0.0,0.0,0.0,0.0,0.0,0.0,0.0,0.0,0.0,0.0,0.0,0.0,0.0,0.0,0.0,0.0,0.0,0.0,0.0,0.0,0.0,0.0,0.0,0.0,0.0,0.0,0.0,0.0,0.0,0.0,0.0,0.0,0.0,0.0,0.0,0.0,0.0,0.0,0.0,0.0,0.0,0.0,0.0,0.0,0.0,0.0,0.0,0.0,0.0,0.0,0.0,0.0,0.0,0.0,0.0,0.0,0.0,0.0,0.0,0.0,0.0,0.0,0.0,0.0,0.0,0.0,0.0,0.0,-6.06,-6.087,-5.8292,0.0,0.0,0.0,0.0,0.0,0.0,0.0,0.0,0.0,0.0,0.0,0.0,0.0,0.0,0.0,0.0,0.0,0.0,0.0,0.0,0.0,0.0,0.0,0.0,0.0,0.0,0.0,0.0,0.0,0.0,0.0,0.0,0.0,0.0,0.0,0.0,0.0,0.0,0.0,0.0,0.0,0.0,0.0,0.0,0.0,0.0,0.0,0.0,0.0,0.0,0.0,0.0,0.0,0.0,0.0,0.0,0.0,0.0,0.0,0.0,0.0,0.0,0.0,0.0,0.0,0.0,0.0,0.0,0.0,0.0,0.0,0.0,0.0,0.0,0.0,0.0,0.0,0.0,0.0,0.0,0.0,0.0,0.0,0.0,0.0,0.0,0.0,0.0,0.0,0.0,0.0,0.0,0.0,0.0,0.0,0.0,0.0,0.0,0.0,0.0,0.0,0.0,0.0,0.0,0.0,0.0,0.0,0.0,0.0,0.0,-5.6549,-6.0319,-6.1524,0.0,-6.1601,0.0,0.0,0.0,0.0,0.0,0.0,0.0,0.0,0.0,0.0,0.0,0.0,0.0,0.0,0.0,0.0,0.0,0.0,0.0,0.0,0.0,0.0,0.0,0.0,0.0,0.0,0.0,0.0,0.0,0.0,0.0,0.0,0.0,0.0,0.0,0.0,0.0,0.0,0.0,0.0,0.0,0.0,0.0,0.0,0.0,0.0,0.0,0.0,0.0,0.0,0.0,0.0,0.0,0.0,0.0,0.0,0.0,0.0,0.0,0.0,0.0,0.0,0.0,0.0,0.0,0.0,0.0,0.0,0.0,0.0,0.0,0.0,0.0,0.0,0.0,0.0,0.0,0.0,0.0,0.0,0.0,0.0,0.0,0.0,0.0,0.0,0.0,0.0,0.0,0.0,0.0,0.0,0.0,0.0,0.0,0.0,0.0,0.0,0.0,0.0,0.0,0.0,0.0,0.0,0.0,0.0,0.0,0.0,0.0,0.0,-5.7819,-5.9973,-6.0396,-6.055,0.0,0.0,0.0,0.0,0.0,0.0,0.0,0.0,0.0,0.0,0.0,0.0,0.0,0.0,0.0,0.0,0.0,0.0,0.0,0.0,0.0,0.0,0.0,0.0,0.0,0.0,0.0,0.0,0.0,0.0,0.0,0.0,0.0,0.0,0.0,0.0,0.0,0.0,0.0,0.0,0.0,0.0,0.0,0.0,0.0,0.0,0.0,0.0,0.0,0.0,0.0,0.0,0.0,0.0,0.0,0.0,0.0,0.0,0.0,0.0,0.0,0.0,0.0,0.0,0.0,0.0,0.0,0.0,0.0,0.0,0.0,0.0,0.0,0.0,0.0,0.0,0.0,0.0,0.0,0.0,0.0,0.0,0.0,0.0,0.0,0.0,0.0,0.0,0.0,0.0,0.0,0.0,0.0,0.0,0.0,0.0,0.0,0.0,0.0,0.0,0.0,0.0,0.0,0.0,0.0,0.0,0.0,0.0,0.0,0.0,-5.7165,-5.9127,-6.0781,-6.0896,-6.0589,-5.9858,0.0,0.0,0.0,0.0,0.0,0.0,0.0,0.0,0.0,0.0,0.0,0.0,0.0,0.0,0.0,0.0,0.0,0.0,0.0,0.0,0.0,0.0,0.0,0.0,0.0,0.0,0.0,0.0,0.0,0.0,0.0,0.0,0.0,0.0,0.0,0.0,0.0,0.0,0.0,0.0,0.0,0.0,0.0,0.0,0.0,0.0,0.0,0.0,0.0,0.0,0.0,0.0,0.0,0.0,0.0,0.0,0.0,0.0,0.0,0.0,0.0,0.0,0.0,0.0,0.0,0.0,0.0,0.0,0.0,0.0,0.0,0.0,0.0,0.0,0.0,0.0,0.0,0.0,0.0,0.0,0.0,0.0,0.0,0.0,0.0,0.0,0.0,0.0,0.0,0.0,0.0,0.0,0.0,0.0,0.0,0.0,0.0,0.0,0.0,0.0,0.0,0.0,0.0,0.0,0.0,0.0,0.0,0.0,-5.8858,-5.8588,-6.0281,-6.4205,-6.4359,-6.3243,0.0,0.0,0.0,0.0,0.0,0.0,0.0,0.0,0.0,0.0,0.0,0.0,0.0,0.0,0.0,0.0,0.0,0.0,0.0,0.0,0.0,0.0,0.0,0.0,0.0,0.0,0.0,0.0,0.0,0.0,0.0,0.0,0.0,0.0,0.0,0.0,0.0,0.0,0.0,0.0,0.0,0.0,0.0,0.0,0.0,0.0,0.0,0.0,0.0,0.0,0.0,0.0,0.0,0.0,0.0,0.0,0.0,0.0,0.0,0.0,0.0,0.0,0.0,0.0,0.0,0.0,0.0,0.0,0.0,0.0,0.0,0.0,0.0,0.0,0.0,0.0,0.0,0.0,0.0,0.0,0.0,0.0,0.0,0.0,0.0,0.0,0.0,0.0,0.0,0.0,0.0,0.0,0.0,0.0,0.0,0.0,0.0,0.0,0.0,0.0,0.0,0.0,0.0,0.0,0.0,0.0,0.0,0.0,0.0,-5.5395,-5.7819,-6.1627,-6.6628,-6.3358,-6.1935,0.0,0.0,0.0,0.0,0.0,0.0,0.0,0.0,0.0,0.0,0.0,0.0,0.0,0.0,0.0,0.0,0.0,0.0,0.0,0.0,0.0,0.0,0.0,0.0,0.0,0.0,0.0,0.0,0.0,0.0,0.0,0.0,0.0,0.0,0.0,0.0,0.0,0.0,0.0,0.0,0.0,0.0,0.0,0.0,0.0,0.0,0.0,0.0,0.0,0.0,0.0,0.0,0.0,0.0,0.0,0.0,0.0,0.0,0.0,0.0,0.0,0.0,0.0,0.0,0.0,0.0,0.0,0.0,0.0,0.0,0.0,0.0,0.0,0.0,0.0,0.0,0.0,0.0,0.0,0.0,0.0,0.0,0.0,0.0,0.0,0.0,0.0,0.0,0.0,0.0,0.0,0.0,0.0,0.0,0.0,0.0,0.0,0.0,0.0,0.0,0.0,0.0,0.0,0.0,0.0,0.0,0.0,0.0,0.0,-5.6434,-6.0319,-6.4205,-6.759,-6.3551,-6.1627,0.0,0.0,0.0,0.0,0.0,0.0,0.0,0.0,0.0,0.0,0.0,0.0,0.0,0.0,0.0,0.0,0.0,0.0,0.0,0.0,0.0,0.0,0.0,0.0,0.0,0.0,0.0,0.0,0.0,0.0,0.0,0.0,0.0,0.0,0.0,0.0,0.0,0.0,0.0,0.0,0.0,0.0,0.0,0.0,0.0,0.0,0.0,0.0,0.0,0.0,0.0,0.0,0.0,0.0,0.0,0.0,0.0,0.0,0.0,0.0,0.0,0.0,0.0,0.0,0.0,0.0,0.0,0.0,0.0,0.0,0.0,0.0,0.0,0.0,0.0,0.0,0.0,0.0,0.0,0.0,0.0,0.0,0.0,0.0,0.0,0.0,0.0,0.0,0.0,0.0,0.0,0.0,0.0,0.0,0.0,0.0,0.0,0.0,0.0,0.0,0.0,0.0,0.0,0.0,0.0,0.0,0.0,0.0,-5.5615,-6.2781,-6.6269,-6.7628,-6.709,-6.532,-6.2589,0.0,0.0,0.0,0.0,0.0,0.0,0.0,0.0,0.0,0.0,0.0,0.0,0.0,0.0,0.0,0.0,0.0,0.0,0.0,0.0,0.0,0.0,0.0,0.0,0.0,0.0,0.0,0.0,0.0,0.0,0.0,0.0,0.0,0.0,0.0,0.0,0.0,0.0,0.0,0.0,0.0,0.0,0.0,0.0,0.0,0.0,0.0,0.0,0.0,0.0,0.0,0.0,0.0,0.0,0.0,0.0,0.0,0.0,0.0,0.0,0.0,0.0,0.0,0.0,0.0,0.0,0.0,0.0,0.0,0.0,0.0,0.0,0.0,0.0,0.0,0.0,0.0,0.0,0.0,0.0,0.0,0.0,0.0,0.0,0.0,0.0,0.0,0.0,0.0,0.0,0.0,0.0,0.0,0.0,0.0,0.0,0.0,0.0,0.0,0.0,0.0,0.0,0.0,0.0,0.0,0.0,0.0,0.0,0.0,-5.8127,-6.3128,-6.6205,-6.6936,-6.4359,-6.3089,0.0,0.0,0.0,0.0,0.0,0.0,0.0,0.0,0.0,0.0,0.0,0.0,0.0,0.0,0.0,0.0,0.0,0.0,0.0,0.0,0.0,0.0,0.0,0.0,0.0,0.0,0.0,0.0,0.0,0.0,0.0,0.0,0.0,0.0,0.0,0.0,0.0,0.0,0.0,0.0,0.0,0.0,0.0,0.0,0.0,0.0,0.0,0.0,0.0,0.0,0.0,0.0,0.0,0.0,0.0,0.0,0.0,0.0,0.0,0.0,0.0,0.0,0.0,0.0,0.0,0.0,0.0,0.0,0.0,0.0,0.0,0.0,0.0,0.0,0.0,0.0,0.0,0.0,0.0,0.0,0.0,0.0,0.0,0.0,0.0,0.0,0.0,0.0,0.0,0.0,0.0,0.0,0.0,0.0,0.0,0.0,0.0,0.0,0.0,0.0,0.0,0.0,0.0,0.0,0.0,0.0,0.0,0.0,0.0,-5.9319,-6.4859,-6.8244,-6.8975,-6.5705,-6.4243,-6.482,0.0,0.0,0.0,0.0,0.0,0.0,0.0,0.0,0.0,0.0,0.0,0.0,0.0,0.0,0.0,0.0,0.0,0.0,0.0,0.0,0.0,0.0,0.0,0.0,0.0,0.0,0.0,0.0,0.0,0.0,0.0,0.0,0.0,0.0,0.0,0.0,0.0,0.0,0.0,0.0,0.0,0.0,0.0,0.0,0.0,0.0,0.0,0.0,0.0,0.0,0.0,0.0,0.0,0.0,0.0,0.0,0.0,0.0,0.0,0.0,0.0,0.0,0.0,0.0,0.0,0.0,0.0,0.0,0.0,0.0,0.0,0.0,0.0,0.0,0.0,0.0,0.0,0.0,0.0,0.0,0.0,0.0,0.0,0.0,0.0,0.0,0.0,0.0,0.0,0.0,0.0,0.0,0.0,0.0,0.0,0.0,0.0,0.0,0.0,0.0,0.0,0.0,0.0,0.0,0.0,0.0,0.0,0.0,-6.4859,-7.0514,-7.3053,-7.2206,-6.8898,-6.6051,0.0,0.0,0.0,0.0,0.0,0.0,0.0,0.0,0.0,0.0,0.0,0.0,0.0,0.0,0.0,0.0,0.0,0.0,0.0,0.0,0.0,0.0,0.0,0.0,0.0,0.0,0.0,0.0,0.0,0.0,0.0,0.0,0.0,0.0,0.0,0.0,0.0,0.0,0.0,0.0,0.0,0.0,0.0,0.0,0.0,0.0,0.0,0.0,0.0,0.0,0.0,0.0,0.0,0.0,0.0,0.0,0.0,0.0,0.0,0.0,0.0,0.0,0.0,0.0,0.0,0.0,0.0,0.0,0.0,0.0,0.0,0.0,0.0,0.0,0.0,0.0,0.0,0.0,0.0,0.0,0.0,0.0,0.0,0.0,0.0,0.0,0.0,0.0,0.0,0.0,0.0,0.0,0.0,0.0,0.0,0.0,0.0,0.0,0.0,0.0,0.0,0.0,0.0,0.0,0.0,0.0,0.0,0.0,0.0,-6.8282,-7.1745,-7.3399,-7.3091,-6.986,-6.8052,0.0,0.0,0.0,0.0,0.0,0.0,0.0,0.0,0.0,0.0,0.0,0.0,0.0,0.0,0.0,0.0,0.0,0.0,0.0,0.0,0.0,0.0,0.0,0.0,0.0,0.0,0.0,0.0,0.0,0.0,0.0,0.0,0.0,0.0,0.0,0.0,0.0,0.0,0.0,0.0,0.0,0.0,0.0,0.0,0.0,0.0,0.0,0.0,0.0,0.0,0.0,0.0,0.0,0.0,0.0,0.0,0.0,0.0,0.0,0.0,0.0,0.0,0.0,0.0,0.0,0.0,0.0,0.0,0.0,0.0,0.0,0.0,0.0,0.0,0.0,0.0,0.0,0.0,0.0,0.0,0.0,0.0,0.0,0.0,0.0,0.0,0.0,0.0,0.0,0.0,0.0,0.0,0.0,0.0,0.0,0.0,0.0,0.0,0.0,0.0,0.0,0.0,0.0,0.0,0.0,0.0,0.0,0.0,-6.5987,-7.0629,-7.286,-7.4168,-7.4553,-7.1591,-6.9898,0.0,0.0,0.0,0.0,0.0,0.0,0.0,0.0,0.0,0.0,0.0,0.0,0.0,0.0,0.0,0.0,0.0,0.0,0.0,0.0,0.0,0.0,0.0,0.0,0.0,0.0,0.0,0.0,0.0,0.0,0.0,0.0,0.0,0.0,0.0,0.0,0.0,0.0,0.0,0.0,0.0,0.0,0.0,0.0,0.0,0.0,0.0,0.0,0.0,0.0,0.0,0.0,0.0,0.0,0.0,0.0,0.0,0.0,0.0,0.0,0.0,0.0,0.0,0.0,0.0,0.0,0.0,0.0,0.0,0.0,0.0,0.0,0.0,0.0,0.0,0.0,0.0,0.0,0.0,0.0,0.0,0.0,0.0,0.0,0.0,0.0,0.0,0.0,0.0,0.0,0.0,0.0,0.0,0.0,0.0,0.0,0.0,0.0,0.0,0.0,0.0,0.0,0.0,0.0,0.0,0.0,0.0,0.0,-6.8244,-7.2245,-7.3899,-7.513,-7.5861,-7.3514,-7.1437,0.0,0.0,0.0,0.0,0.0,0.0,0.0,0.0,0.0,0.0,0.0,0.0,0.0,0.0,0.0,0.0,0.0,0.0,0.0,0.0,0.0,0.0,0.0,0.0,0.0,0.0,0.0,0.0,0.0,0.0,0.0,0.0,0.0,0.0,0.0,0.0,0.0,0.0,0.0,0.0,0.0,0.0,0.0,0.0,0.0,0.0,0.0,0.0,0.0,0.0,0.0,0.0,0.0,0.0,0.0,0.0,0.0,0.0,0.0,0.0,0.0,0.0,0.0,0.0,0.0,0.0,0.0,0.0,0.0,0.0,0.0,0.0,0.0,0.0,0.0,0.0,0.0,0.0,0.0,0.0,0.0,0.0,0.0,0.0,0.0,0.0,0.0,0.0,0.0,0.0,0.0,0.0,0.0,0.0,0.0,0.0,0.0,0.0,0.0,0.0,0.0,0.0,0.0,0.0,0.0,0.0,0.0,0.0,-7.0283,-7.3129,-7.4207,-7.513,-7.5976,-7.3514,-7.1706,0.0,0.0,0.0,0.0,0.0,0.0,0.0,0.0,0.0,0.0,0.0,0.0,0.0,0.0,0.0,0.0,0.0,0.0,0.0,0.0,0.0,0.0,0.0,0.0,0.0,0.0,0.0,0.0,0.0,0.0,0.0,0.0,0.0,0.0,0.0,0.0,0.0,0.0,0.0,0.0,0.0,0.0,0.0,0.0,0.0,0.0,0.0,0.0,-5.7426,0.0,0.0,0.0,0.0,0.0,0.0,0.0,0.0,0.0,0.0,0.0,0.0,0.0,0.0,0.0,0.0,0.0,0.0,0.0,0.0,0.0,0.0,0.0,0.0,0.0,0.0,0.0,0.0,0.0,0.0,0.0,0.0,0.0,0.0,0.0,0.0,0.0,0.0,0.0,0.0,0.0,0.0,0.0,0.0,0.0,0.0,0.0,0.0,0.0,0.0,0.0,0.0,0.0,0.0,0.0,0.0,0.0,0.0,0.0,-7.1321,-7.3437,-7.4707,-7.5515,-7.5938,-7.4668,-7.2822,0.0,0.0,0.0,0.0,0.0,0.0,0.0,0.0,0.0,0.0,0.0,0.0,0.0,0.0,0.0,0.0,0.0,0.0,0.0,0.0,0.0,0.0,0.0,0.0,0.0,0.0,0.0,0.0,0.0,0.0,0.0,0.0,0.0,0.0,0.0,0.0,0.0,0.0,0.0,0.0,0.0,0.0,0.0,0.0,0.0,0.0,0.0,0.0,0.0,0.0,0.0,0.0,0.0,0.0,0.0,0.0,0.0,0.0,0.0,0.0,0.0,0.0,0.0,0.0,0.0,0.0,0.0,0.0,0.0,0.0,0.0,0.0,0.0,0.0,0.0,0.0,0.0,0.0,0.0,0.0,0.0,0.0,0.0,0.0,0.0,0.0,0.0,0.0,0.0,0.0,0.0,0.0,0.0,0.0,0.0,0.0,0.0,0.0,0.0,0.0,0.0,0.0,0.0,0.0,0.0,0.0,0.0,-6.7167,-7.1475,-7.3476,-7.5014,-7.5861,-7.5976,-7.5976,-7.3899,-6.9513,0.0,0.0,0.0,0.0,0.0,0.0,0.0,0.0,0.0,0.0,0.0,0.0,0.0,0.0,0.0,0.0,0.0,0.0,0.0,0.0,0.0,0.0,0.0,0.0,0.0,0.0,0.0,0.0,0.0,0.0,0.0,0.0,0.0,0.0,0.0,0.0,0.0,0.0,-4.8188,-5.322,0.0,0.0,0.0,0.0,0.0,0.0,0.0,0.0,-5.8434,0.0,0.0,0.0,0.0,0.0,0.0,0.0,0.0,0.0,0.0,0.0,0.0,0.0,0.0,0.0,0.0,0.0,0.0,0.0,0.0,0.0,0.0,0.0,0.0,0.0,0.0,0.0,0.0,0.0,0.0,0.0,0.0,0.0,0.0,0.0,0.0,0.0,0.0,0.0,0.0,0.0,0.0,0.0,0.0,0.0,0.0,0.0,0.0,0.0,0.0,0.0,0.0,0.0,0.0,0.0,0.0,-6.5743,-6.7821,-7.0321,-7.3437,-7.4437,-7.5245,-7.5976,-7.5976,-7.3322,-6.8013,0.0,0.0,0.0,0.0,0.0,0.0,0.0,0.0,0.0,0.0,0.0,0.0,0.0,0.0,0.0,0.0,0.0,0.0,0.0,0.0,0.0,0.0,0.0,0.0,0.0,0.0,0.0,0.0,0.0,0.0,0.0,0.0,0.0,0.0,0.0,0.0,0.0,0.0,0.0,-5.7831,-6.0292,0.0,0.0,0.0,0.0,0.0,0.0,0.0,0.0,-5.9424,0.0,0.0,0.0,0.0,0.0,0.0,0.0,0.0,0.0,0.0,0.0,0.0,0.0,0.0,0.0,0.0,0.0,0.0,0.0,0.0,0.0,0.0,0.0,0.0,0.0,0.0,0.0,0.0,0.0,0.0,0.0,0.0,0.0,0.0,0.0,0.0,0.0,0.0,0.0,0.0,0.0,0.0,0.0,0.0,0.0,0.0,0.0,0.0,0.0,0.0,0.0,0.0,0.0,0.0,0.0,-6.4423,-6.8821,-7.186,-7.3437,-7.4284,-7.4899,-7.5322,-7.5322,-7.2322,0.0,0.0,0.0,0.0,0.0,0.0,0.0,0.0,0.0,0.0,0.0,0.0,0.0,0.0,0.0,0.0,0.0,0.0,0.0,0.0,0.0,0.0,0.0,0.0,0.0,0.0,0.0,0.0,0.0,0.0,0.0,0.0,0.0,0.0,0.0,0.0,0.0,0.0,0.0,0.0,-5.966,-6.2328,-6.4943,0.0,0.0,0.0,0.0,0.0,0.0,-6.0991,-5.9558,0.0,0.0,0.0,0.0,0.0,0.0,0.0,0.0,0.0,0.0,0.0,0.0,0.0,0.0,0.0,0.0,0.0,0.0,0.0,0.0,0.0,0.0,0.0,0.0,0.0,0.0,0.0,0.0,0.0,0.0,0.0,0.0,0.0,0.0,0.0,0.0,0.0,0.0,0.0,0.0,0.0,0.0,0.0,0.0,0.0,0.0,0.0,0.0,0.0,0.0,0.0,0.0,0.0,0.0,0.0,-6.2423,-6.8706,-7.2399,-7.3206,-7.4053,-7.4476,-7.4476,-7.463,-7.1514,0.0,0.0,0.0,0.0,0.0,0.0,0.0,0.0,0.0,0.0,0.0,0.0,0.0,0.0,0.0,0.0,0.0,0.0,0.0,0.0,0.0,0.0,0.0,0.0,0.0,0.0,0.0,0.0,0.0,0.0,0.0,0.0,0.0,0.0,0.0,0.0,0.0,0.0,0.0,0.0,0.0,-6.3881,-6.5868,-6.5152,0.0,0.0,0.0,0.0,-6.3789,-6.2257,0.0,0.0,0.0,0.0,0.0,0.0,0.0,0.0,0.0,0.0,0.0,0.0,0.0,0.0,0.0,0.0,0.0,0.0,0.0,0.0,0.0,0.0,0.0,0.0,0.0,0.0,0.0,0.0,0.0,0.0,0.0,0.0,0.0,0.0,0.0,0.0,0.0,0.0,0.0,0.0,0.0,0.0,0.0,0.0,0.0,0.0,0.0,0.0,0.0,0.0,0.0,0.0,0.0,0.0,0.0,0.0,-6.2962,-6.5513,-6.859,-7.2168,-7.3206,-7.3654,-7.3668,-7.4322,-7.1552,0.0,0.0,0.0,0.0,0.0,0.0,0.0,0.0,0.0,0.0,0.0,0.0,0.0,0.0,0.0,0.0,0.0,0.0,0.0,0.0,0.0,0.0,0.0,0.0,0.0,0.0,0.0,0.0,0.0,0.0,0.0,0.0,0.0,0.0,0.0,0.0,0.0,0.0,0.0,0.0,0.0,-6.4997,-6.5436,-6.5455,-6.5351,0.0,0.0,-6.5586,-6.7344,-6.7343,0.0,0.0,0.0,0.0,0.0,0.0,0.0,0.0,0.0,0.0,0.0,0.0,0.0,0.0,0.0,0.0,0.0,0.0,0.0,0.0,0.0,0.0,0.0,0.0,0.0,0.0,0.0,0.0,0.0,0.0,0.0,0.0,0.0,0.0,0.0,0.0,0.0,0.0,0.0,0.0,0.0,0.0,0.0,0.0,0.0,0.0,0.0,0.0,0.0,0.0,0.0,0.0,0.0,0.0,0.0,-5.7911,-6.318,-6.6898,-7.009,-7.2822,-7.3322,-7.35,-7.35,-7.3846,-7.0821,0.0,0.0,0.0,0.0,0.0,0.0,0.0,0.0,0.0,0.0,0.0,0.0,0.0,0.0,0.0,0.0,0.0,0.0,0.0,0.0,0.0,0.0,0.0,0.0,0.0,0.0,0.0,0.0,0.0,0.0,0.0,0.0,0.0,0.0,0.0,0.0,0.0,0.0,0.0,0.0,0.0,0.0,-6.851,-6.7432,0.0,0.0,0.0,-6.7187,-6.7422,0.0,0.0,0.0,0.0,0.0,0.0,0.0,0.0,0.0,0.0,0.0,0.0,0.0,0.0,0.0,0.0,0.0,0.0,0.0,0.0,0.0,0.0,0.0,0.0,0.0,0.0,0.0,0.0,0.0,0.0,0.0,0.0,0.0,0.0,0.0,0.0,0.0,0.0,0.0,0.0,0.0,0.0,0.0,0.0,0.0,0.0,0.0,0.0,0.0,0.0,0.0,0.0,0.0,0.0,0.0,0.0,0.0,-6.3308,-6.8513,-7.1975,-7.3476,-7.3937,-7.4,-7.3822,-7.3783,0.0,0.0,0.0,0.0,0.0,0.0,0.0,0.0,0.0,0.0,0.0,0.0,0.0,0.0,0.0,0.0,0.0,0.0,0.0,0.0,0.0,0.0,0.0,0.0,0.0,0.0,0.0,-4.4662,0.0,0.0,0.0,0.0,0.0,0.0,0.0,0.0,0.0,0.0,0.0,0.0,0.0,0.0,-6.6507,-7.0369,-6.9324,-6.8789,0.0,0.0,-6.9062,-6.8867,-6.9922,-6.9609,0.0,0.0,0.0,0.0,0.0,0.0,0.0,0.0,0.0,0.0,0.0,0.0,0.0,0.0,0.0,0.0,0.0,0.0,0.0,0.0,0.0,0.0,0.0,0.0,0.0,0.0,0.0,0.0,-5.3093,0.0,0.0,0.0,0.0,0.0,0.0,0.0,0.0,0.0,0.0,0.0,0.0,0.0,0.0,0.0,0.0,0.0,0.0,0.0,0.0,0.0,0.0,0.0,0.0,0.0,-5.9212,-6.3334,-6.9129,-7.2552,-7.3514,-7.5053,-7.5438,-7.4668,-7.463,-7.1822,0.0,0.0,0.0,0.0,0.0,0.0,0.0,0.0,0.0,0.0,0.0,0.0,0.0,0.0,0.0,0.0,0.0,0.0,0.0,0.0,0.0,0.0,0.0,0.0,0.0,0.0,0.0,0.0,0.0,0.0,0.0,0.0,0.0,0.0,0.0,0.0,0.0,0.0,0.0,0.0,0.0,-6.6168,-6.8799,-7.0584,-7.2265,0.0,-7.2812,-7.2305,-7.3828,-7.414,-7.2305,-6.6562,0.0,0.0,0.0,0.0,0.0,0.0,0.0,0.0,0.0,0.0,0.0,0.0,0.0,0.0,0.0,0.0,0.0,0.0,0.0,0.0,0.0,0.0,0.0,0.0,0.0,-5.4069,-5.3665,0.0,-5.2858,0.0,0.0,0.0,0.0,0.0,0.0,0.0,0.0,0.0,0.0,0.0,0.0,0.0,0.0,0.0,0.0,0.0,0.0,0.0,0.0,0.0,0.0,0.0,0.0,-5.9855,-6.3723,-6.9303,-7.3129,-7.4976,-7.5668,-7.5861,-7.5515,-7.5515,-7.2976,0.0,0.0,0.0,0.0,0.0,0.0,0.0,0.0,0.0,0.0,0.0,0.0,0.0,0.0,0.0,0.0,0.0,0.0,0.0,0.0,0.0,0.0,0.0,0.0,0.0,0.0,0.0,0.0,-5.3895,-5.3598,-5.2395,0.0,0.0,0.0,0.0,0.0,0.0,0.0,0.0,0.0,0.0,-6.9067,-7.1165,-7.2245,0.0,0.0,-7.4492,-7.4648,-7.5312,-7.4492,-7.2656,-6.9297,-6.7422,0.0,0.0,0.0,0.0,0.0,0.0,0.0,0.0,0.0,0.0,0.0,0.0,0.0,0.0,0.0,0.0,0.0,0.0,0.0,0.0,0.0,0.0,0.0,0.0,0.0,0.0,0.0,0.0,0.0,0.0,0.0,0.0,0.0,0.0,0.0,0.0,0.0,0.0,0.0,0.0,0.0,0.0,0.0,0.0,0.0,0.0,0.0,0.0,0.0,0.0,0.0,0.0,-6.0547,-6.414,-6.9725,-7.3822,-7.6322,-7.663,-7.6746,-7.6746,-7.6515,-7.4245,-6.9667,0.0,0.0,0.0,0.0,0.0,0.0,0.0,0.0,0.0,0.0,0.0,0.0,0.0,0.0,0.0,0.0,0.0,0.0,0.0,0.0,0.0,0.0,0.0,0.0,0.0,0.0,0.0,-5.6665,-5.5241,-5.2702,0.0,0.0,0.0,0.0,0.0,0.0,0.0,0.0,0.0,0.0,-7.1429,-7.3485,-7.3934,-7.4297,-7.4922,-7.5273,-7.543,-7.5156,-7.4961,-7.3906,-7.1133,0.0,0.0,0.0,0.0,0.0,0.0,0.0,0.0,0.0,0.0,0.0,0.0,0.0,0.0,0.0,0.0,0.0,0.0,0.0,0.0,0.0,0.0,0.0,0.0,0.0,0.0,0.0,-5.4289,0.0,0.0,-5.1961,0.0,0.0,0.0,0.0,0.0,0.0,0.0,0.0,0.0,0.0,0.0,0.0,0.0,0.0,0.0,0.0,0.0,0.0,0.0,0.0,0.0,0.0,-6.1264,-6.4603,-7.05,-7.4745,-7.7169,-7.803,-7.8415,-7.8361,-7.7669,-7.563,-7.2129,0.0,0.0,0.0,0.0,0.0,0.0,0.0,0.0,0.0,0.0,0.0,0.0,0.0,0.0,0.0,0.0,0.0,0.0,0.0,0.0,0.0,0.0,0.0,0.0,0.0,0.0,-5.2462,-5.3587,-5.3587,0.0,0.0,0.0,0.0,0.0,0.0,0.0,0.0,0.0,-6.6513,-6.9896,-7.2684,-7.5173,-7.573,-7.5898,-7.5976,-7.5273,-7.4453,-7.375,-7.6211,-7.664,0.0,0.0,0.0,0.0,0.0,0.0,0.0,0.0,0.0,0.0,0.0,0.0,0.0,0.0,0.0,0.0,0.0,0.0,0.0,0.0,0.0,0.0,0.0,0.0,0.0,0.0,0.0,-5.7483,-5.5978,0.0,0.0,0.0,0.0,0.0,0.0,0.0,0.0,0.0,0.0,0.0,-5.9685,-6.1851,0.0,0.0,0.0,0.0,0.0,0.0,0.0,0.0,0.0,0.0,0.0,0.0,-6.3329,-6.6787,-7.2299,-7.6092,-7.8015,-7.8376,-7.8492,-7.8492,-7.7707,-7.5438,-7.1437,0.0,0.0,0.0,0.0,0.0,0.0,0.0,0.0,0.0,0.0,0.0,0.0,0.0,0.0,0.0,0.0,0.0,0.0,0.0,0.0,0.0,0.0,0.0,0.0,0.0,-5.4857,0.0,0.0,0.0,0.0,0.0,0.0,0.0,0.0,0.0,0.0,-6.136,-6.5652,-6.8839,-7.2672,-7.5545,-7.6552,-7.7694,-7.8633,0.0,0.0,0.0,0.0,0.0,0.0,0.0,0.0,0.0,0.0,0.0,0.0,0.0,-7.2812,-7.2734,-6.707,-6.5078,-6.457,-6.543,0.0,0.0,0.0,0.0,0.0,0.0,0.0,0.0,0.0,0.0,0.0,0.0,0.0,0.0,-6.0639,-5.8914,-5.8327,0.0,0.0,0.0,0.0,0.0,0.0,0.0,0.0,-6.0786,-6.2475,-6.3833,-6.5962,-6.5852,-6.387,-6.4016,-6.2218,0.0,0.0,0.0,0.0,0.0,0.0,0.0,0.0,-6.5298,-6.9291,-7.372,-7.6823,-7.8415,-7.8784,-7.8784,-7.8492,-7.74,-7.5399,-7.2322,-7.0321,-6.8359,0.0,0.0,0.0,0.0,0.0,0.0,0.0,0.0,0.0,0.0,0.0,0.0,0.0,0.0,0.0,0.0,0.0,0.0,0.0,0.0,0.0,0.0,0.0,-5.6395,0.0,0.0,0.0,0.0,0.0,0.0,0.0,0.0,0.0,-6.0089,-6.5151,-6.9593,-7.1686,-7.5144,-7.7485,-7.7617,0.0,0.0,0.0,0.0,0.0,0.0,0.0,-7.9023,-7.8984,-7.6953,-7.4961,-7.3984,-7.7148,-7.9101,-7.6758,0.0,0.0,-7.2539,-7.039,-6.9844,-7.0703,-7.1758,-7.2695,-7.3281,-7.5742,-7.7851,0.0,0.0,0.0,0.0,-6.4237,0.0,0.0,0.0,-6.464,-6.3759,0.0,-6.13,0.0,0.0,0.0,0.0,-5.6037,-5.818,0.0,0.0,-6.7173,-6.9265,-6.9963,-7.0,-7.0073,-7.0036,-6.9229,-6.8091,-6.6439,-6.2732,-5.9428,0.0,0.0,0.0,0.0,0.0,-6.7228,-7.214,-7.4861,-7.6938,-7.853,-7.9361,-7.9361,-7.8438,-7.6861,-7.5592,-7.4707,-7.2399,-7.0667,-6.9667,-6.2704,0.0,0.0,0.0,0.0,0.0,0.0,0.0,0.0,0.0,0.0,0.0,0.0,0.0,0.0,0.0,0.0,0.0,0.0,0.0,0.0,-5.7819,0.0,0.0,0.0,0.0,0.0,0.0,0.0,0.0,0.0,-6.6244,-6.3974,-6.8303,-7.2562,-7.4916,0.0,0.0,0.0,0.0,-7.9023,-7.9922,-8.0,-8.0117,-8.0195,-8.2773,-8.4258,-8.2734,0.0,0.0,-7.8476,-8.1601,-8.3242,-7.8437,-8.0898,-8.2851,-8.0195,-7.7109,-7.5351,-7.6094,-7.6445,-7.6914,-7.8672,-8.2539,-8.6054,-6.8274,0.0,0.0,0.0,0.0,-6.6292,-6.7247,-6.9486,-6.8128,-6.6733,-6.5411,-6.4971,0.0,0.0,0.0,0.0,0.0,0.0,-6.3209,-6.5815,-6.6769,-6.8201,-7.0073,-7.011,-7.011,-7.011,-7.044,-7.066,-7.077,-7.0183,-6.5742,-5.785,0.0,0.0,0.0,0.0,-7.0899,-7.3947,-7.7092,-7.8938,-7.9438,-7.9669,-7.9092,-7.7669,-7.6592,-7.5861,-7.563,-7.4938,-7.3283,-7.0667,-6.7936,0.0,0.0,0.0,0.0,0.0,0.0,0.0,0.0,0.0,0.0,0.0,0.0,0.0,0.0,0.0,0.0,0.0,0.0,0.0,-5.5011,-5.8704,-6.0012,0.0,0.0,0.0,0.0,0.0,0.0,0.0,0.0,0.0,-6.9719,-7.2832,-7.5196,0.0,0.0,-7.9844,-7.8672,-8.1094,-8.3359,-8.4219,-8.5351,0.0,-8.6953,-8.582,-8.5156,-8.5898,-8.6133,-8.5586,-8.3906,-8.4844,-8.5156,-8.3008,-8.3711,-8.4258,-8.3594,-8.2695,-8.2226,-8.3047,-8.3711,-8.4492,-8.5664,-8.7578,-8.9179,-7.2202,-7.0146,-6.8054,-6.8238,-6.9743,-6.8825,-6.9706,-7.1725,-7.077,-6.9633,-6.8421,-6.8421,-6.7026,-6.4677,-6.3759,0.0,0.0,0.0,-6.5778,-6.8421,-6.8715,-6.9816,-7.1468,-7.1872,-7.2018,-7.2018,-7.2165,-7.2814,-7.3859,-7.4007,-7.0865,-6.4741,0.0,-6.688,-6.7524,-7.0821,-7.4267,-7.76,-7.9746,-8.0785,-8.0785,-8.0477,-7.9515,-7.7823,-7.6938,-7.6361,-7.6015,-7.5976,-7.5053,-7.3014,-7.1168,-6.8475,0.0,0.0,0.0,0.0,0.0,0.0,0.0,0.0,0.0,0.0,0.0,-5.1548,-4.724,0.0,0.0,0.0,-5.6511,-5.8357,-5.9896,-6.2781,0.0,0.0,0.0,0.0,0.0,0.0,0.0,-6.7975,-7.1629,-7.4091,-7.4683,-7.67,-7.7796,-7.6933,-7.9519,-8.125,-8.0625,0.0,-8.582,-8.6992,-8.832,-8.9375,-8.9883,-8.8281,-8.707,-8.7422,-8.7656,-8.7265,-8.6328,-8.6445,-8.6367,-8.5664,-8.5429,-8.5508,-8.5859,-8.5937,-8.5937,-8.6172,-8.6875,-8.7851,-8.8984,-8.9922,-9.0781,-7.5506,-7.5799,-7.2165,-7.1064,-7.155,-7.166,-7.2055,-7.2679,-7.2679,-7.2275,-7.1586,-7.1541,-7.0257,-6.8081,-6.5878,0.0,-6.8201,-6.7504,-6.8788,-7.1586,-7.2386,-7.3083,-7.3817,-7.4551,-7.4888,-7.4882,-7.4147,-7.4579,-7.5999,-7.528,-7.4894,-7.4838,-7.3052,-7.3338,-7.5539,-7.5204,-7.736,-8.2077,-8.2247,-8.2285,-8.2208,-8.1439,-8.0246,-7.8746,-7.7861,-7.7053,-7.6361,-7.6169,-7.6092,-7.5976,-7.3053,-7.0591,-6.8923,0.0,0.0,0.0,0.0,0.0,0.0,0.0,0.0,0.0,0.0,0.0,0.0,0.0,0.0,-6.0896,-6.582,0.0,-6.8244,-6.8398,0.0,0.0,0.0,-6.3858,-6.4436,-6.8436,-7.1514,-7.2591,0.0,0.0,-7.8723,-7.983,-8.0326,-7.9579,-8.1158,-8.2695,-8.3515,-8.5156,-8.6992,-8.8554,-8.9531,-9.0078,-9.0156,-8.9883,-8.9258,-8.8125,-8.8906,-8.8906,-8.7148,-8.707,-8.7226,-8.6484,-8.6367,-8.664,-8.7461,-8.7539,-8.7383,-8.6875,-8.7265,-8.8281,-9.0039,-9.0937,-9.164,-7.6497,-7.6093,-7.5726,-7.4962,-7.4111,-7.4698,-7.4735,-7.4331,-7.4331,-7.4258,-7.4037,-7.3377,-7.2789,-7.2239,-7.1651,-7.2055,-7.3193,-7.2973,-7.3303,-7.4008,-7.4258,-7.4441,-7.4625,-7.4808,-7.4888,-7.4882,-7.4698,-7.5658,-7.7665,-7.7542,-7.7979,-7.8995,-7.915,-7.8263,-7.6522,-7.8637,-8.0295,-8.14,-8.1977,-8.2016,-8.14,-8.0554,-8.0208,-8.0439,-7.9015,-7.8438,-7.8861,-7.7669,-7.6976,-7.6938,-7.5592,-7.4284,-7.3206,-6.6936,0.0,0.0,0.0,0.0,0.0,0.0,0.0,0.0,0.0,-5.8011,-5.2087,0.0,-5.9627,0.0,-6.9321,-7.0706,-6.6898,-6.8244,0.0,0.0,-6.8129,-6.8513,-7.4207,-7.3707,-7.3937,-7.6707,-7.8477,-7.9746,-8.04,-8.1575,-8.2544,-8.2933,-8.3146,-8.3359,-8.3672,-8.6211,-8.8476,-8.9492,-9.0351,-9.0976,-9.0937,-9.039,-8.9883,-8.9492,-8.9219,-8.8984,-8.9101,-8.8672,-8.8164,-8.7422,-8.7695,-8.8164,-8.8398,-8.8398,-8.8906,-8.9765,-8.9765,-9.0156,-9.2422,-9.2617,-9.2539,-7.7635,-7.7268,-7.8075,-7.7488,-7.6019,-7.646,-7.6203,-7.5469,-7.5432,-7.5249,-7.4882,-7.4441,-7.4221,-7.4221,-7.4258,-7.4478,-7.4888,-7.4888,-7.4888,-7.4888,-7.5285,-7.5432,-7.5469,-7.5769,-7.6125,-7.6437,-7.64,-7.7324,-7.9044,-7.9128,-7.9841,-8.1266,-8.1743,-8.1213,-7.9838,-8.1251,-8.1897,-8.1631,-8.2439,-8.2477,-8.167,-8.117,-8.0439,-7.9438,-7.9592,-7.9131,-7.8169,-7.8284,-7.7553,-7.5707,-7.513,-7.4476,-7.3591,-6.959,-6.7359,0.0,0.0,0.0,0.0,0.0,0.0,0.0,0.0,0.0,0.0,0.0,-6.3089,-6.5166,-7.1321,-7.3591,-6.9667,-7.1898,-7.3976,-7.4899,-7.3322,-7.3875,-7.8068,-7.7207,-7.7015,-7.8861,-8.0131,-8.1093,-8.1608,-8.2727,-8.3828,-8.4684,-8.4746,-8.4922,-8.5429,-8.7344,-8.9023,-8.9844,-9.0429,-9.0859,-9.1211,-9.0898,-9.0703,-9.1054,-9.1054,-9.1094,-9.1133,-9.0781,-9.0273,-8.9922,-9.0156,-9.0273,-8.9922,-8.9844,-9.0234,-9.0898,-9.0937,-9.1445,-9.3398,-9.3515,-9.3437,-7.8736,-7.8809,-7.9507,-7.8956,-7.7635,-7.7604,-7.7121,-7.624,-7.6276,-7.5799,-7.5065,-7.5035,-7.5065,-7.5065,-7.5035,-7.5102,-7.5212,-7.5182,-7.5182,-7.5285,-7.6056,-7.6423,-7.646,-7.7268,-7.7983,-7.858,-7.8607,-7.929,-8.0563,-8.0582,-8.1305,-8.2577,-8.2747,-8.3054,-8.3538,-8.3177,-8.2738,-8.2324,-8.2824,-8.2747,-8.2016,-8.1977,-8.0631,-7.8054,-7.9939,-7.9746,-7.7015,-7.8746,-7.813,-7.4591,-7.4207,-7.3783,-7.3014,-7.2476,-7.1475,0.0,-6.8744,0.0,0.0,0.0,0.0,0.0,0.0,0.0,0.0,-6.7705,-6.7782,-6.5897,-7.286,-7.6553,-7.4322,-7.6784,-7.8515,-7.8669,-7.8669,-7.8707,-7.8861,-7.9592,-8.0131,-8.0131,-8.1516,-8.2477,-8.2701,-8.3657,-8.4676,-8.5533,-8.6038,-8.6601,-8.7461,-8.8203,-8.9023,-8.9883,-9.0,-9.039,-9.1133,-9.1406,-9.1758,-9.2617,-9.3203,-9.3633,-9.2812,-9.2695,-9.2656,-9.2539,-9.2539,-9.2383,-9.1601,-9.1445,-9.1445,-9.1523,-9.1484,-9.1992,-9.3437,-9.3711,-9.4023,-7.9543,-7.958,-7.9727,-7.9617,-7.9323,-7.9323,-7.8479,-7.7053,-7.7053,-7.6644,-7.5909,-7.5873,-7.5873,-7.5873,-7.5873,-7.624,-7.6833,-7.6833,-7.6833,-7.687,-7.7745,-7.8112,-7.8185,-7.8919,-7.9644,-8.0321,-8.0348,-8.1307,-8.3158,-8.3178,-8.3619,-8.4423,-8.5055,-8.4786,-8.3708,0.0,0.0,0.0,-8.1131,-8.0439,-8.0285,-8.0285,-8.0323,-8.0362,-8.0823,0.0,-8.1093,-8.0285,-7.9477,-7.8669,-7.7938,0.0,-7.7299,0.0,0.0,0.0,0.0,0.0,0.0,0.0,0.0,0.0,-7.1437,-7.0667,-6.9283,-7.3476,-7.5091,-7.2283,-7.5745,-7.8054,-7.7592,-7.8092,-7.8784,-7.9477,-7.9554,-7.9823,-8.0516,-8.1323,-8.1823,-8.1862,-8.2747,-8.3632,-8.4257,-8.4936,-8.5571,-8.6413,-8.6971,-8.7578,-8.8359,-8.8594,-8.9023,-8.9804,-9.0,-9.0312,-9.1172,-9.1875,-9.2578,-9.3437,-9.375,-9.3867,-9.375,-9.3711,-9.3398,-9.2929,-9.3164,-9.3398,-9.2539,-9.2344,-9.2383,-9.2344,-9.2344,-9.2656,-9.3672,-9.332,-9.3125,-8.0755,-8.0388,-8.0388,-8.0167,0.0,-7.9832,-7.9323,-7.8516,-7.8112,-7.7488,-7.6717,-7.6717,-7.6717,-7.6717,-7.7157,-7.7561,-7.7965,-7.8369,-7.8516,-7.8552,-7.8956,-7.9176,-7.9208,-7.9939,-8.0599,-8.1229,-8.1581,-8.2456,-8.3693,-8.3729,-8.3913,-8.4247,-8.467,-8.4439,-8.3632,-8.4016,-8.3593,-8.2324,-8.1477,-8.0862,-8.0439,-8.0439,-8.0246,-7.9862,-8.1477,0.0,0.0,0.0,0.0,0.0,0.0,0.0,0.0,-7.4591,-7.3783,-7.4553,-7.3053,-7.2129,-7.2129,-7.2528,-7.3668,-7.5784,-7.6399,-7.5899,-7.4168,-7.6784,-7.7977,-7.6784,-7.8169,-7.9323,-7.9746,-8.0131,-8.0554,-8.0977,-8.14,-8.1862,-8.2285,-8.2708,-8.2939,-8.3016,-8.3708,-8.4439,-8.4824,-8.5634,-8.645,-8.7308,-8.7812,-8.8398,-8.9101,-8.8945,-8.9023,-8.9844,-9.0,-9.0469,-9.1679,-9.2265,-9.3086,-9.4179,-9.4922,-9.5156,-9.5195,-9.5508,-9.5625,-9.5234,-9.5508,-9.539,-9.4179,-9.3867,-9.3633,-9.2851,-9.2578,-9.2695,-9.3203,-9.3242,-9.3515,-8.1599,-8.1012,-8.0865,-8.0388,-7.9832,-7.9832,-7.9832,-7.9764,-7.9066,0.0,0.0,-7.7745,-7.7714,-7.7787,-7.8479,-7.8809,-7.8846,-7.9507,-7.9832,-7.9832,-7.9947,-8.0021,-8.0016,-8.0726,-8.1452,-8.2141,-8.2706,-8.3334,-8.4,-8.4055,-8.4016,-8.4055,-8.3951,-8.3862,-8.3862,-8.4138,-8.3785,-8.2785,-8.2477,-8.1977,-8.1323,-8.1323,-8.0631,-7.9208,-8.2054,-8.2208,-7.9361,-8.1862,-8.1362,-7.7169,-7.6899,-7.6592,-7.5899,-7.5822,-7.6784,-7.8746,-7.8938,-7.8977,-7.8938,-7.8977,-7.8938,-7.8977,-7.9631,-7.9669,-7.8784,-7.8861,-7.9323,-8.0169,-8.0246,-8.0592,-8.1439,-8.2131,-8.2516,-8.2516,-8.317,-8.3555,-8.3593,-8.3747,-8.3824,-8.3901,-8.4593,-8.5093,-8.5203,-8.6254,-8.7245,-8.7962,-8.8575,-8.9219,-8.9883,-8.9531,-8.9336,-9.0117,-9.0351,-9.0859,-9.2344,-9.2851,-9.3476,-9.4883,-9.5742,-9.6289,-9.6562,-9.7031,-9.75,-9.7422,-9.7578,-9.6758,-9.5508,-9.4883,-9.4414,-9.289,-9.2578,-9.2578,-9.2656,-9.3164,-9.3789,-8.1122,-8.0975,-8.0241,-7.991,-7.9832,-7.9832,-7.9832,-7.9764,-7.969,-7.9543,-7.9433,-7.9433,-7.9433,-7.9433,-7.958,-7.9617,-7.9617,-7.9727,-7.9832,-7.9869,-8.0534,-8.0828,-8.0865,-8.1617,-8.266,-8.379,-8.396,-8.461,-8.5625,-8.5747,-8.5747,-8.5659,-8.5188,-8.486,-8.4995,-8.6212,-8.6094,-8.4555,-8.3054,-8.2247,-8.2131,-8.2131,-8.2054,-8.1823,-8.2978,-8.3054,-8.1823,-8.2247,-8.1823,-8.0477,-8.04,-8.0323,-8.0208,-8.0131,-8.0362,-8.0708,-8.0746,-8.0746,-8.0746,-8.0746,-8.0746,-8.0746,-8.0823,-8.0554,-7.9746,-8.0285,-8.1054,-8.1862,-8.19,-8.2285,-8.3131,-8.3324,-8.3401,-8.3401,-8.3516,-8.3593,-8.3708,-8.4286,-8.4709,-8.4747,-8.544,-8.5901,-8.6043,-8.703,-8.7915,-8.8281,-8.9278,-9.0156,-9.0781,-9.0351,-9.0234,-9.0898,-9.1133,-9.1836,-9.3086,-9.3672,-9.3984,-9.5,-9.5234,-9.5586,-9.6172,-9.6484,-9.6836,-9.7539,-9.707,-9.6289,-9.5312,-9.457,-9.3789,-9.2812,-9.2578,-9.2578,-9.2578,-9.2773,-9.289,-8.1672,-8.1599,-8.1232,-8.1085,-8.1085,-8.1085,-8.1085,-8.1085,-8.1085,-8.0608,-7.9832,-7.9832,-7.9832,-7.9837,-8.0241,-8.0461,-8.0461,-8.0901,-8.1085,-8.1122,-8.1489,-8.1636,-8.1705,-8.2406,-8.3045,-8.3704,-8.4396,-8.4995,-8.5532,-8.5919,-8.5937,-8.5532,-8.4893,-8.4974,-8.5627,-8.5991,-8.5949,-8.5538,-8.4786,-8.417,-8.3747,-8.4132,-8.4362,-8.4362,-8.5209,-8.4786,-8.3093,-8.3439,-8.3093,-8.1785,-8.1747,-8.1977,-8.2401,-8.2439,-8.2439,-8.2439,-8.1977,-8.1747,-8.1747,-8.1362,-8.1093,-8.1093,-8.1516,-8.14,-8.0592,-8.1285,-8.2093,-8.2901,-8.3016,-8.317,-8.3555,-8.4016,-8.4324,-8.4324,-8.467,-8.4939,-8.4978,-8.5286,-8.5555,-8.5555,-8.5863,-8.6286,-8.6748,-8.7572,-8.8537,-8.9317,-9.0566,-9.1562,-9.1953,-9.1679,-9.1523,-9.1914,-9.1992,-9.2304,-9.3086,-9.3203,-9.3398,-9.375,-9.4179,-9.4609,-9.5078,-9.5429,-9.5937,-9.625,-9.6015,-9.5469,-9.4687,-9.4219,-9.3554,-9.2851,-9.2578,-9.2578,-9.2578,-9.2578,-9.2578,-8.2186,-8.2186,-8.2186,-8.2186,-8.2186,-8.2186,-8.2186,-8.2186,-8.2186,-8.1489,-8.0424,-8.0314,-8.0314,-8.0388,-8.1012,-8.1269,-8.1379,-8.1893,-8.2186,-8.2186,-8.2186,-8.2186,-8.2251,-8.2732,-8.3053,-8.3303,-8.4214,-8.4762,-8.4936,-8.5437,-8.532,-8.474,-8.4452,-8.4806,-8.5645,-8.5475,-8.557,-8.6077,-8.6286,-8.6094,-8.5517,-8.6286,-8.6709,-8.6748,-8.7325,-8.6671,-8.4632,-8.4939,-8.4478,-8.3016,-8.2708,-8.2901,-8.3516,-8.3593,-8.3593,-8.3516,-8.2978,-8.2593,-8.2554,-8.2016,-8.167,-8.167,-8.2054,-8.2093,-8.1785,-8.2054,-8.267,-8.3439,-8.3747,-8.3978,-8.4286,-8.4786,-8.517,-8.5209,-8.5709,-8.5978,-8.6094,-8.6094,-8.6209,-8.6324,-8.6401,-8.6781,-8.758,-8.8278,-8.9317,-9.0852,-9.196,-9.2539,-9.2578,-9.2578,-9.2578,-9.2578,-9.2578,-9.2578,-9.2578,-9.2617,-9.2656,-9.2578,-9.3164,-9.3672,-9.4023,-9.4531,-9.5,-9.5195,-9.5078,-9.4687,-9.4062,-9.3672,-9.332,-9.2734,-9.2578,-9.2578,-9.2578,-9.2578,-9.2578,-8.2186,-8.2186,-8.2186,-8.2186,-8.2186,-8.2186,-8.2186,-8.2186,-8.2186,-8.215,-8.1893,-8.1966,-8.1929,-8.1966,-8.2039,-8.2039,-8.2039,-8.215,-8.2186,-8.2186,-8.2186,-8.2186,-8.2186,-8.2247,-8.2616,-8.3103,-8.335,-8.3772,-8.4276,-8.4372,-8.408,-8.3597,-8.4452,-8.4785,-8.4583,-8.5475,-8.6005,-8.6132,-8.6863,-8.7248,-8.7248,-8.8017,-8.844,-8.844,-8.8517,-8.8094,-8.694,-8.6363,-8.5593,-8.4709,-8.3901,-8.3516,-8.3632,-8.3593,-8.3632,-8.3632,-8.3516,-8.3478,-8.3439,-8.3439,-8.3285,-8.3285,-8.2708,-8.2631,-8.3131,-8.2708,-8.267,-8.3439,-8.4286,-8.4978,-8.5747,-8.5901,-8.5901,-8.5786,-8.6017,-8.6094,-8.6094,-8.6094,-8.6401,-8.7209,-8.7242,-8.7664,-8.8673,-8.9662,-9.0827,-9.1992,-9.2383,-9.2578,-9.2578,-9.2578,-9.2578,-9.2578,-9.2578,-9.2578,-9.2578,-9.2578,-9.2578,-9.2617,-9.2656,-9.3047,-9.3594,-9.3867,-9.4219,-9.4531,-9.4453,-9.3945,-9.3711,-9.332,-9.2773,-9.2695,-9.2578,-9.2578,-9.2578,-9.2578,-9.2578,-8.2186,-8.2186,-8.2186,-8.2186,-8.2186,-8.2186,-8.2186,-8.2186,-8.2186,-8.2186,-8.2186,-8.2186,-8.2186,-8.2186,-8.2186,-8.2186,-8.2186,-8.2186,-8.2186,-8.2186,-8.2186,-8.2186,-8.2186,-8.2186,-8.2375,-8.2647,-8.2994,-8.3359,-8.3651,-8.4004,-8.442,-8.4806,-8.474,-8.4785,-8.528,-8.5456,-8.57,-8.6115,-8.694,-8.7632,-8.8209,-8.8979,-8.9671,-9.0133,-9.0171,-8.9248,-8.7594,-8.7017,-8.6247,-8.5016,-8.4555,-8.4593,-8.5055,-8.5055,-8.5055,-8.5055,-8.4632,-8.4132,-8.3632,-8.3593,-8.3593,-8.3593,-8.3747,-8.3593,-8.2939,-8.3401,-8.3632,-8.3093,-8.4093,-8.4901,-8.4786,-8.5517,-8.594,-8.5593,-8.5786,-8.6094,-8.6094,-8.6555,-8.7055,-8.7418,-8.7951,-8.872,-8.9668,-9.0807,-9.1778,-9.2461,-9.2578,-9.2578,-9.2578,-9.2578,-9.2578,-9.2578,-9.2578,-9.2578,-9.2578,-9.2578,-9.2578,-9.2578,-9.2578,-9.2851,-9.3008,-9.3125,-9.3281,-9.3672,-9.3437,-9.3203,-9.3086,-9.2929,-9.2578,-9.2578,-9.2578,-9.2578,-9.2578,-9.2578,-9.2578,-8.2186,-8.2186,-8.2186,-8.2186,-8.2186,-8.2186,-8.2186,-8.2186,-8.2186,-8.2186,-8.2223,-8.2406,-8.2517,-8.2517,-8.2517,-8.2553,-8.2517,-8.2517,-8.2663,-8.2774,-8.2406,-8.2406,-8.2774,-8.237,-8.2333,-8.2541,-8.2788,-8.3135,-8.3545,-8.4215,-8.5015,-8.5626,-8.4899,-8.491,-8.57,-8.5495,-8.5589,-8.6099,-8.6748,-8.7478,-8.8286,-8.8902,-8.9863,-9.1018,-9.121,-9.021,-8.8209,-8.7863,-8.7094,-8.567,-8.5363,-8.5478,-8.6055,-8.6094,-8.6094,-8.6055,-8.5555,-8.4939,-8.4324,-8.4286,-8.4286,-8.4324,-8.4709,-8.4362,-8.3478,-8.3978,-8.3939,-8.3054,-8.4016,-8.4555,-8.3901,-8.4901,-8.544,-8.5016,-8.5632,-8.617,-8.6478,-8.7055,-8.7555,-8.8051,-8.8881,-8.9717,-9.0693,-9.1658,-9.24,-9.2539,-9.2578,-9.2578,-9.2578,-9.2578,-9.2578,-9.2578,-9.2578,-9.2578,-9.2578,-9.2578,-9.2578,-9.2578,-9.2578,-9.2578,-9.2578,-9.2617,-9.2617,-9.3086,-9.2734,-9.2617,-9.2773,-9.2656,-9.2578,-9.2578,-9.2578,-9.2578,-9.2578,-9.2578,-9.2578,-8.2186,-8.2186,-8.2186,-8.2186,-8.2186,-8.2186,-8.2186,-8.2186,-8.2223,-8.2223,-8.237,-8.303,-8.3361,-8.3361,-8.3398,-8.3361,-8.3361,-8.3361,-8.3691,-8.4168,-8.2957,-8.303,-8.4315,-8.2957,-8.2627,-8.3251,-8.2798,-8.3164,-8.4356,-8.5042,-8.536,-8.5483,-8.5285,-8.5159,-8.5358,-8.5775,-8.606,-8.6115,-8.6209,-8.6632,-8.7363,-8.7555,-8.8748,-9.0787,-9.1133,-9.0594,-8.9671,-8.8979,-8.8132,-8.7286,-8.6401,-8.6055,-8.6094,-8.6094,-8.6094,-8.6094,-8.6055,-8.6017,-8.5901,-8.5863,-8.5863,-8.5824,-8.5286,-8.4863,-8.4555,-8.417,-8.3747,-8.3516,-8.4247,-8.4439,-8.3824,-8.4593,-8.5093,-8.5016,-8.567,-8.644,-8.7209,-8.744,-8.8171,-8.9316,-9.0006,-9.0701,-9.1889,-9.2363,-9.2539,-9.2578,-9.2578,-9.2578,-9.2578,-9.2578,-9.2578,-9.2578,-9.2578,-9.2578,-9.2578,-9.2578,-9.2578,-9.2578,-9.2578,-9.2578,-9.2578,-9.2578,-9.2578,-9.2578,-9.2578,-9.2578,-9.2578,-9.2578,-9.2578,-9.2578,-9.2578,-9.2578,-9.2578,-9.2578,-9.2578,-8.2186,-8.2186,-8.2186,-8.2186,-8.2186,-8.2186,-8.2186,-8.2223,-8.2774,-8.2957,-8.3104,-8.3838,-8.4168,-8.4205,-8.4719,-8.4646,-8.4205,-8.4168,-8.4352,-8.4535,-8.3985,-8.4058,-8.4462,-8.3985,-8.3875,-8.4095,-8.3875,-8.4466,-8.5698,-8.6077,-8.6639,-8.7289,-8.6872,-8.6581,-8.654,-8.624,-8.6094,-8.6094,-8.6094,-8.6517,-8.7286,-8.7401,-8.8132,-8.9479,-8.9594,-8.9171,-8.8325,-8.8017,-8.7478,-8.6594,-8.6247,-8.6094,-8.6094,-8.6094,-8.6094,-8.6094,-8.6094,-8.6094,-8.6094,-8.6094,-8.6094,-8.6094,-8.5863,-8.544,-8.4978,-8.4593,-8.4209,-8.3824,-8.3862,-8.3862,-8.3978,-8.4824,-8.5478,-8.517,-8.6094,-8.7055,-8.7517,-8.8325,-8.9286,-8.9927,-9.0675,-9.1662,-9.2177,-9.2539,-9.2578,-9.2578,-9.2578,-9.2578,-9.2578,-9.2578,-9.2578,-9.2578,-9.2578,-9.2578,-9.2578,-9.2578,-9.2578,-9.2578,-9.2578,-9.2578,-9.2578,-9.2578,-9.2578,-9.2578,-9.2578,-9.2578,-9.2578,-9.2578,-9.2578,-9.2578,-9.2578,-9.2578,-9.2578,-9.2578,-9.2578,-8.2186,-8.2186,-8.2186,-8.237,-8.2553,-8.259,-8.2737,-8.2994,-8.3544,-8.3801,-8.3948,-8.4646,-8.4976,-8.5123,-8.582,-8.593,-8.538,-8.5123,-8.5123,-8.5306,-8.4829,-8.5033,-8.5558,-8.5185,-8.5074,-8.5295,-8.5332,-8.5931,-8.6932,-8.7233,-8.7955,-8.8927,-8.8209,-8.7825,-8.7671,-8.694,-8.6517,-8.6517,-8.6286,-8.6401,-8.694,-8.6978,-8.7248,-8.7748,-8.7863,-8.7748,-8.7401,-8.7401,-8.7017,-8.6247,-8.6094,-8.6094,-8.6094,-8.6094,-8.6094,-8.6094,-8.6094,-8.6094,-8.6094,-8.6094,-8.6094,-8.6094,-8.6094,-8.5824,-8.5363,-8.5286,-8.4978,-8.4593,-8.4709,-8.4824,-8.5093,-8.6132,-8.6478,-8.5747,-8.6786,-8.7902,-8.8209,-8.921,-8.9976,-9.059,-9.1295,-9.2003,-9.25,-9.2578,-9.2578,-9.2578,-9.2578,-9.2578,-9.2578,-9.2578,-9.2578,-9.2578,-9.2578,-9.2578,-9.2578,-9.2578,-9.2578,-9.2578,-9.2578,-9.2578,-9.2578,-9.2578,-9.2578,-9.2578,-9.2578,-9.2578,-9.2578,-9.2578,-9.2578,-9.2578,-9.2578,-9.2578,-9.2578,-9.2578,-9.2578,-8.226,-8.2333,-8.226,-8.2774,-8.3398,-8.3434,-8.3838,-8.4389,-8.4572,-8.4609,-8.4719,-8.5453,-8.5783,-8.5967,-8.6554,-8.6921,-8.6664,-8.6077,-8.6151,-8.6628,-8.5416,-8.5918,-8.7619,-8.6385,-8.6125,-8.6787,-8.6877,-8.7239,-8.7902,-8.8501,-8.9203,-8.966,-8.9094,-8.8709,-8.8709,-8.7863,-8.7401,-8.7248,-8.6671,-8.6247,-8.6132,-8.6247,-8.6247,-8.6286,-8.6286,-8.6632,-8.7286,-8.7325,-8.6901,-8.6209,-8.6094,-8.6094,-8.6094,-8.6094,-8.6094,-8.6094,-8.6094,-8.6094,-8.6094,-8.6094,-8.6094,-8.6094,-8.6094,-8.6055,-8.5978,-8.5978,-8.594,-8.594,-8.6555,-8.7171,-8.7209,-8.7979,-8.794,-8.6632,-8.7748,-8.894,-8.9556,-8.9863,-9.0419,-9.1467,-9.1875,-9.2087,-9.2461,-9.2578,-9.2578,-9.2578,-9.2578,-9.2578,-9.2578,-9.2578,-9.2578,-9.2578,-9.2578,-9.2578,-9.2578,-9.2578,-9.2578,-9.2578,-9.2578,-9.2578,-9.2578,-9.2578,-9.2578,-9.2578,-9.2578,-9.2578,-9.2578,-9.2578,-9.2578,-9.2578,-9.2578,-9.2578,-9.2578,-9.2578,-9.2578,-8.3361,-8.3838,-8.3838,-8.3985,-8.4205,-8.4242,-8.4389,-8.4682,-8.5159,-8.5416,-8.5563,-8.6261,-8.6628,-8.6664,-8.6921,-8.7031,-8.6995,-8.6738,-8.6775,-8.6848,-8.6444,-8.6841,-8.7799,-8.7548,-8.7474,-8.778,-8.8176,-8.8533,-8.8809,-8.9368,-9.0085,-9.0506,-8.994,-8.9556,-8.9479,-8.8709,-8.8286,-8.8209,-8.744,-8.7017,-8.694,-8.6401,-8.6094,-8.6094,-8.6094,-8.6247,-8.6478,-8.6517,-8.6363,-8.6094,-8.6094,-8.6094,-8.6094,-8.6094,-8.6094,-8.6094,-8.6094,-8.6094,-8.6094,-8.6094,-8.6094,-8.6094,-8.6094,-8.6094,-8.6094,-8.6094,-8.6094,-8.617,-8.6863,-8.7401,-8.7632,-8.8709,-8.8979,-8.8017,-8.8863,-8.9633,-8.9979,-9.0441,-9.1074,-9.1685,-9.1875,-9.2093,-9.2461,-9.2578,-9.2578,-9.2578,-9.2578,-9.2578,-9.2578,-9.2578,-9.2578,-9.2578,-9.2578,-9.2578,-9.2578,-9.2578,-9.2578,-9.2578,-9.2578,-9.2578,-9.2578,-9.2578,-9.2578,-9.2578,-9.2578,-9.2578,-9.2578,-9.2578,-9.2578,-9.2578,-9.2578,-9.2578,-9.2578,-9.2578,-9.2578,-8.4132,-8.4572,-8.4609,-8.4792,-8.5013,-8.5049,-8.5233,-8.5527,-8.604,-8.6224,-8.6371,-8.6775,-8.7031,-8.7031,-8.7031,-8.7031,-8.7029,-8.7265,-8.7427,-8.7328,-8.7064,-8.7427,-8.8015,-8.8107,-8.8417,-8.8719,-8.8746,-8.8979,-8.95,-8.9901,-9.0467,-9.0985,-9.0633,-9.0402,-9.0325,-8.9594,-8.9133,-8.9017,-8.8325,-8.7863,-8.7709,-8.7017,-8.6594,-8.6555,-8.6286,-8.6094,-8.6094,-8.6094,-8.6094,-8.6094,-8.6094,-8.6094,-8.6094,-8.6094,-8.6094,-8.6094,-8.6094,-8.6094,-8.6094,-8.6094,-8.6094,-8.6094,-8.6094,-8.6094,-8.6094,-8.6094,-8.6094,-8.6209,-8.7209,-8.7902,-8.8132,-8.9402,-9.0017,-8.971,-9.0056,-9.0364,-9.0479,-9.0864,-9.1368,-9.176,-9.1875,-9.2117,-9.2461,-9.2578,-9.2578,-9.2578,-9.2578,-9.2578,-9.2578,-9.2578,-9.2578,-9.2578,-9.2578,-9.2578,-9.2578,-9.2578,-9.2578,-9.2578,-9.2578,-9.2578,-9.2578,-9.2578,-9.2578,-9.2578,-9.2578,-9.2578,-9.2578,-9.2578,-9.2578,-9.2578,-9.2656,-9.2578,-9.2578,-9.2578,-9.2578,-8.4719,-8.4719,-8.4756,-8.5233,-8.582,-8.5857,-8.6224,-8.6848,-8.6958,-8.6921,-8.6958,-8.6995,-8.7031,-8.7031,-8.7031,-8.7029,-8.7163,-8.7715,-8.7985,-8.7867,-8.7586,-8.7646,-8.8046,-8.8338,-8.891,-8.9462,-8.8937,-8.9095,-8.9984,-9.0181,-9.0508,-9.1118,-9.1133,-9.1171,-9.0941,-9.0325,-8.9979,-8.9902,-8.9171,-8.8748,-8.8671,-8.7786,-8.7325,-8.7286,-8.6555,-8.6094,-8.6094,-8.6094,-8.6094,-8.6094,-8.6094,-8.6094,-8.6094,-8.6094,-8.6094,-8.6094,-8.6094,-8.6094,-8.6094,-8.6094,-8.6094,-8.6094,-8.6094,-8.6094,-8.6094,-8.6094,-8.6094,-8.6209,-8.7594,-8.8594,-8.8863,-9.0094,-9.0941,-9.1133,-9.1018,-9.1056,-9.1171,-9.121,-9.1421,-9.177,-9.1901,-9.2074,-9.25,-9.2578,-9.2578,-9.2578,-9.2578,-9.2578,-9.2578,-9.2578,-9.2578,-9.2578,-9.2578,-9.2578,-9.2578,-9.2578,-9.2578,-9.2578,-9.2578,-9.2578,-9.2578,-9.2578,-9.2578,-9.2578,-9.2578,-9.2578,-9.2578,-9.2617,-9.2773,-9.2969,-9.289,-9.2695,-9.2734,-9.289,-9.2734,-8.582,-8.6371,-8.6371,-8.6518,-8.6701,-8.6701,-8.6775,-8.6995,-8.7031,-8.7031,-8.7031,-8.7031,-8.7031,-8.7031,-8.7031,-8.7298,-8.7741,-8.8015,-8.8107,-8.8167,-8.8475,-8.8309,-8.8388,-8.9122,-8.9438,-8.9525,-8.9939,-9.0262,-9.016,-9.0626,-9.0989,-9.1154,-9.121,-9.121,-9.1133,-9.0941,-9.0864,-9.0748,-9.0017,-8.9594,-8.9325,-8.8132,-8.744,-8.7325,-8.6555,-8.6132,-8.6094,-8.6094,-8.6094,-8.6094,-8.6094,-8.6094,-8.6094,-8.6094,-8.6094,-8.6094,-8.6094,-8.6094,-8.6094,-8.6094,-8.6094,-8.6094,-8.6094,-8.6094,-8.6094,-8.6094,-8.6094,-8.6401,-8.7632,-8.8671,-8.894,-9.021,-9.1056,-9.121,-9.121,-9.121,-9.121,-9.1189,-9.14,-9.1811,-9.1867,-9.215,-9.2422,-9.2578,-9.2578,-9.2578,-9.2578,-9.2578,-9.2578,-9.2578,-9.2578,-9.2578,-9.2578,-9.2578,-9.2578,-9.2578,-9.2578,-9.2578,-9.2578,-9.2578,-9.2578,-9.2578,-9.2578,-9.2578,-9.2578,-9.2578,-9.2617,-9.2617,-9.2929,-9.332,-9.3515,-9.3515,-9.3554,-9.3594,-9.3164,-8.6591,-8.7031,-8.7031,-8.7031,-8.7031,-8.7031,-8.7031,-8.7031,-8.7031,-8.7031,-8.7031,-8.7031,-8.7031,-8.7031,-8.7031,-8.7427,-8.8046,-8.8426,-8.8663,-8.9016,-8.9314,-8.9301,-8.9173,-8.9621,-8.974,-9.0028,-9.0467,-9.0626,-9.0646,-9.1008,-9.1154,-9.121,-9.121,-9.121,-9.121,-9.121,-9.121,-9.1095,-9.0671,-9.0325,-8.9825,-8.8632,-8.7825,-8.7363,-8.6594,-8.6094,-8.6094,-8.6094,-8.6094,-8.6094,-8.6094,-8.6094,-8.6094,-8.6094,-8.6094,-8.6094,-8.6094,-8.6094,-8.6094,-8.6094,-8.6094,-8.6094,-8.6094,-8.6094,-8.6094,-8.6094,-8.6094,-8.6247,-8.7709,-8.8517,-8.8979,-9.021,-9.1056,-9.121,-9.121,-9.121,-9.121,-9.121,-9.1369,-9.1653,-9.183,-9.2034,-9.2397,-9.2496,-9.2578,-9.2578,-9.2578,-9.2578,-9.2578,-9.2578,-9.2578,-9.2578,-9.2578,-9.2578,-9.2578,-9.2578,-9.2578,-9.2578,-9.2578,-9.2578,-9.2578,-9.2578,-9.2578,-9.2578,-9.2578,-9.2617,-9.2617,-9.2812,-9.3359,-9.375,-9.4101,-9.4375,-9.4375,-9.4101,-9.3672,-8.7031,-8.7031,-8.7031,-8.7031,-8.7031,-8.7031,-8.7031,-8.7031,-8.7031,-8.7031,-8.7031,-8.7031,-8.7031,-8.7031,-8.7031,-8.746,-8.8249,-8.8774,-8.9525,-8.9878,-9.0116,-9.0006,-9.0073,-8.9559,-8.9961,-9.0606,-9.0367,-9.0665,-9.0989,-9.1154,-9.121,-9.121,-9.121,-9.121,-9.121,-9.121,-9.121,-9.121,-9.1133,-9.0787,-9.0094,-8.9133,-8.8286,-8.7632,-8.6594,-8.6132,-8.6094,-8.6094,-8.6094,-8.6094,-8.6094,-8.6094,-8.6094,-8.6094,-8.6094,-8.6094,-8.6094,-8.6094,-8.6094,-8.6094,-8.6094,-8.6094,-8.6094,-8.6094,-8.6094,-8.6094,-8.6094,-8.6094,-8.7594,-8.844,-8.9133,-9.0325,-9.1056,-9.121,-9.121,-9.121,-9.121,-9.121,-9.1264,-9.1461,-9.1721,-9.1958,-9.2203,-9.2422,-9.2578,-9.2578,-9.2578,-9.2578,-9.2578,-9.2578,-9.2578,-9.2578,-9.2578,-9.2578,-9.2578,-9.2578,-9.2578,-9.2578,-9.2578,-9.2578,-9.2578,-9.2578,-9.2578,-9.2578,-9.2578,-9.2617,-9.2617,-9.3008,-9.3672,-9.4179,-9.457,-9.4922,-9.5117,-9.4648,-9.4179,-8.7031,-8.7031,-8.7031,-8.7031,-8.7031,-8.7031,-8.7031,-8.7031,-8.7031,-8.7031,-8.7031,-8.7031,-8.7031,-8.7031,-8.7064,-8.7678,-8.8729,-8.9095,-8.9716,-9.0781,-9.0326,-9.0488,-9.0665,-9.0181,-9.0095,-9.0488,-9.0819,-9.1026,-9.1154,-9.121,-9.121,-9.121,-9.121,-9.121,-9.121,-9.121,-9.121,-9.121,-9.121,-9.1095,-9.0556,-8.9402,-8.8517,-8.8055,-8.6863,-8.617,-8.6094,-8.6094,-8.6094,-8.6094,-8.6094,-8.6094,-8.6094,-8.6094,-8.6094,-8.6094,-8.6094,-8.6094,-8.6094,-8.6094,-8.6094,-8.6094,-8.6094,-8.6094,-8.6094,-8.6094,-8.6094,-8.6247,-8.7094,-8.8248,-8.944,-9.0556,-9.1095,-9.121,-9.121,-9.121,-9.121,-9.121,-9.1297,-9.1514,-9.176,-9.1965,-9.2164,-9.2445,-9.2578,-9.2578,-9.2578,-9.2578,-9.2578,-9.2578,-9.2578,-9.2578,-9.2578,-9.2578,-9.2578,-9.2578,-9.2578,-9.2578,-9.2578,-9.2578,-9.2578,-9.2578,-9.2578,-9.2578,-9.2578,-9.2656,-9.2812,-9.3398,-9.4101,-9.457,-9.5078,-9.5547,-9.5742,-9.5234,-9.4687,-8.7295,-8.6995,-8.7031,-8.7031,-8.7031,-8.7031,-8.7031,-8.7031,-8.7031,-8.7031,-8.7031,-8.7031,-8.7031,-8.7031,-8.7029,-8.7614,-8.8579,-8.9352,-9.0155,-9.0914,-9.0781,-9.0858,-9.1026,-9.0858,-9.0626,-9.0665,-9.0951,-9.1154,-9.121,-9.121,-9.121,-9.121,-9.121,-9.121,-9.121,-9.121,-9.121,-9.121,-9.1171,-9.1056,-9.0402,-8.9402,-8.8094,-8.7594,-8.6594,-8.6094,-8.6094,-8.6094,-8.6094,-8.6094,-8.6094,-8.6094,-8.6094,-8.6094,-8.6094,-8.6094,-8.6094,-8.6094,-8.6094,-8.6094,-8.6094,-8.6094,-8.6094,-8.6094,-8.6094,-8.6094,-8.6094,-8.6286,-8.6978,-8.8055,-8.971,-9.0671,-9.1133,-9.121,-9.1171,-9.1171,-9.1171,-9.1171,-9.1264,-9.1514,-9.176,-9.1958,-9.2203,-9.2445,-9.2539,-9.2578,-9.2578,-9.2578,-9.2578,-9.2578,-9.2578,-9.2578,-9.2578,-9.2578,-9.2578,-9.2578,-9.2578,-9.2578,-9.2578,-9.2578,-9.2578,-9.2578,-9.2578,-9.2578,-9.2617,-9.3008,-9.3242,-9.3906,-9.4648,-9.5429,-9.6015,-9.6406,-9.6445,-9.6054,-9.5469,-8.7794,-8.7031,-8.7031,-8.7031,-8.7031,-8.7031,-8.7031,-8.7031,-8.7031,-8.7031,-8.7031,-8.7031,-8.7031,-8.7031,-8.7031,-8.746,-8.8475,-8.9645,-9.0723,-9.11,-9.1118,-9.1118,-9.1154,-9.1118,-9.11,-9.1192,-9.1192,-9.121,-9.121,-9.121,-9.121,-9.121,-9.121,-9.121,-9.121,-9.121,-9.121,-9.121,-9.1171,-9.0941,-9.0287,-8.9402,-8.8209,-8.6901,-8.6286,-8.6094,-8.6094,-8.6094,-8.6094,-8.6094,-8.6094,-8.6094,-8.6094,-8.6094,-8.6094,-8.6094,-8.6094,-8.6094,-8.6094,-8.6094,-8.6094,-8.6094,-8.6094,-8.6094,-8.6094,-8.6094,-8.6094,-8.6363,-8.694,-8.7979,-8.9517,-9.0364,-9.0825,-9.0941,-9.0979,-9.0979,-9.1018,-9.1018,-9.1043,-9.1514,-9.176,-9.1958,-9.2203,-9.2422,-9.25,-9.2578,-9.2578,-9.2578,-9.2578,-9.2578,-9.2578,-9.2578,-9.2578,-9.2578,-9.2578,-9.2578,-9.2578,-9.2578,-9.2578,-9.2578,-9.2578,-9.2578,-9.2578,-9.2578,-9.2734,-9.3047,-9.3554,-9.4219,-9.5078,-9.6172,-9.6758,-9.6992,-9.6992,-9.6875,-9.6133,-8.8271,-8.7031,-8.7031,-8.7031,-8.7031,-8.7031,-8.7031,-8.7031,-8.7031,-8.7031,-8.7031,-8.7031,-8.7031,-8.7031,-8.6995,-8.7741,-8.9016,-9.0198,-9.0971,-9.1192,-9.121,-9.121,-9.121,-9.121,-9.121,-9.121,-9.121,-9.121,-9.121,-9.121,-9.121,-9.121,-9.121,-9.121,-9.121,-9.121,-9.121,-9.121,-9.121,-9.1018,-9.0748,-8.9979,-8.8786,-8.7209,-8.6555,-8.6209,-8.6094,-8.6094,-8.6094,-8.6094,-8.6094,-8.6094,-8.6094,-8.6094,-8.6094,-8.6094,-8.6094,-8.6094,-8.6094,-8.6094,-8.6094,-8.6094,-8.6094,-8.6094,-8.6094,-8.6094,-8.6094,-8.6324,-8.6901,-8.7863,-8.8786,-8.9671,-9.0056,-9.0133,-9.0133,-9.0171,-9.0171,-9.0265,-9.0658,-9.1425,-9.1752,-9.2019,-9.2268,-9.2422,-9.2539,-9.2578,-9.2578,-9.2578,-9.2578,-9.2578,-9.2578,-9.2578,-9.2578,-9.2578,-9.2578,-9.2578,-9.2578,-9.2578,-9.2578,-9.2578,-9.2578,-9.2578,-9.2578,-9.2578,-9.2617,-9.2812,-9.3476,-9.4336,-9.4922,-9.5547,-9.6484,-9.7422,-9.7265,-9.6953,-9.625,-8.835,-8.7066,-8.7031,-8.7031,-8.7031,-8.7031,-8.7031,-8.7031,-8.7031,-8.7031,-8.7031,-8.7031,-8.7031,-8.7098,-8.746,-8.833,-8.9573,-9.022,-9.0858,-9.1082,-9.121,-9.121,-9.121,-9.121,-9.121,-9.121,-9.121,-9.121,-9.121,-9.121,-9.121,-9.121,-9.121,-9.121,-9.121,-9.121,-9.121,-9.121,-9.121,-9.121,-9.1133,-9.0325,-8.9017,-8.7709,-8.6978,-8.6594,-8.6132,-8.6094,-8.6094,-8.6094,-8.6094,-8.6094,-8.6094,-8.6094,-8.6094,-8.6094,-8.6094,-8.6094,-8.6094,-8.6094,-8.6094,-8.6094,-8.6094,-8.6094,-8.6094,-8.6094,-8.6094,-8.6286,-8.6901,-8.7748,-8.8632,-8.9056,-8.944,-8.9748,-8.9556,-8.9517,-8.9748,-8.9863,-9.0527,-9.1369,-9.1763,-9.2068,-9.2393,-9.25,-9.2578,-9.2578,-9.2578,-9.2578,-9.2578,-9.2578,-9.2578,-9.2578,-9.2578,-9.2578,-9.2578,-9.2578,-9.2578,-9.2578,-9.2578,-9.2578,-9.2578,-9.2578,-9.2578,-9.2578,-9.2656,-9.2695,-9.332,-9.414,-9.457,-9.5039,-9.6133,-9.6992,-9.7148,-9.6953,-9.6328,-8.8302,-8.7031,-8.7031,-8.7031,-8.7031,-8.7031,-8.7031,-8.7031,-8.7031,-8.7031,-8.7031,-8.7031,-8.7098,-8.7423,-8.819,-8.9148,-9.0116,-9.0262,-9.0743,-9.11,-9.121,-9.121,-9.121,-9.121,-9.121,-9.121,-9.121,-9.121,-9.121,-9.121,-9.121,-9.121,-9.121,-9.121,-9.121,-9.121,-9.121,-9.121,-9.121,-9.121,-9.0979,-9.0171,-8.9094,-8.7671,-8.7325,-8.6709,-8.617,-8.6094,-8.6094,-8.6094,-8.6094,-8.6094,-8.6094,-8.6094,-8.6094,-8.6094,-8.6094,-8.6094,-8.6094,-8.6094,-8.6094,-8.6094,-8.6094,-8.6094,-8.6094,-8.6094,-8.6094,-8.6247,-8.6632,-8.7594,-8.8402,-8.8517,-8.8863,-8.921,-8.894,-8.8649,-8.9107,-8.9507,-9.0209,-9.0968,-9.1624,-9.2117,-9.2448,-9.2539,-9.2578,-9.2578,-9.2578,-9.2578,-9.2578,-9.2578,-9.2578,-9.2578,-9.2578,-9.2578,-9.2578,-9.2578,-9.2578,-9.2578,-9.2578,-9.2578,-9.2578,-9.2578,-9.2578,-9.2578,-9.2617,-9.2734,-9.3359,-9.3945,-9.4453,-9.5117,-9.6015,-9.6719,-9.7187,-9.7226,-9.6797,-8.8403,-8.7031,-8.7031,-8.7031,-8.7031,-8.7031,-8.7031,-8.7031,-8.7031,-8.7031,-8.7031,-8.7029,-8.7361,-8.81,-8.9238,-8.9878,-9.0284,-9.0685,-9.1008,-9.1192,-9.121,-9.121,-9.121,-9.121,-9.121,-9.121,-9.121,-9.121,-9.121,-9.121,-9.121,-9.121,-9.121,-9.121,-9.121,-9.121,-9.121,-9.121,-9.121,-9.121,-9.0941,-8.9748,-8.894,-8.8209,-8.7248,-8.6324,-8.617,-8.6094,-8.6094,-8.6094,-8.6094,-8.6094,-8.6094,-8.6094,-8.6094,-8.6094,-8.6094,-8.6094,-8.6094,-8.6094,-8.6094,-8.6094,-8.6094,-8.6094,-8.6094,-8.6094,-8.6094,-8.6094,-8.6286,-8.7094,-8.8171,-8.794,-8.8132,-8.8209,-8.8171,-8.7786,-8.7974,-8.9051,-8.9784,-9.0781,-9.1537,-9.2091,-9.2539,-9.2578,-9.2578,-9.2578,-9.2578,-9.2578,-9.2578,-9.2578,-9.2578,-9.2578,-9.2578,-9.2578,-9.2578,-9.2578,-9.2578,-9.2578,-9.2578,-9.2578,-9.2578,-9.2578,-9.2578,-9.2578,-9.2578,-9.2578,-9.2929,-9.3515,-9.4258,-9.4844,-9.5312,-9.6367,-9.75,-9.7344,-9.6953,-8.7626,-8.7031,-8.7031,-8.7031,-8.7031,-8.7031,-8.7031,-8.7031,-8.7031,-8.7031,-8.7031,-8.7031,-8.7581,-8.8719,-8.9716,-9.0326,-9.0723,-9.1082,-9.121,-9.121,-9.121,-9.121,-9.121,-9.121,-9.121,-9.121,-9.121,-9.121,-9.121,-9.121,-9.121,-9.121,-9.121,-9.121,-9.121,-9.121,-9.121,-9.121,-9.121,-9.121,-9.0902,-9.0056,-8.9133,-8.8632,-8.7401,-8.6632,-8.6209,-8.6094,-8.6094,-8.6094,-8.6094,-8.6094,-8.6094,-8.6094,-8.6094,-8.6094,-8.6094,-8.6094,-8.6094,-8.6094,-8.6094,-8.6094,-8.6094,-8.6094,-8.6094,-8.6094,-8.6094,-8.6094,-8.6094,-8.694,-8.794,-8.7401,-8.7748,-8.7825,-8.7478,-8.7363,-8.7435,-8.8319,-8.9325,-9.0369,-9.141,-9.2003,-9.25,-9.2578,-9.2578,-9.2578,-9.2578,-9.2578,-9.2578,-9.2578,-9.2578,-9.2578,-9.2578,-9.2578,-9.2578,-9.2578,-9.2578,-9.2578,-9.2578,-9.2578,-9.2578,-9.2578,-9.2578,-9.2578,-9.2578,-9.2578,-9.2578,-9.2695,-9.3086,-9.375,-9.4414,-9.5664,-9.6875,-9.6914,-9.6328,-8.7031,-8.7031,-8.7031,-8.7031,-8.7031,-8.7031,-8.7031,-8.7031,-8.7031,-8.7031,-8.7132,-8.739,-8.8271,-8.9301,-9.0073,-9.0723,-9.1136,-9.121,-9.121,-9.121,-9.121,-9.121,-9.121,-9.121,-9.121,-9.121,-9.121,-9.121,-9.121,-9.121,-9.121,-9.121,-9.121,-9.121,-9.121,-9.121,-9.121,-9.121,-9.121,-9.1056,-9.071,-8.9979,-8.9133,-8.8363,-8.7517,-8.6786,-8.6209,-8.6094,-8.6094,-8.6094,-8.6094,-8.6094,-8.6094,-8.6094,-8.6094,-8.6094,-8.6094,-8.6094,-8.6094,-8.6094,-8.6094,-8.6094,-8.6094,-8.6094,-8.6094,-8.6094,-8.6094,-8.6094,-8.644,-8.7171,-8.7709,-8.7132,-8.7363,-8.7401,-8.7055,-8.6978,-8.7127,-8.8174,-8.9033,-8.9965,-9.1009,-9.2069,-9.2422,-9.2539,-9.2578,-9.2578,-9.2578,-9.2578,-9.2578,-9.2578,-9.2578,-9.2578,-9.2578,-9.2578,-9.2578,-9.2578,-9.2578,-9.2578,-9.2578,-9.2578,-9.2578,-9.2578,-9.2578,-9.2578,-9.2578,-9.2304,-9.2148,-9.1953,-9.1914,-9.3242,-9.4453,-9.5234,-9.5976,-9.6094,-9.5742,-8.7031,-8.7031,-8.7031,-8.7031,-8.7031,-8.7031,-8.7031,-8.7031,-8.7031,-8.7029,-8.7261,-8.8271,-8.9161,-9.0028,-9.0606,-9.1044,-9.121,-9.121,-9.121,-9.121,-9.121,-9.121,-9.121,-9.121,-9.121,-9.121,-9.121,-9.121,-9.1133,-9.1018,-9.1095,-9.121,-9.121,-9.121,-9.121,-9.121,-9.121,-9.1171,-9.1095,-9.0671,-9.0056,-8.9248,-8.8402,-8.7594,-8.6748,-8.6132,-8.6094,-8.6094,-8.6094,-8.6094,-8.6094,-8.6094,-8.6094,-8.6094,-8.6094,-8.6094,-8.6094,-8.6094,-8.6094,-8.6094,-8.6094,-8.6094,-8.6094,-8.6094,-8.6094,-8.6094,-8.6094,-8.617,-8.6632,-8.7171,-8.7478,-8.7401,-8.7363,-8.7209,-8.6901,-8.6517,-8.6961,-8.8165,-8.9036,-8.9691,-9.071,-9.1904,-9.2422,-9.2578,-9.2578,-9.2578,-9.2578,-9.2578,-9.2578,-9.2578,-9.2578,-9.2578,-9.2578,-9.2578,-9.2578,-9.2578,-9.2578,-9.2578,-9.2578,-9.2578,-9.2578,-9.2578,-9.2578,-9.25,-9.2422,-9.207,-9.1758,-9.1797,-9.2226,-9.3476,-9.4414,-9.4726,-9.5,-9.5156,-9.4804,-8.7031,-8.7031,-8.7031,-8.7031,-8.7031,-8.7031,-8.7031,-8.7031,-8.7031,-8.7298,-8.7741,-8.8663,-8.9462,-9.016,-9.0839,-9.121,-9.121,-9.121,-9.1154,-9.121,-9.121,-9.121,-9.121,-9.1136,-9.121,-9.121,-9.121,-9.121,-9.1171,-9.071,-9.0864,-9.1018,-9.1133,-9.121,-9.121,-9.121,-9.121,-9.1018,-9.071,-9.0171,-8.9787,-8.8594,-8.7748,-8.7401,-8.6555,-8.617,-8.6094,-8.6094,-8.6094,-8.6094,-8.6094,-8.6094,-8.6094,-8.6094,-8.6094,-8.6094,-8.6094,-8.6094,-8.6094,-8.6094,-8.6094,-8.6094,-8.6094,-8.6094,-8.6094,-8.6094,-8.6094,-8.6363,-8.6863,-8.7363,-8.7363,-8.7401,-8.7363,-8.7171,-8.6786,-8.6286,-8.6676,-8.7865,-8.888,-8.9535,-9.0733,-9.2006,-9.2344,-9.2578,-9.2578,-9.2578,-9.2578,-9.2578,-9.2578,-9.2578,-9.2578,-9.2578,-9.2578,-9.2578,-9.2578,-9.2578,-9.2578,-9.2578,-9.2578,-9.2578,-9.2578,-9.2578,-9.2578,-9.2461,-9.2344,-9.207,-9.1914,-9.1836,-9.2226,-9.289,-9.3359,-9.3711,-9.3945,-9.4297,-9.3906,-8.7031,-8.7031,-8.7031,-8.7031,-8.7031,-8.7031,-8.7031,-8.7031,-8.7031,-8.7586,-8.8417,-8.9084,-8.9786,-9.0447,-9.0895,-9.121,-9.121,-9.1154,-9.1008,-9.0895,-9.08,-9.0876,-9.0876,-9.0876,-9.0895,-9.1062,-9.0902,-9.0825,-9.1133,-9.0094,-9.0364,-9.0825,-9.0979,-9.0902,-9.121,-9.121,-9.121,-9.0979,-9.0402,-8.9748,-8.9402,-8.8248,-8.7171,-8.7017,-8.6363,-8.6132,-8.6094,-8.6094,-8.6094,-8.6094,-8.6094,-8.6094,-8.6094,-8.6094,-8.6094,-8.6094,-8.6094,-8.6094,-8.6094,-8.6094,-8.6094,-8.6094,-8.6094,-8.6094,-8.6094,-8.6094,-8.6094,-8.6209,-8.6863,-8.7325,-8.7209,-8.7132,-8.7055,-8.6863,-8.6517,-8.6132,-8.6478,-8.7356,-8.8403,-8.9361,-9.0618,-9.1679,-9.2383,-9.2578,-9.2578,-9.2578,-9.2578,-9.2578,-9.2578,-9.2578,-9.2578,-9.2578,-9.2578,-9.2578,-9.2578,-9.2578,-9.2578,-9.2578,-9.2578,-9.2578,-9.2578,-9.2578,-9.2578,-9.2539,-9.2383,-9.2148,-9.2109,-9.2148,-9.1992,-9.1914,-9.2539,-9.332,-9.3711,-9.4023,-9.3437,-8.7031,-8.7031,-8.7031,-8.7031,-8.7031,-8.7031,-8.7031,-8.7031,-8.7098,-8.7799,-8.899,-8.9716,-9.0367,-9.0971,-9.1154,-9.1192,-9.121,-9.1192,-9.0895,-9.0426,-9.0508,-9.0305,-9.0284,-9.0406,-9.08,-9.087,-9.0594,-9.0517,-9.1056,-8.9633,-8.9863,-9.0556,-9.0633,-9.0594,-9.1133,-9.121,-9.121,-9.1056,-9.0248,-8.9479,-8.8632,-8.7709,-8.6901,-8.644,-8.6209,-8.6094,-8.5863,-8.5863,-8.5863,-8.5863,-8.5863,-8.594,-8.6094,-8.6094,-8.6094,-8.6094,-8.6094,-8.6094,-8.6094,-8.6094,-8.6094,-8.6094,-8.6094,-8.6094,-8.6094,-8.6094,-8.6094,-8.617,-8.6863,-8.6901,-8.6824,-8.6824,-8.6786,-8.6517,-8.6209,-8.617,-8.6478,-8.6995,-8.8093,-8.9246,-9.015,-9.1094,-9.1992,-9.2578,-9.2578,-9.2578,-9.2578,-9.2578,-9.2578,-9.2578,-9.2578,-9.2578,-9.2578,-9.2578,-9.2578,-9.2578,-9.2578,-9.2578,-9.2578,-9.2578,-9.2578,-9.2578,-9.2578,-9.2578,-9.2344,-9.1992,-9.2265,-9.2539,-9.2109,-9.1797,-9.25,-9.3203,-9.3594,-9.3594,-9.2929,-8.7031,-8.7031,-8.7031,-8.7031,-8.7031,-8.7031,-8.7031,-8.7098,-8.7521,-8.8279,-8.9084,-8.9809,-9.0508,-9.1008,-9.1136,-9.1118,-9.1118,-9.1192,-9.0781,-9.016,-9.0426,-9.0447,-9.0346,-9.0467,-9.0895,-9.0888,-9.0441,-8.994,-9.0287,-8.9017,-8.9286,-9.0017,-9.0402,-9.0941,-9.1133,-9.1133,-9.1018,-9.0325,-8.9517,-8.8709,-8.7863,-8.7055,-8.6401,-8.6055,-8.6017,-8.5786,-8.5324,-8.5286,-8.5286,-8.5324,-8.5324,-8.5593,-8.594,-8.6055,-8.6094,-8.6094,-8.6094,-8.6094,-8.6094,-8.6094,-8.6094,-8.6094,-8.6094,-8.6094,-8.6094,-8.6094,-8.6094,-8.6247,-8.6824,-8.6748,-8.6478,-8.6978,-8.6978,-8.6401,-8.6094,-8.6094,-8.6363,-8.7033,-8.791,-8.9115,-9.0127,-9.1203,-9.2187,-9.2539,-9.2578,-9.2578,-9.2578,-9.2578,-9.2578,-9.2578,-9.2578,-9.2578,-9.2578,-9.2578,-9.2578,-9.2578,-9.2578,-9.2578,-9.2578,-9.2578,-9.2578,-9.2578,-9.2578,-9.2578,-9.2226,-9.1875,-9.2148,-9.2304,-9.1875,-9.1836,-9.2031,-9.2265,-9.2422,-9.2461,-9.2187,-8.7031,-8.7031,-8.7031,-8.7129,-8.7361,-8.7394,-8.7489,-8.783,-8.8503,-8.9069,-8.9487,-8.9923,-9.0326,-9.0723,-9.08,-9.0586,-9.0546,-9.0723,-9.0155,-8.9645,-9.0133,-8.9984,-9.0028,-9.0488,-9.0839,-9.0775,-9.021,-8.9671,-9.0325,-8.8594,-8.8325,-8.8979,-8.9902,-9.0017,-9.0248,-9.0325,-9.0479,-8.9748,-8.8979,-8.8017,-8.7325,-8.6671,-8.5978,-8.5747,-8.5517,-8.5286,-8.4709,-8.4478,-8.4478,-8.4516,-8.4747,-8.5093,-8.5593,-8.594,-8.6017,-8.6094,-8.6094,-8.6094,-8.6094,-8.6094,-8.6094,-8.6094,-8.6094,-8.6094,-8.6094,-8.6094,-8.6094,-8.6286,-8.6748,-8.6555,-8.6363,-8.6901,-8.6709,-8.6094,-8.6094,-8.6094,-8.6357,-8.7006,-8.8011,-8.9177,-9.034,-9.1421,-9.2265,-9.2422,-9.2578,-9.2578,-9.2578,-9.2578,-9.2578,-9.2578,-9.2578,-9.2578,-9.2578,-9.2578,-9.2578,-9.2578,-9.2578,-9.2578,-9.2578,-9.2578,-9.2578,-9.2578,-9.2578,-9.2578,-9.2383,-9.2187,-9.2109,-9.1992,-9.1289,-9.082,-9.0703,-9.0937,-9.1172,-9.1484,-9.1719,-8.7031,-8.7031,-8.7031,-8.7427,-8.8015,-8.813,-8.8532,-8.9122,-8.9763,-9.0051,-9.0057,-9.0035,-9.0181,-9.0138,-9.0116,-8.9809,-8.95,-8.9878,-8.9402,-8.891,-8.9402,-8.9327,-8.9621,-9.0073,-9.0743,-9.0506,-8.9902,-8.9479,-9.0517,-8.8325,-8.7248,-8.7748,-8.8786,-8.9056,-8.9286,-8.921,-8.9363,-8.8709,-8.8286,-8.7401,-8.6748,-8.6286,-8.5632,-8.5247,-8.4901,-8.4401,-8.3862,-8.3555,-8.3555,-8.3785,-8.4209,-8.467,-8.5132,-8.5632,-8.5901,-8.6094,-8.6094,-8.6094,-8.6094,-8.6094,-8.6094,-8.6094,-8.6094,-8.6094,-8.6094,-8.6094,-8.6094,-8.6094,-8.6324,-8.6247,-8.6209,-8.6247,-8.6247,-8.6094,-8.6094,-8.6242,-8.6445,-8.7176,-8.8231,-8.9376,-9.0563,-9.1601,-9.2304,-9.2578,-9.2578,-9.2578,-9.2578,-9.2578,-9.2578,-9.2578,-9.2578,-9.2578,-9.2578,-9.2578,-9.2578,-9.2578,-9.2578,-9.2578,-9.2578,-9.2578,-9.2578,-9.2578,-9.2578,-9.2578,-9.2578,-9.25,-9.2383,-9.1523,-9.039,-9.0039,-8.9844,-9.0078,-9.0547,-9.1484,-9.1875,-8.7031,-8.7031,-8.7031,-8.7427,-8.819,-8.9148,-8.9364,-8.9225,-8.9809,-9.0078,-9.0078,-9.0078,-9.0013,-9.0057,-8.9621,-8.9301,-8.9225,-8.925,-8.9199,-8.9122,-8.9263,-8.9607,-9.0051,-9.0447,-9.0971,-9.0542,-8.9825,-8.9017,-8.9094,-8.744,-8.7401,-8.8325,-8.8286,-8.8479,-8.8209,-8.7709,-8.7478,-8.7286,-8.7094,-8.6555,-8.594,-8.5401,-8.4939,-8.4709,-8.417,-8.3555,-8.2901,-8.2708,-8.267,-8.2824,-8.2939,-8.3439,-8.4939,-8.517,-8.5363,-8.6055,-8.6094,-8.6094,-8.6094,-8.6094,-8.6094,-8.6094,-8.6094,-8.6094,-8.6094,-8.6094,-8.6094,-8.6094,-8.6094,-8.6094,-8.6094,-8.6094,-8.6094,-8.6094,-8.617,-8.6341,-8.6685,-8.7511,-8.8628,-9.0163,-9.1336,-9.1836,-9.2539,-9.2578,-9.2578,-9.2578,-9.2578,-9.2578,-9.2578,-9.2578,-9.2578,-9.2578,-9.2578,-9.2578,-9.2578,-9.2578,-9.2578,-9.2578,-9.2578,-9.2578,-9.2578,-9.2578,-9.2578,-9.2578,-9.2578,-9.2578,-9.2578,-9.1445,-9.0078,-8.9492,-8.9297,-8.957,-8.9961,-9.0898,-9.1875,-8.7031,-8.7029,-8.7295,-8.7978,-8.899,-9.0051,-9.0262,-9.0028,-9.0346,-9.0508,-9.0467,-8.9923,-8.9716,-8.9559,-8.9016,-8.856,-8.8212,-8.8523,-8.8608,-8.8774,-8.9451,-8.9763,-9.0203,-9.08,-9.11,-9.0594,-8.9787,-8.894,-8.8632,-8.794,-8.7671,-8.744,-8.7671,-8.7709,-8.7286,-8.644,-8.5555,-8.5478,-8.5363,-8.517,-8.4786,-8.4362,-8.4209,-8.3901,-8.3324,-8.267,-8.1977,-8.1862,-8.1862,-8.1939,-8.2016,-8.2708,-8.4055,-8.4401,-8.5286,-8.5901,-8.6094,-8.6094,-8.6094,-8.6094,-8.6094,-8.6094,-8.6094,-8.6094,-8.6094,-8.6094,-8.6094,-8.6094,-8.6094,-8.6094,-8.6094,-8.6094,-8.6094,-8.6094,-8.6286,-8.6478,-8.7185,-8.7978,-8.94,-9.1036,-9.1914,-9.2344,-9.2578,-9.2578,-9.2578,-9.2578,-9.2578,-9.2578,-9.2578,-9.2578,-9.2578,-9.2578,-9.2578,-9.2578,-9.2578,-9.2578,-9.2578,-9.2578,-9.2578,-9.2578,-9.2578,-9.2578,-9.2578,-9.2578,-9.2578,-9.2578,-9.2578,-9.1172,-8.9922,-8.9492,-8.914,-8.914,-8.9531,-9.0195,-9.1211,-8.7098,-8.7197,-8.7923,-8.8963,-9.0116,-9.08,-9.1118,-9.121,-9.1118,-9.1154,-9.0876,-8.9731,-8.9199,-8.9122,-8.8417,-8.7741,-8.7581,-8.7767,-8.8279,-8.819,-8.8937,-8.9573,-9.0346,-9.0819,-9.1136,-9.0633,-8.971,-8.8671,-8.8786,-8.794,-8.6748,-8.6132,-8.6286,-8.6478,-8.6363,-8.5363,-8.4555,-8.4209,-8.3824,-8.3478,-8.3593,-8.3401,-8.3131,-8.2554,-8.2208,-8.19,-8.1362,-8.1131,-8.1093,-8.1362,-8.167,-8.217,-8.3131,-8.4055,-8.517,-8.5824,-8.6055,-8.6094,-8.6094,-8.6094,-8.6094,-8.6094,-8.6094,-8.6094,-8.6094,-8.6094,-8.6094,-8.6094,-8.6094,-8.6094,-8.6094,-8.6094,-8.6094,-8.6094,-8.6209,-8.6786,-8.7703,-8.8829,-9.0431,-9.1758,-9.2226,-9.2578,-9.2578,-9.2578,-9.2578,-9.2578,-9.2578,-9.2578,-9.2578,-9.2578,-9.2578,-9.2578,-9.2578,-9.2578,-9.2578,-9.2578,-9.2578,-9.2578,-9.2578,-9.2578,-9.2578,-9.2578,-9.2578,-9.2578,-9.2578,-9.2578,-9.2304,-9.1172,-9.039,-9.0078,-8.9648,-8.8984,-8.9179,-8.9726,-9.0351,-8.7836,-8.7954,-8.9148,-8.9832,-9.016,-9.0876,-9.121,-9.121,-9.121,-9.1154,-9.0895,-8.9824,-8.9122,-8.8963,-8.7954,-8.7265,-8.7163,-8.7554,-8.7985,-8.856,-8.9122,-8.9847,-9.0665,-9.1026,-9.121,-9.0633,-8.9633,-8.8209,-8.7517,-8.6824,-8.6363,-8.6132,-8.6094,-8.6094,-8.5978,-8.4901,-8.3862,-8.3555,-8.2516,-8.2324,-8.2593,-8.2593,-8.2439,-8.2093,-8.1823,-8.1439,-8.1093,-8.1093,-8.1093,-8.1208,-8.1246,-8.2054,-8.3247,-8.4324,-8.5247,-8.594,-8.6094,-8.6094,-8.6094,-8.6094,-8.6055,-8.6055,-8.6055,-8.6094,-8.6094,-8.6094,-8.6094,-8.6094,-8.6094,-8.6094,-8.6094,-8.6094,-8.6094,-8.6094,-8.6149,-8.7149,-8.8166,-8.9841,-9.1463,-9.207,-9.25,-9.2578,-9.2578,-9.2578,-9.2578,-9.2578,-9.2578,-9.2578,-9.2578,-9.2578,-9.2578,-9.2578,-9.2578,-9.2578,-9.2578,-9.2578,-9.2578,-9.2578,-9.2578,-9.2578,-9.2578,-9.2578,-9.2578,-9.2578,-9.2578,-9.2578,-9.2383,-9.1719,-9.1054,-9.0664,-8.9765,-8.8945,-8.8906,-8.9375,-8.9765,-8.856,-8.8701,-8.9669,-9.0305,-9.0626,-9.1026,-9.121,-9.1136,-9.0858,-9.0685,-9.0586,-8.9645,-8.9122,-8.9016,-8.7954,-8.7265,-8.7298,-8.7736,-8.8359,-8.8952,-8.9525,-9.0241,-9.082,-9.1154,-9.121,-9.0748,-8.944,-8.8017,-8.6671,-8.6209,-8.6132,-8.6094,-8.6094,-8.6055,-8.5863,-8.4555,-8.3593,-8.3516,-8.1939,-8.1516,-8.1823,-8.1785,-8.1785,-8.1554,-8.14,-8.1093,-8.1093,-8.1093,-8.1093,-8.1093,-8.1131,-8.2054,-8.3131,-8.3978,-8.4901,-8.5709,-8.6094,-8.6094,-8.6094,-8.6055,-8.594,-8.5786,-8.6055,-8.6055,-8.5632,-8.5632,-8.6055,-8.6094,-8.6094,-8.6094,-8.6094,-8.6094,-8.6094,-8.6094,-8.6329,-8.6971,-8.858,-9.0441,-9.1601,-9.2344,-9.2578,-9.2578,-9.2578,-9.2578,-9.2578,-9.2578,-9.2578,-9.2578,-9.2578,-9.2578,-9.2578,-9.2578,-9.2578,-9.2578,-9.2578,-9.2578,-9.2578,-9.2578,-9.2578,-9.2578,-9.2578,-9.2578,-9.2578,-9.2578,-9.2578,-9.2578,-9.2304,-9.1875,-9.1484,-9.1054,-9.0,-8.8828,-8.8906,-8.8906,-8.8906,-8.9263,-8.9451,-8.999,-9.0606,-9.1136,-9.121,-9.121,-9.1082,-9.0447,-9.0138,-9.0073,-8.9413,-8.9148,-8.8883,-8.8532,-8.7892,-8.7773,-8.8388,-8.8926,-8.9364,-8.9809,-9.0284,-9.0704,-9.1118,-9.0923,-9.0248,-8.9017,-8.7979,-8.6901,-8.644,-8.6094,-8.6094,-8.6094,-8.6094,-8.5593,-8.4632,-8.3593,-8.317,-8.217,-8.1246,-8.1131,-8.1093,-8.117,-8.1131,-8.1093,-8.1093,-8.1093,-8.1093,-8.1093,-8.1208,-8.1323,-8.2285,-8.317,-8.3978,-8.4863,-8.5709,-8.6094,-8.6094,-8.6094,-8.6094,-8.5632,-8.5363,-8.5786,-8.5786,-8.5363,-8.5517,-8.594,-8.6094,-8.6094,-8.6094,-8.6094,-8.6094,-8.6094,-8.622,-8.6524,-8.7027,-8.8972,-9.0811,-9.164,-9.2422,-9.2578,-9.2578,-9.2578,-9.2578,-9.2578,-9.2578,-9.2578,-9.2578,-9.2578,-9.2578,-9.2578,-9.2578,-9.2578,-9.2578,-9.2578,-9.2578,-9.2578,-9.2578,-9.2578,-9.2578,-9.2578,-9.2578,-9.2578,-9.2578,-9.2578,-9.2578,-9.2461,-9.2109,-9.1758,-9.1367,-9.0312,-8.9179,-8.8633,-8.8476,-8.789,-9.0262,-9.082,-9.0914,-9.11,-9.1192,-9.121,-9.121,-9.1044,-9.0409,-9.0078,-8.9901,-8.9451,-8.9122,-8.9084,-8.9016,-8.8663,-8.8523,-8.9148,-8.9511,-8.9923,-9.0138,-9.0262,-9.0447,-9.0781,-9.0234,-8.944,-8.844,-8.7325,-8.6863,-8.6401,-8.6094,-8.6094,-8.6094,-8.6017,-8.5824,-8.4709,-8.3516,-8.3093,-8.217,-8.1093,-8.1093,-8.1093,-8.1093,-8.1093,-8.1093,-8.1093,-8.1093,-8.1093,-8.1093,-8.1285,-8.1708,-8.2554,-8.3362,-8.417,-8.5093,-8.5709,-8.6094,-8.6094,-8.6094,-8.5978,-8.5478,-8.5093,-8.5478,-8.5632,-8.544,-8.5632,-8.594,-8.6094,-8.6094,-8.6094,-8.6094,-8.6094,-8.6094,-8.6415,-8.6716,-8.7783,-8.9255,-9.0489,-9.1484,-9.2148,-9.2578,-9.2578,-9.2578,-9.2578,-9.2578,-9.2578,-9.2578,-9.2578,-9.2578,-9.2578,-9.2578,-9.2578,-9.2578,-9.2578,-9.2578,-9.2578,-9.2578,-9.2578,-9.2578,-9.2578,-9.2578,-9.2578,-9.2578,-9.2578,-9.2578,-9.2578,-9.2422,-9.2187,-9.1836,-9.1367,-9.0547,-8.9648,-8.8906,-8.8203,-8.7695]},{"header":{"parameterUnit":"m.s-1","parameterCategory":1,"la1":31.0,"la2":29.5877,"lo1":-88.7671,"lo2":-86.6584,"dx":0.0162,"dy":0.0185,"nx":115,"ny":88,"refTime":"2022-11-29T18:00:00:Z","depth":0,"parameterNumber":3,"parameterNumberName":"V-component_of_WINDS"},"data":[0.0,0.0,0.0,0.0,0.0,0.0,0.0,0.0,0.0,0.0,0.0,0.0,0.0,0.0,0.0,0.0,0.0,0.0,0.0,0.0,0.0,0.0,0.0,0.0,0.0,0.0,0.0,0.0,0.0,0.0,0.0,0.0,0.0,0.0,0.0,0.0,0.0,0.0,0.0,0.0,0.0,0.0,0.0,0.0,0.0,0.0,0.0,0.0,0.0,0.0,0.0,0.0,0.0,0.0,0.0,0.0,0.0,0.0,0.0,0.0,0.0,0.0,0.0,0.0,0.0,0.0,0.0,0.0,0.0,0.0,0.0,0.0,0.0,0.0,0.0,0.0,0.0,0.0,0.0,0.0,0.0,0.0,0.0,0.0,0.0,0.0,0.0,0.0,0.0,0.0,0.0,0.0,0.0,0.0,0.0,0.0,0.0,0.0,0.0,0.0,0.0,0.0,0.0,0.0,0.0,0.0,0.0,0.0,0.0,0.0,0.0,0.0,0.0,0.0,0.0,0.0,0.0,0.0,0.0,0.0,0.0,0.0,0.0,0.0,0.0,0.0,0.0,0.0,0.0,0.0,0.0,0.0,0.0,0.0,0.0,0.0,0.0,0.0,0.0,0.0,0.0,0.0,0.0,0.0,0.0,0.0,0.0,0.0,0.0,0.0,0.0,0.0,0.0,0.0,0.0,0.0,0.0,0.0,0.0,0.0,0.0,0.0,0.0,0.0,0.0,0.0,0.0,0.0,0.0,0.0,0.0,0.0,0.0,0.0,0.0,0.0,0.0,0.0,0.0,0.0,0.0,0.0,0.0,0.0,0.0,0.0,0.0,0.0,0.0,0.0,0.0,0.0,0.0,0.0,0.0,0.0,0.0,0.0,0.0,0.0,0.0,0.0,0.0,0.0,0.0,0.0,0.0,0.0,0.0,0.0,0.0,0.0,0.0,0.0,0.0,0.0,0.0,0.0,0.0,0.0,0.0,0.0,0.0,0.0,0.0,0.0,0.0,0.0,0.0,0.0,0.0,0.0,0.0,0.0,0.0,0.0,0.0,0.0,0.0,0.0,0.0,0.0,0.0,0.0,0.0,0.0,0.0,0.0,0.0,0.0,0.0,0.0,0.0,0.0,0.0,0.0,0.0,0.0,0.0,0.0,0.0,0.0,0.0,0.0,0.0,0.0,0.0,0.0,0.0,0.0,0.0,0.0,0.0,0.0,0.0,0.0,0.0,0.0,0.0,0.0,0.0,0.0,0.0,0.0,0.0,0.0,0.0,0.0,0.0,0.0,0.0,0.0,0.0,0.0,0.0,0.0,0.0,0.0,0.0,0.0,0.0,0.0,0.0,0.0,0.0,0.0,0.0,0.0,0.0,0.0,0.0,0.0,0.0,0.0,0.0,0.0,0.0,0.0,0.0,0.0,0.0,0.0,0.0,0.0,0.0,0.0,0.0,0.0,0.0,0.0,0.0,0.0,0.0,0.0,0.0,0.0,0.0,0.0,0.0,0.0,0.0,0.0,0.0,0.0,0.0,0.0,0.0,0.0,0.0,0.0,0.0,0.0,0.0,0.0,0.0,0.0,0.0,0.0,0.0,0.0,0.0,0.0,0.0,0.0,0.0,0.0,0.0,0.0,0.0,0.0,0.0,0.0,0.0,0.0,0.0,0.0,0.0,0.0,0.0,0.0,0.0,0.0,0.0,0.0,0.0,0.0,0.0,0.0,0.0,0.0,0.0,0.0,0.0,0.0,0.0,0.0,0.0,0.0,0.0,0.0,0.0,0.0,0.0,0.0,0.0,0.0,0.0,0.0,0.0,0.0,0.0,0.0,0.0,0.0,0.0,0.0,0.0,0.0,0.0,0.0,0.0,0.0,0.0,0.0,0.0,0.0,0.0,0.0,0.0,0.0,0.0,0.0,0.0,0.0,0.0,0.0,0.0,0.0,0.0,0.0,0.0,0.0,0.0,0.0,0.0,0.0,0.0,0.0,0.0,0.0,0.0,0.0,0.0,0.0,0.0,0.0,0.0,0.0,0.0,0.0,0.0,0.0,0.0,0.0,0.0,0.0,0.0,0.0,0.0,0.0,0.0,0.0,0.0,0.0,0.0,0.0,0.0,0.0,0.0,0.0,0.0,0.0,0.0,0.0,0.0,0.0,0.0,0.0,0.0,0.0,0.0,0.0,0.0,0.0,0.0,0.0,0.0,0.0,0.0,0.0,0.0,0.0,0.0,0.0,0.0,0.0,0.0,0.0,0.0,0.0,0.0,0.0,0.0,0.0,0.0,0.0,0.0,0.0,0.0,0.0,0.0,0.0,0.0,0.0,0.0,0.0,0.0,0.0,0.0,0.0,0.0,0.0,0.0,0.0,0.0,0.0,0.0,0.0,0.0,0.0,0.0,0.0,0.0,0.0,0.0,0.0,0.0,0.0,0.0,0.0,0.0,0.0,0.0,0.0,0.0,0.0,0.0,0.0,0.0,0.0,0.0,0.0,0.0,0.0,0.0,0.0,0.0,0.0,0.0,0.0,0.0,0.0,0.0,0.0,0.0,0.0,0.0,0.0,0.0,0.0,0.0,0.0,0.0,0.0,0.0,0.0,0.0,0.0,0.0,0.0,0.0,0.0,0.0,0.0,0.0,0.0,0.0,0.0,0.0,0.0,0.0,0.0,0.0,0.0,0.0,0.0,0.0,0.0,0.0,0.0,0.0,0.0,0.0,0.0,0.0,0.0,0.0,0.0,0.0,0.0,0.0,0.0,0.0,0.0,0.0,0.0,0.0,0.0,0.0,0.0,0.0,0.0,0.0,0.0,0.0,0.0,0.0,0.0,0.0,0.0,0.0,0.0,0.0,0.0,0.0,0.0,0.0,0.0,0.0,0.0,0.0,0.0,0.0,0.0,0.0,0.0,0.0,0.0,0.0,0.0,0.0,0.0,0.0,0.0,0.0,0.0,0.0,0.0,0.0,0.0,0.0,0.0,0.0,0.0,0.0,0.0,0.0,0.0,0.0,0.0,0.0,0.0,0.0,0.0,0.0,0.0,0.0,0.0,0.0,0.0,0.0,0.0,0.0,0.0,0.0,0.0,0.0,0.0,0.0,0.0,0.0,0.0,0.0,0.0,0.0,0.0,0.0,0.0,0.0,0.0,0.0,0.0,0.0,0.0,0.0,0.0,0.0,0.0,0.0,0.0,0.0,0.0,0.0,0.0,0.0,0.0,0.0,0.0,0.0,0.0,0.0,0.0,0.0,0.0,0.0,0.0,0.0,0.0,0.0,0.0,0.0,0.0,0.0,0.0,0.0,0.0,0.0,0.0,0.0,0.0,0.0,0.0,0.0,0.0,0.0,0.0,0.0,0.0,0.0,0.0,0.0,0.0,0.0,0.0,0.0,0.0,0.0,0.0,0.0,0.0,0.0,0.0,0.0,0.0,0.0,0.0,0.0,0.0,0.0,0.0,0.0,0.0,0.0,0.0,0.0,0.0,0.0,0.0,0.0,0.0,0.0,0.0,0.0,0.0,0.0,0.0,0.0,0.0,0.0,0.0,0.0,0.0,0.0,0.0,0.0,0.0,0.0,0.0,0.0,0.0,0.0,0.0,0.0,0.0,0.0,0.0,0.0,0.0,0.0,0.0,0.0,0.0,0.0,0.0,0.0,0.0,0.0,0.0,0.0,0.0,0.0,0.0,0.0,0.0,0.0,0.0,0.0,0.0,0.0,0.0,0.0,0.0,0.0,0.0,0.0,0.0,0.0,0.0,0.0,0.0,0.0,0.0,0.0,0.0,0.0,0.0,0.0,0.0,0.0,0.0,0.0,0.0,0.0,0.0,0.0,0.0,0.0,0.0,0.0,0.0,0.0,0.0,0.0,0.0,0.0,0.0,0.0,0.0,0.0,0.0,0.0,0.0,0.0,0.0,0.0,0.0,0.0,0.0,0.0,0.0,0.0,0.0,0.0,0.0,0.0,0.0,0.0,0.0,0.0,0.0,0.0,0.0,0.0,0.0,0.0,0.0,0.0,0.0,0.0,0.0,0.0,0.0,0.0,0.0,0.0,0.0,0.0,0.0,0.0,0.0,0.0,0.0,0.0,0.0,0.0,0.0,0.0,0.0,0.0,0.0,0.0,0.0,0.0,0.0,0.0,0.0,0.0,0.0,0.0,0.0,0.0,0.0,0.0,0.0,0.0,0.0,0.0,0.0,0.0,0.0,0.0,0.0,0.0,0.0,0.0,0.0,0.0,0.0,0.0,0.0,0.0,0.0,-1.0073,0.0,0.0,0.0,-1.0078,0.0,0.0,0.0,0.0,0.0,0.0,0.0,0.0,0.0,0.0,0.0,0.0,0.0,0.0,0.0,0.0,0.0,0.0,0.0,0.0,0.0,0.0,0.0,0.0,0.0,0.0,0.0,0.0,0.0,0.0,0.0,0.0,0.0,0.0,0.0,0.0,0.0,0.0,0.0,0.0,0.0,0.0,0.0,0.0,0.0,0.0,0.0,0.0,0.0,0.0,0.0,0.0,0.0,0.0,0.0,0.0,0.0,0.0,0.0,0.0,0.0,0.0,0.0,0.0,0.0,0.0,0.0,0.0,0.0,0.0,0.0,0.0,0.0,0.0,0.0,0.0,0.0,0.0,0.0,0.0,0.0,0.0,0.0,0.0,0.0,0.0,0.0,0.0,0.0,0.0,0.0,0.0,0.0,0.0,0.0,0.0,0.0,0.0,0.0,0.0,0.0,0.0,0.0,0.0,0.0,0.0,0.0,0.0,0.0,0.0,-0.9978,-0.999,-1.0496,-1.053,-1.0017,0.0,0.0,0.0,0.0,0.0,0.0,0.0,0.0,0.0,0.0,0.0,0.0,0.0,0.0,0.0,0.0,0.0,0.0,0.0,0.0,0.0,0.0,0.0,0.0,0.0,0.0,0.0,0.0,0.0,0.0,0.0,0.0,0.0,0.0,0.0,0.0,0.0,0.0,0.0,0.0,0.0,0.0,0.0,0.0,0.0,0.0,0.0,0.0,0.0,0.0,0.0,0.0,0.0,0.0,0.0,0.0,0.0,0.0,0.0,0.0,0.0,0.0,0.0,0.0,0.0,0.0,0.0,0.0,0.0,0.0,0.0,0.0,0.0,0.0,0.0,0.0,0.0,0.0,0.0,0.0,0.0,0.0,0.0,0.0,0.0,0.0,0.0,0.0,0.0,0.0,0.0,0.0,0.0,0.0,0.0,0.0,0.0,0.0,0.0,0.0,0.0,0.0,0.0,0.0,0.0,0.0,0.0,0.0,0.0,0.0,0.0,0.0,-1.0617,-1.0664,-1.0213,0.0,0.0,0.0,0.0,0.0,0.0,0.0,0.0,0.0,0.0,0.0,0.0,0.0,0.0,0.0,0.0,0.0,0.0,0.0,0.0,0.0,0.0,0.0,0.0,0.0,0.0,0.0,0.0,0.0,0.0,0.0,0.0,0.0,0.0,0.0,0.0,0.0,0.0,0.0,0.0,0.0,0.0,0.0,0.0,0.0,0.0,0.0,0.0,0.0,0.0,0.0,0.0,0.0,0.0,0.0,0.0,0.0,0.0,0.0,0.0,0.0,0.0,0.0,0.0,0.0,0.0,0.0,0.0,0.0,0.0,0.0,0.0,0.0,0.0,0.0,0.0,0.0,0.0,0.0,0.0,0.0,0.0,0.0,0.0,0.0,0.0,0.0,0.0,0.0,0.0,0.0,0.0,0.0,0.0,0.0,0.0,0.0,0.0,0.0,0.0,0.0,0.0,0.0,0.0,0.0,0.0,0.0,0.0,0.0,0.0,-0.9971,-1.0636,-1.0779,0.0,-1.0793,0.0,0.0,0.0,0.0,0.0,0.0,0.0,0.0,0.0,0.0,0.0,0.0,0.0,0.0,0.0,0.0,0.0,0.0,0.0,0.0,0.0,0.0,0.0,0.0,0.0,0.0,0.0,0.0,0.0,0.0,0.0,0.0,0.0,0.0,0.0,0.0,0.0,0.0,0.0,0.0,0.0,0.0,0.0,0.0,0.0,0.0,0.0,0.0,0.0,0.0,0.0,0.0,0.0,0.0,0.0,0.0,0.0,0.0,0.0,0.0,0.0,0.0,0.0,0.0,0.0,0.0,0.0,0.0,0.0,0.0,0.0,0.0,0.0,0.0,0.0,0.0,0.0,0.0,0.0,0.0,0.0,0.0,0.0,0.0,0.0,0.0,0.0,0.0,0.0,0.0,0.0,0.0,0.0,0.0,0.0,0.0,0.0,0.0,0.0,0.0,0.0,0.0,0.0,0.0,0.0,0.0,0.0,0.0,0.0,0.0,-1.0195,-1.0575,-1.0649,-1.0677,0.0,0.0,0.0,0.0,0.0,0.0,0.0,0.0,0.0,0.0,0.0,0.0,0.0,0.0,0.0,0.0,0.0,0.0,0.0,0.0,0.0,0.0,0.0,0.0,0.0,0.0,0.0,0.0,0.0,0.0,0.0,0.0,0.0,0.0,0.0,0.0,0.0,0.0,0.0,0.0,0.0,0.0,0.0,0.0,0.0,0.0,0.0,0.0,0.0,0.0,0.0,0.0,0.0,0.0,0.0,0.0,0.0,0.0,0.0,0.0,0.0,0.0,0.0,0.0,0.0,0.0,0.0,0.0,0.0,0.0,0.0,0.0,0.0,0.0,0.0,0.0,0.0,0.0,0.0,0.0,0.0,0.0,0.0,0.0,0.0,0.0,0.0,0.0,0.0,0.0,0.0,0.0,0.0,0.0,0.0,0.0,0.0,0.0,0.0,0.0,0.0,0.0,0.0,0.0,0.0,0.0,0.0,0.0,0.0,0.0,-1.008,-1.0426,-1.0717,-1.0738,-1.0683,-1.0555,0.0,0.0,0.0,0.0,0.0,0.0,0.0,0.0,0.0,0.0,0.0,0.0,0.0,0.0,0.0,0.0,0.0,0.0,0.0,0.0,0.0,0.0,0.0,0.0,0.0,0.0,0.0,0.0,0.0,0.0,0.0,0.0,0.0,0.0,0.0,0.0,0.0,0.0,0.0,0.0,0.0,0.0,0.0,0.0,0.0,0.0,0.0,0.0,0.0,0.0,0.0,0.0,0.0,0.0,0.0,0.0,0.0,0.0,0.0,0.0,0.0,0.0,0.0,0.0,0.0,0.0,0.0,0.0,0.0,0.0,0.0,0.0,0.0,0.0,0.0,0.0,0.0,0.0,0.0,0.0,0.0,0.0,0.0,0.0,0.0,0.0,0.0,0.0,0.0,0.0,0.0,0.0,0.0,0.0,0.0,0.0,0.0,0.0,0.0,0.0,0.0,0.0,0.0,0.0,0.0,0.0,0.0,0.0,-1.0378,-1.0331,-1.0629,-1.1321,-1.1348,-1.1151,0.0,0.0,0.0,0.0,0.0,0.0,0.0,0.0,0.0,0.0,0.0,0.0,0.0,0.0,0.0,0.0,0.0,0.0,0.0,0.0,0.0,0.0,0.0,0.0,0.0,0.0,0.0,0.0,0.0,0.0,0.0,0.0,0.0,0.0,0.0,0.0,0.0,0.0,0.0,0.0,0.0,0.0,0.0,0.0,0.0,0.0,0.0,0.0,0.0,0.0,0.0,0.0,0.0,0.0,0.0,0.0,0.0,0.0,0.0,0.0,0.0,0.0,0.0,0.0,0.0,0.0,0.0,0.0,0.0,0.0,0.0,0.0,0.0,0.0,0.0,0.0,0.0,0.0,0.0,0.0,0.0,0.0,0.0,0.0,0.0,0.0,0.0,0.0,0.0,0.0,0.0,0.0,0.0,0.0,0.0,0.0,0.0,0.0,0.0,0.0,0.0,0.0,0.0,0.0,0.0,0.0,0.0,0.0,0.0,-0.9768,-1.0195,-1.0867,-1.1748,-1.1172,-1.0921,0.0,0.0,0.0,0.0,0.0,0.0,0.0,0.0,0.0,0.0,0.0,0.0,0.0,0.0,0.0,0.0,0.0,0.0,0.0,0.0,0.0,0.0,0.0,0.0,0.0,0.0,0.0,0.0,0.0,0.0,0.0,0.0,0.0,0.0,0.0,0.0,0.0,0.0,0.0,0.0,0.0,0.0,0.0,0.0,0.0,0.0,0.0,0.0,0.0,0.0,0.0,0.0,0.0,0.0,0.0,0.0,0.0,0.0,0.0,0.0,0.0,0.0,0.0,0.0,0.0,0.0,0.0,0.0,0.0,0.0,0.0,0.0,0.0,0.0,0.0,0.0,0.0,0.0,0.0,0.0,0.0,0.0,0.0,0.0,0.0,0.0,0.0,0.0,0.0,0.0,0.0,0.0,0.0,0.0,0.0,0.0,0.0,0.0,0.0,0.0,0.0,0.0,0.0,0.0,0.0,0.0,0.0,0.0,0.0,-0.9951,-1.0636,-1.1321,-1.1918,-1.1206,-1.0867,0.0,0.0,0.0,0.0,0.0,0.0,0.0,0.0,0.0,0.0,0.0,0.0,0.0,0.0,0.0,0.0,0.0,0.0,0.0,0.0,0.0,0.0,0.0,0.0,0.0,0.0,0.0,0.0,0.0,0.0,0.0,0.0,0.0,0.0,0.0,0.0,0.0,0.0,0.0,0.0,0.0,0.0,0.0,0.0,0.0,0.0,0.0,0.0,0.0,0.0,0.0,0.0,0.0,0.0,0.0,0.0,0.0,0.0,0.0,0.0,0.0,0.0,0.0,0.0,0.0,0.0,0.0,0.0,0.0,0.0,0.0,0.0,0.0,0.0,0.0,0.0,0.0,0.0,0.0,0.0,0.0,0.0,0.0,0.0,0.0,0.0,0.0,0.0,0.0,0.0,0.0,0.0,0.0,0.0,0.0,0.0,0.0,0.0,0.0,0.0,0.0,0.0,0.0,0.0,0.0,0.0,0.0,0.0,-0.9869,-1.107,-1.176,-1.1925,-1.183,-1.1518,-1.1036,0.0,0.0,0.0,0.0,0.0,0.0,0.0,0.0,0.0,0.0,0.0,0.0,0.0,0.0,0.0,0.0,0.0,0.0,0.0,0.0,0.0,0.0,0.0,0.0,0.0,0.0,0.0,0.0,0.0,0.0,0.0,0.0,0.0,0.0,0.0,0.0,0.0,0.0,0.0,0.0,0.0,0.0,0.0,0.0,0.0,0.0,0.0,0.0,0.0,0.0,0.0,0.0,0.0,0.0,0.0,0.0,0.0,0.0,0.0,0.0,0.0,0.0,0.0,0.0,0.0,0.0,0.0,0.0,0.0,0.0,0.0,0.0,0.0,0.0,0.0,0.0,0.0,0.0,0.0,0.0,0.0,0.0,0.0,0.0,0.0,0.0,0.0,0.0,0.0,0.0,0.0,0.0,0.0,0.0,0.0,0.0,0.0,0.0,0.0,0.0,0.0,0.0,0.0,0.0,0.0,0.0,0.0,0.0,0.0,-1.0249,-1.1131,-1.1674,-1.1803,-1.1348,-1.1124,0.0,0.0,0.0,0.0,0.0,0.0,0.0,0.0,0.0,0.0,0.0,0.0,0.0,0.0,0.0,0.0,0.0,0.0,0.0,0.0,0.0,0.0,0.0,0.0,0.0,0.0,0.0,0.0,0.0,0.0,0.0,0.0,0.0,0.0,0.0,0.0,0.0,0.0,0.0,0.0,0.0,0.0,0.0,0.0,0.0,0.0,0.0,0.0,0.0,0.0,0.0,0.0,0.0,0.0,0.0,0.0,0.0,0.0,0.0,0.0,0.0,0.0,0.0,0.0,0.0,0.0,0.0,0.0,0.0,0.0,0.0,0.0,0.0,0.0,0.0,0.0,0.0,0.0,0.0,0.0,0.0,0.0,0.0,0.0,0.0,0.0,0.0,0.0,0.0,0.0,0.0,0.0,0.0,0.0,0.0,0.0,0.0,0.0,0.0,0.0,0.0,0.0,0.0,0.0,0.0,0.0,0.0,0.0,0.0,-1.046,-1.1436,-1.2033,-1.2162,-1.1586,-1.1328,-1.143,0.0,0.0,0.0,0.0,0.0,0.0,0.0,0.0,0.0,0.0,0.0,0.0,0.0,0.0,0.0,0.0,0.0,0.0,0.0,0.0,0.0,0.0,0.0,0.0,0.0,0.0,0.0,0.0,0.0,0.0,0.0,0.0,0.0,0.0,0.0,0.0,0.0,0.0,0.0,0.0,0.0,0.0,0.0,0.0,0.0,0.0,0.0,0.0,0.0,0.0,0.0,0.0,0.0,0.0,0.0,0.0,0.0,0.0,0.0,0.0,0.0,0.0,0.0,0.0,0.0,0.0,0.0,0.0,0.0,0.0,0.0,0.0,0.0,0.0,0.0,0.0,0.0,0.0,0.0,0.0,0.0,0.0,0.0,0.0,0.0,0.0,0.0,0.0,0.0,0.0,0.0,0.0,0.0,0.0,0.0,0.0,0.0,0.0,0.0,0.0,0.0,0.0,0.0,0.0,0.0,0.0,0.0,0.0,-1.1436,-1.2433,-1.2881,-1.2732,-1.2149,-1.1647,0.0,0.0,0.0,0.0,0.0,0.0,0.0,0.0,0.0,0.0,0.0,0.0,0.0,0.0,0.0,0.0,0.0,0.0,0.0,0.0,0.0,0.0,0.0,0.0,0.0,0.0,0.0,0.0,0.0,0.0,0.0,0.0,0.0,0.0,0.0,0.0,0.0,0.0,0.0,0.0,0.0,0.0,0.0,0.0,0.0,0.0,0.0,0.0,0.0,0.0,0.0,0.0,0.0,0.0,0.0,0.0,0.0,0.0,0.0,0.0,0.0,0.0,0.0,0.0,0.0,0.0,0.0,0.0,0.0,0.0,0.0,0.0,0.0,0.0,0.0,0.0,0.0,0.0,0.0,0.0,0.0,0.0,0.0,0.0,0.0,0.0,0.0,0.0,0.0,0.0,0.0,0.0,0.0,0.0,0.0,0.0,0.0,0.0,0.0,0.0,0.0,0.0,0.0,0.0,0.0,0.0,0.0,0.0,0.0,-1.204,-1.2651,-1.2942,-1.2888,-1.2318,-1.1999,0.0,0.0,0.0,0.0,0.0,0.0,0.0,0.0,0.0,0.0,0.0,0.0,0.0,0.0,0.0,0.0,0.0,0.0,0.0,0.0,0.0,0.0,0.0,0.0,0.0,0.0,0.0,0.0,0.0,0.0,0.0,0.0,0.0,0.0,0.0,0.0,0.0,0.0,0.0,0.0,0.0,0.0,0.0,0.0,0.0,0.0,0.0,0.0,0.0,0.0,0.0,0.0,0.0,0.0,0.0,0.0,0.0,0.0,0.0,0.0,0.0,0.0,0.0,0.0,0.0,0.0,0.0,0.0,0.0,0.0,0.0,0.0,0.0,0.0,0.0,0.0,0.0,0.0,0.0,0.0,0.0,0.0,0.0,0.0,0.0,0.0,0.0,0.0,0.0,0.0,0.0,0.0,0.0,0.0,0.0,0.0,0.0,0.0,0.0,0.0,0.0,0.0,0.0,0.0,0.0,0.0,0.0,0.0,-1.1561,-1.2454,-1.2847,-1.3078,-1.3146,-1.2623,-1.2325,0.0,0.0,0.0,0.0,0.0,0.0,0.0,0.0,0.0,0.0,0.0,0.0,0.0,0.0,0.0,0.0,0.0,0.0,0.0,0.0,0.0,0.0,0.0,0.0,0.0,0.0,0.0,0.0,0.0,0.0,0.0,0.0,0.0,0.0,0.0,0.0,0.0,0.0,0.0,0.0,0.0,0.0,0.0,0.0,0.0,0.0,0.0,0.0,0.0,0.0,0.0,0.0,0.0,0.0,0.0,0.0,0.0,0.0,0.0,0.0,0.0,0.0,0.0,0.0,0.0,0.0,0.0,0.0,0.0,0.0,0.0,0.0,0.0,0.0,0.0,0.0,0.0,0.0,0.0,0.0,0.0,0.0,0.0,0.0,0.0,0.0,0.0,0.0,0.0,0.0,0.0,0.0,0.0,0.0,0.0,0.0,0.0,0.0,0.0,0.0,0.0,0.0,0.0,0.0,0.0,0.0,0.0,0.0,-1.2033,-1.2739,-1.303,-1.3247,-1.3376,-1.2963,-1.2596,0.0,0.0,0.0,0.0,0.0,0.0,0.0,0.0,0.0,0.0,0.0,0.0,0.0,0.0,0.0,0.0,0.0,0.0,0.0,0.0,0.0,0.0,0.0,0.0,0.0,0.0,0.0,0.0,0.0,0.0,0.0,0.0,0.0,0.0,0.0,0.0,0.0,0.0,0.0,0.0,0.0,0.0,0.0,0.0,0.0,0.0,0.0,0.0,0.0,0.0,0.0,0.0,0.0,0.0,0.0,0.0,0.0,0.0,0.0,0.0,0.0,0.0,0.0,0.0,0.0,0.0,0.0,0.0,0.0,0.0,0.0,0.0,0.0,0.0,0.0,0.0,0.0,0.0,0.0,0.0,0.0,0.0,0.0,0.0,0.0,0.0,0.0,0.0,0.0,0.0,0.0,0.0,0.0,0.0,0.0,0.0,0.0,0.0,0.0,0.0,0.0,0.0,0.0,0.0,0.0,0.0,0.0,0.0,-1.2393,-1.2895,-1.3085,-1.3247,-1.3397,-1.2963,-1.2644,0.0,0.0,0.0,0.0,0.0,0.0,0.0,0.0,0.0,0.0,0.0,0.0,0.0,0.0,0.0,0.0,0.0,0.0,0.0,0.0,0.0,0.0,0.0,0.0,0.0,0.0,0.0,0.0,0.0,0.0,0.0,0.0,0.0,0.0,0.0,0.0,0.0,0.0,0.0,0.0,0.0,0.0,0.0,0.0,0.0,0.0,0.0,0.0,-0.7624,0.0,0.0,0.0,0.0,0.0,0.0,0.0,0.0,0.0,0.0,0.0,0.0,0.0,0.0,0.0,0.0,0.0,0.0,0.0,0.0,0.0,0.0,0.0,0.0,0.0,0.0,0.0,0.0,0.0,0.0,0.0,0.0,0.0,0.0,0.0,0.0,0.0,0.0,0.0,0.0,0.0,0.0,0.0,0.0,0.0,0.0,0.0,0.0,0.0,0.0,0.0,0.0,0.0,0.0,0.0,0.0,0.0,0.0,0.0,-1.2576,-1.2949,-1.3173,-1.3315,-1.339,-1.3166,-1.284,0.0,0.0,0.0,0.0,0.0,0.0,0.0,0.0,0.0,0.0,0.0,0.0,0.0,0.0,0.0,0.0,0.0,0.0,0.0,0.0,0.0,0.0,0.0,0.0,0.0,0.0,0.0,0.0,0.0,0.0,0.0,0.0,0.0,0.0,0.0,0.0,0.0,0.0,0.0,0.0,0.0,0.0,0.0,0.0,0.0,0.0,0.0,0.0,0.0,0.0,0.0,0.0,0.0,0.0,0.0,0.0,0.0,0.0,0.0,0.0,0.0,0.0,0.0,0.0,0.0,0.0,0.0,0.0,0.0,0.0,0.0,0.0,0.0,0.0,0.0,0.0,0.0,0.0,0.0,0.0,0.0,0.0,0.0,0.0,0.0,0.0,0.0,0.0,0.0,0.0,0.0,0.0,0.0,0.0,0.0,0.0,0.0,0.0,0.0,0.0,0.0,0.0,0.0,0.0,0.0,0.0,0.0,-1.1843,-1.2603,-1.2956,-1.3227,-1.3376,-1.3397,-1.3397,-1.303,-1.2257,0.0,0.0,0.0,0.0,0.0,0.0,0.0,0.0,0.0,0.0,0.0,0.0,0.0,0.0,0.0,0.0,0.0,0.0,0.0,0.0,0.0,0.0,0.0,0.0,0.0,0.0,0.0,0.0,0.0,0.0,0.0,0.0,0.0,0.0,0.0,0.0,0.0,0.0,-0.7632,-0.6948,0.0,0.0,0.0,0.0,0.0,0.0,0.0,0.0,-0.5691,0.0,0.0,0.0,0.0,0.0,0.0,0.0,0.0,0.0,0.0,0.0,0.0,0.0,0.0,0.0,0.0,0.0,0.0,0.0,0.0,0.0,0.0,0.0,0.0,0.0,0.0,0.0,0.0,0.0,0.0,0.0,0.0,0.0,0.0,0.0,0.0,0.0,0.0,0.0,0.0,0.0,0.0,0.0,0.0,0.0,0.0,0.0,0.0,0.0,0.0,0.0,0.0,0.0,0.0,0.0,0.0,-1.1592,-1.1959,-1.24,-1.2949,-1.3125,-1.3268,-1.3397,-1.3397,-1.2929,-1.1993,0.0,0.0,0.0,0.0,0.0,0.0,0.0,0.0,0.0,0.0,0.0,0.0,0.0,0.0,0.0,0.0,0.0,0.0,0.0,0.0,0.0,0.0,0.0,0.0,0.0,0.0,0.0,0.0,0.0,0.0,0.0,0.0,0.0,0.0,0.0,0.0,0.0,0.0,0.0,-0.4996,-0.4613,0.0,0.0,0.0,0.0,0.0,0.0,0.0,0.0,-0.3569,0.0,0.0,0.0,0.0,0.0,0.0,0.0,0.0,0.0,0.0,0.0,0.0,0.0,0.0,0.0,0.0,0.0,0.0,0.0,0.0,0.0,0.0,0.0,0.0,0.0,0.0,0.0,0.0,0.0,0.0,0.0,0.0,0.0,0.0,0.0,0.0,0.0,0.0,0.0,0.0,0.0,0.0,0.0,0.0,0.0,0.0,0.0,0.0,0.0,0.0,0.0,0.0,0.0,0.0,0.0,-1.1432,-1.2135,-1.2671,-1.2949,-1.3098,-1.3207,-1.3281,-1.3281,-1.2752,0.0,0.0,0.0,0.0,0.0,0.0,0.0,0.0,0.0,0.0,0.0,0.0,0.0,0.0,0.0,0.0,0.0,0.0,0.0,0.0,0.0,0.0,0.0,0.0,0.0,0.0,0.0,0.0,0.0,0.0,0.0,0.0,0.0,0.0,0.0,0.0,0.0,0.0,0.0,0.0,-0.5154,-0.4632,-0.4185,0.0,0.0,0.0,0.0,0.0,0.0,-0.173,-0.247,0.0,0.0,0.0,0.0,0.0,0.0,0.0,0.0,0.0,0.0,0.0,0.0,0.0,0.0,0.0,0.0,0.0,0.0,0.0,0.0,0.0,0.0,0.0,0.0,0.0,0.0,0.0,0.0,0.0,0.0,0.0,0.0,0.0,0.0,0.0,0.0,0.0,0.0,0.0,0.0,0.0,0.0,0.0,0.0,0.0,0.0,0.0,0.0,0.0,0.0,0.0,0.0,0.0,0.0,0.0,-1.1077,-1.2115,-1.2766,-1.2908,-1.3057,-1.3132,-1.3132,-1.3159,-1.261,0.0,0.0,0.0,0.0,0.0,0.0,0.0,0.0,0.0,0.0,0.0,0.0,0.0,0.0,0.0,0.0,0.0,0.0,0.0,0.0,0.0,0.0,0.0,0.0,0.0,0.0,0.0,0.0,0.0,0.0,0.0,0.0,0.0,0.0,0.0,0.0,0.0,0.0,0.0,0.0,0.0,-0.4817,-0.4967,-0.3272,0.0,0.0,0.0,0.0,-0.0209,-0.1019,0.0,0.0,0.0,0.0,0.0,0.0,0.0,0.0,0.0,0.0,0.0,0.0,0.0,0.0,0.0,0.0,0.0,0.0,0.0,0.0,0.0,0.0,0.0,0.0,0.0,0.0,0.0,0.0,0.0,0.0,0.0,0.0,0.0,0.0,0.0,0.0,0.0,0.0,0.0,0.0,0.0,0.0,0.0,0.0,0.0,0.0,0.0,0.0,0.0,0.0,0.0,0.0,0.0,0.0,0.0,0.0,-1.1173,-1.1552,-1.2094,-1.2725,-1.2908,-1.307,-1.299,-1.3105,-1.2617,0.0,0.0,0.0,0.0,0.0,0.0,0.0,0.0,0.0,0.0,0.0,0.0,0.0,0.0,0.0,0.0,0.0,0.0,0.0,0.0,0.0,0.0,0.0,0.0,0.0,0.0,0.0,0.0,0.0,0.0,0.0,0.0,0.0,0.0,0.0,0.0,0.0,0.0,0.0,0.0,0.0,-0.4545,-0.3072,-0.1357,0.0,0.0,0.0,0.0,0.0,-0.0147,0.0,0.0,0.0,0.0,0.0,0.0,0.0,0.0,0.0,0.0,0.0,0.0,0.0,0.0,0.0,0.0,0.0,0.0,0.0,0.0,0.0,0.0,0.0,0.0,0.0,0.0,0.0,0.0,0.0,0.0,0.0,0.0,0.0,0.0,0.0,0.0,0.0,0.0,0.0,0.0,0.0,0.0,0.0,0.0,0.0,0.0,0.0,0.0,0.0,0.0,0.0,0.0,0.0,0.0,0.0,-1.2375,-1.1283,-1.1796,-1.2359,-1.284,-1.2929,-1.3043,-1.3043,-1.3104,-1.2488,0.0,0.0,0.0,0.0,0.0,0.0,0.0,0.0,0.0,0.0,0.0,0.0,0.0,0.0,0.0,0.0,0.0,0.0,0.0,0.0,0.0,0.0,0.0,0.0,0.0,0.0,0.0,0.0,0.0,0.0,0.0,0.0,0.0,0.0,0.0,0.0,0.0,0.0,0.0,0.0,0.0,0.0,-0.4716,-0.1987,0.0,0.0,0.0,0.0,0.0,0.0,0.0,0.0,0.0,0.0,0.0,0.0,0.0,0.0,0.0,0.0,0.0,0.0,0.0,0.0,0.0,0.0,0.0,0.0,0.0,0.0,0.0,0.0,0.0,0.0,0.0,0.0,0.0,0.0,0.0,0.0,0.0,0.0,0.0,0.0,0.0,0.0,0.0,0.0,0.0,0.0,0.0,0.0,0.0,0.0,0.0,0.0,0.0,0.0,0.0,0.0,0.0,0.0,0.0,0.0,0.0,0.0,-1.1234,-1.2081,-1.2691,-1.2956,-1.3037,-1.3131,-1.3017,-1.301,0.0,0.0,0.0,0.0,0.0,0.0,0.0,0.0,0.0,0.0,0.0,0.0,0.0,0.0,0.0,0.0,0.0,0.0,0.0,0.0,0.0,0.0,0.0,0.0,0.0,0.0,0.0,-0.7875,0.0,0.0,0.0,0.0,0.0,0.0,0.0,0.0,0.0,0.0,0.0,0.0,0.0,0.0,-0.5307,-0.6002,-0.2648,0.0,0.0,0.0,0.0,0.0,0.0,0.0,0.0,0.0,0.0,0.0,0.0,0.0,0.0,0.0,0.0,0.0,0.0,0.0,0.0,0.0,0.0,0.0,0.0,0.0,0.0,0.0,0.0,0.0,0.0,0.0,0.0,0.0,0.0,0.0,-1.939,0.0,0.0,0.0,0.0,0.0,0.0,0.0,0.0,0.0,0.0,0.0,0.0,0.0,0.0,0.0,0.0,0.0,0.0,0.0,0.0,0.0,0.0,0.0,0.0,0.0,-1.3195,-1.131,-1.2189,-1.2793,-1.2963,-1.3234,-1.3302,-1.3166,-1.3159,-1.2664,0.0,0.0,0.0,0.0,0.0,0.0,0.0,0.0,0.0,0.0,0.0,0.0,0.0,0.0,0.0,0.0,0.0,0.0,0.0,0.0,0.0,0.0,0.0,0.0,0.0,0.0,0.0,0.0,0.0,0.0,0.0,0.0,0.0,0.0,0.0,0.0,0.0,0.0,0.0,0.0,0.0,-0.5135,-0.5566,-0.2388,0.0,0.0,0.0,0.0,0.0,0.0,0.0,0.0,0.0,0.0,0.0,0.0,0.0,0.0,0.0,0.0,0.0,0.0,0.0,0.0,0.0,0.0,0.0,0.0,0.0,0.0,0.0,0.0,0.0,0.0,0.0,0.0,0.0,-1.9679,-1.9533,0.0,-1.9239,0.0,0.0,0.0,0.0,0.0,0.0,0.0,0.0,0.0,0.0,0.0,0.0,0.0,0.0,0.0,0.0,0.0,0.0,0.0,0.0,0.0,0.0,0.0,0.0,-1.3887,-1.282,-1.2766,-1.2895,-1.322,-1.3342,-1.3376,-1.3315,-1.3315,-1.2868,0.0,0.0,0.0,0.0,0.0,0.0,0.0,0.0,0.0,0.0,0.0,0.0,0.0,0.0,0.0,0.0,0.0,0.0,0.0,0.0,0.0,0.0,0.0,0.0,0.0,0.0,0.0,0.0,-0.9503,-0.939,-0.9239,0.0,0.0,0.0,0.0,0.0,0.0,0.0,0.0,0.0,0.0,-0.5133,-0.4197,-0.1734,0.0,0.0,0.0,0.0,0.0,0.0,0.0,0.0,0.0,0.0,0.0,0.0,0.0,0.0,0.0,0.0,0.0,0.0,0.0,0.0,0.0,0.0,0.0,0.0,0.0,0.0,0.0,0.0,0.0,0.0,0.0,0.0,0.0,0.0,0.0,0.0,0.0,0.0,0.0,0.0,0.0,0.0,0.0,0.0,0.0,0.0,0.0,0.0,0.0,0.0,0.0,0.0,0.0,0.0,0.0,0.0,0.0,0.0,0.0,0.0,0.0,-1.4187,-1.3122,-1.2844,-1.3017,-1.3458,-1.3512,-1.3532,-1.3532,-1.3492,-1.3091,-1.2284,0.0,0.0,0.0,0.0,0.0,0.0,0.0,0.0,0.0,0.0,0.0,0.0,0.0,0.0,0.0,0.0,0.0,0.0,0.0,0.0,0.0,0.0,0.0,0.0,0.0,0.0,0.0,-0.9992,-0.9741,-0.9293,0.0,0.0,0.0,0.0,0.0,0.0,0.0,0.0,0.0,0.0,-0.4369,-0.3208,-0.1291,0.0,0.0,0.0,0.0,0.0,0.0,0.0,0.0,0.0,0.0,0.0,0.0,0.0,0.0,0.0,0.0,0.0,0.0,0.0,0.0,0.0,0.0,0.0,0.0,0.0,0.0,0.0,0.0,0.0,0.0,0.0,0.0,0.0,0.0,0.0,-1.976,0.0,0.0,-1.8848,0.0,0.0,0.0,0.0,0.0,0.0,0.0,0.0,0.0,0.0,0.0,0.0,0.0,0.0,0.0,0.0,0.0,0.0,0.0,0.0,0.0,0.0,-1.3863,-1.1537,-1.251,-1.318,-1.3607,-1.3671,-1.3738,-1.3817,-1.3695,-1.3336,-1.2718,0.0,0.0,0.0,0.0,0.0,0.0,0.0,0.0,0.0,0.0,0.0,0.0,0.0,0.0,0.0,0.0,0.0,0.0,0.0,0.0,0.0,0.0,0.0,0.0,0.0,0.0,-0.9309,-0.9449,-0.9449,0.0,0.0,0.0,0.0,0.0,0.0,0.0,0.0,0.0,-0.8314,-0.5041,-0.2697,-0.3036,-0.1322,0.0,0.0,0.0,0.0,0.0,0.0,0.0,0.0,0.0,0.0,0.0,0.0,0.0,0.0,0.0,0.0,0.0,0.0,0.0,0.0,0.0,0.0,0.0,0.0,0.0,0.0,0.0,0.0,0.0,0.0,0.0,0.0,0.0,0.0,-2.0922,-2.0374,0.0,0.0,0.0,0.0,0.0,0.0,0.0,0.0,0.0,0.0,0.0,-2.1724,-2.2512,0.0,0.0,0.0,0.0,0.0,0.0,0.0,0.0,0.0,0.0,0.0,0.0,-1.375,-1.3436,-1.3318,-1.3417,-1.3756,-1.3732,-1.3752,-1.3752,-1.3702,-1.3302,-1.2596,0.0,0.0,0.0,0.0,0.0,0.0,0.0,0.0,0.0,0.0,0.0,0.0,0.0,0.0,0.0,0.0,0.0,0.0,0.0,0.0,0.0,0.0,0.0,0.0,0.0,-0.9673,0.0,0.0,0.0,0.0,0.0,0.0,0.0,0.0,0.0,0.0,-0.8828,-0.7625,-0.6856,-0.4524,-0.2473,-0.1253,-0.0424,0.0,0.0,0.0,0.0,0.0,0.0,0.0,0.0,0.0,0.0,0.0,0.0,0.0,0.0,0.0,0.0,0.0,0.0,0.0,0.0,0.0,0.0,0.0,0.0,0.0,0.0,0.0,0.0,0.0,0.0,0.0,0.0,0.0,0.0,-2.2071,-2.1443,-2.1229,0.0,0.0,0.0,0.0,0.0,0.0,0.0,0.0,-2.2124,-2.2739,-2.3233,-2.4008,-2.3968,-2.3247,-2.33,-2.2645,0.0,0.0,0.0,0.0,0.0,0.0,0.0,0.0,-1.4252,-1.3861,-1.358,-1.3546,-1.3738,-1.3892,-1.3892,-1.3752,-1.3648,-1.3295,-1.2752,-1.24,-1.2054,0.0,0.0,0.0,0.0,0.0,0.0,0.0,0.0,0.0,0.0,0.0,0.0,0.0,0.0,0.0,0.0,0.0,0.0,0.0,0.0,0.0,0.0,0.0,-0.9944,0.0,0.0,0.0,0.0,0.0,0.0,0.0,0.0,0.0,-1.0595,-0.8794,-0.7161,-0.6193,-0.3692,-0.1522,-0.0169,0.0,0.0,0.0,0.0,0.0,0.0,0.0,0.0,0.0,0.0,0.0,0.0,0.0,0.0,0.0,0.0,0.0,0.0,0.0,0.0,0.0,0.0,0.0,0.0,0.0,0.0,0.0,0.0,0.0,0.0,-2.338,0.0,0.0,0.0,-2.3527,-2.3207,0.0,-2.2311,0.0,0.0,0.0,0.0,-2.0326,-2.1176,0.0,0.0,-2.4449,-2.5211,-2.5464,-2.5478,-2.5504,-2.5491,-2.5197,-2.4783,-2.4182,-2.2832,-2.163,0.0,0.0,0.0,0.0,0.0,-1.5289,-1.2883,-1.32,-1.3566,-1.3759,-1.3994,-1.3994,-1.3831,-1.3553,-1.3329,-1.3173,-1.2766,-1.2461,-1.2284,-1.1056,0.0,0.0,0.0,0.0,0.0,0.0,0.0,0.0,0.0,0.0,0.0,0.0,0.0,0.0,0.0,0.0,0.0,0.0,0.0,0.0,-1.0195,0.0,0.0,0.0,0.0,0.0,0.0,0.0,0.0,0.0,-1.1681,-1.128,-0.816,-0.6029,-0.6472,0.0,0.0,0.0,0.0,0.0,0.0,0.0,0.0,0.0,0.0,0.0,0.0,0.0,0.0,0.0,0.0,0.0,0.0,0.0,0.0,0.0,0.0,0.0,0.0,0.0,0.0,0.0,0.0,0.0,-2.485,0.0,0.0,0.0,0.0,-2.4128,-2.4476,-2.5291,-2.4796,-2.4289,-2.3808,-2.3647,0.0,0.0,0.0,0.0,0.0,0.0,-2.3006,-2.3955,-2.4302,-2.4823,-2.5504,-2.5518,-2.5518,-2.5518,-2.5638,-2.5718,-2.5758,-2.5545,-2.3928,-2.1056,0.0,0.0,0.0,0.0,-1.5151,-1.3205,-1.3593,-1.3919,-1.4007,-1.4048,-1.3946,-1.3695,-1.3505,-1.3376,-1.3336,-1.3214,-1.2922,-1.2461,-1.1979,0.0,0.0,0.0,0.0,0.0,0.0,0.0,0.0,0.0,0.0,0.0,0.0,0.0,0.0,0.0,0.0,0.0,0.0,0.0,-0.97,-1.0351,-1.0582,0.0,0.0,0.0,0.0,0.0,0.0,0.0,0.0,0.0,-1.2215,-0.8781,-0.6413,0.0,0.0,0.0,0.0,0.0,0.0,0.0,0.0,0.0,0.0,0.0,0.0,0.0,0.0,0.0,0.0,0.0,0.0,0.0,0.0,0.0,0.0,0.0,0.0,0.0,0.0,0.0,0.0,0.0,0.0,-2.6279,-2.5531,-2.477,-2.4836,-2.5384,-2.505,-2.5371,-2.6106,-2.5758,-2.5344,-2.4903,-2.4903,-2.4396,-2.3541,-2.3207,0.0,0.0,0.0,-2.3941,-2.4903,-2.501,-2.5411,-2.6012,-2.6159,-2.6213,-2.6213,-2.6266,-2.5964,-2.5342,-2.5392,-2.3711,-2.0568,0.0,-2.0927,-1.7542,-1.7412,-1.621,-1.3858,-1.4061,-1.4245,-1.4245,-1.419,-1.4021,-1.3722,-1.3566,-1.3464,-1.3403,-1.3397,-1.3234,-1.2874,-1.2549,-1.2074,0.0,0.0,0.0,0.0,0.0,0.0,0.0,0.0,0.0,0.0,0.0,-0.9089,-0.833,0.0,0.0,0.0,-0.9964,-1.029,-1.0561,-1.107,0.0,0.0,0.0,0.0,0.0,0.0,0.0,-1.1986,-1.263,-1.3064,-1.3085,-0.9333,-0.6721,-0.6731,-0.2864,0.0,0.0,0.0,0.0,0.0,0.0,0.0,0.0,0.0,0.0,0.0,0.0,0.0,0.0,0.0,0.0,0.0,0.0,0.0,0.0,0.0,0.0,0.0,0.0,0.0,0.0,0.0,0.0,-2.7482,-2.7589,-2.6266,-2.5865,-2.613,-2.6171,-2.6226,-2.6453,-2.6453,-2.6306,-2.6144,-2.6039,-2.5571,-2.4695,-2.3896,0.0,-2.4823,-2.4569,-2.5037,-2.6144,-2.6346,-2.66,-2.6867,-2.7134,-2.735,-2.7255,-2.6987,-2.5771,-2.3962,-2.3645,-2.2096,-1.9529,-2.356,-2.3564,-1.9624,-1.9362,-1.7771,-1.4565,-1.4502,-1.4509,-1.4496,-1.436,-1.415,-1.3885,-1.3729,-1.3587,-1.3464,-1.3431,-1.3417,-1.3397,-1.2881,-1.2447,-1.2231,0.0,0.0,0.0,0.0,0.0,0.0,0.0,0.0,0.0,0.0,0.0,0.0,0.0,0.0,-1.0738,-1.1606,0.0,-1.2033,-1.206,0.0,0.0,0.0,-1.126,-1.1362,-1.2067,-1.261,-1.28,0.0,0.0,-1.3792,-0.9802,-0.6939,-0.6962,-0.2923,0.0,0.0,0.0,0.0,0.0,0.0,0.0,0.0,0.0,0.0,0.0,0.0,0.0,0.0,0.0,0.0,0.0,0.0,0.0,0.0,0.0,0.0,0.0,0.0,0.0,0.0,0.0,0.0,-2.7843,-2.7696,-2.7562,-2.7377,-2.6974,-2.7188,-2.7201,-2.7054,-2.7054,-2.7028,-2.6947,-2.6707,-2.6493,-2.6293,-2.6079,-2.6226,-2.664,-2.656,-2.668,-2.7028,-2.7028,-2.7094,-2.7161,-2.7228,-2.735,-2.7255,-2.7188,-2.6236,-2.4395,-2.4263,-2.3098,-2.1074,-2.2136,-2.0788,-1.7227,-1.7794,-1.6976,-1.4353,-1.4455,-1.4462,-1.4353,-1.4204,-1.4143,-1.4183,-1.3933,-1.3831,-1.3905,-1.3695,-1.3573,-1.3566,-1.3329,-1.3098,-1.2908,-1.1803,0.0,0.0,0.0,0.0,0.0,0.0,0.0,0.0,0.0,-1.0229,-0.9184,0.0,-1.0514,0.0,-1.2223,-1.2467,-1.1796,-1.2033,0.0,0.0,-1.2013,-1.2081,-1.3085,-1.2996,-1.3037,-1.3526,-1.3838,-1.4061,-1.4177,-1.0016,-0.7131,-0.7165,-0.3085,0.0,0.0,0.0,0.0,0.0,0.0,0.0,0.0,0.0,0.0,0.0,0.0,0.0,0.0,0.0,0.0,0.0,0.0,0.0,0.0,0.0,0.0,0.0,0.0,0.0,0.0,0.0,0.0,-2.8257,-2.8123,-2.8417,-2.8203,-2.7669,-2.7829,-2.7736,-2.7468,-2.7455,-2.7388,-2.7255,-2.7094,-2.7014,-2.7014,-2.7028,-2.7108,-2.735,-2.735,-2.735,-2.735,-2.7402,-2.7455,-2.7468,-2.7671,-2.7144,-2.6133,-2.612,-2.4566,-2.1642,-2.148,-2.0463,-1.8389,-1.8403,-1.754,-1.57,-1.7178,-1.6755,-1.4394,-1.4536,-1.4543,-1.4401,-1.4312,-1.4183,-1.4007,-1.4034,-1.3953,-1.3783,-1.3804,-1.3675,-1.3349,-1.3247,-1.3132,-1.2976,-1.2271,-1.1877,0.0,0.0,0.0,0.0,0.0,0.0,0.0,0.0,0.0,0.0,0.0,-1.1124,-1.1491,-1.2576,-1.2976,-1.2284,-1.2678,-1.3044,-1.3207,-1.2929,-1.2943,-1.3678,-1.3614,-1.358,-1.3905,-1.4129,-1.4299,-1.4298,-1.0249,-0.7242,-0.7316,-0.3145,0.0,0.0,0.0,0.0,0.0,0.0,0.0,0.0,0.0,0.0,0.0,0.0,0.0,0.0,0.0,0.0,0.0,0.0,0.0,0.0,0.0,0.0,0.0,0.0,0.0,0.0,0.0,0.0,-2.8657,-2.8684,-2.8938,-2.8738,-2.8257,-2.8341,-2.807,-2.7749,-2.7762,-2.7589,-2.7321,-2.7403,-2.7321,-2.7321,-2.7403,-2.7335,-2.7375,-2.7457,-2.7457,-2.7402,-2.7682,-2.7816,-2.7829,-2.8123,-2.7042,-2.487,-2.4785,-2.2362,-1.7953,-1.7865,-1.6726,-1.4653,-1.459,-1.4645,-1.4824,-1.6734,-1.6739,-1.4516,-1.4604,-1.459,-1.4462,-1.4455,-1.4217,-1.3763,-1.4095,-1.4061,-1.358,-1.3885,-1.3777,-1.3152,-1.3085,-1.301,-1.2874,-1.2779,-1.2603,0.0,-1.2121,0.0,0.0,0.0,0.0,0.0,0.0,0.0,0.0,-1.1938,-1.1952,-1.1619,-1.2847,-1.3498,-1.3105,-1.3539,-1.3844,-1.3871,-1.3871,-1.3878,-1.3905,-1.4034,-1.4129,-1.4129,-1.4373,-1.4543,-1.4397,-1.0364,-0.7408,-0.7013,-0.3098,0.0,0.0,0.0,0.0,0.0,0.0,0.0,0.0,0.0,0.0,0.0,0.0,0.0,0.0,0.0,0.0,0.0,0.0,0.0,0.0,0.0,0.0,0.0,0.0,0.0,0.0,0.0,0.0,-2.8951,-2.8965,-2.9018,-2.8978,-2.8871,-2.8871,-2.8564,-2.814,-2.814,-2.7896,-2.7629,-2.7615,-2.7615,-2.7615,-2.7615,-2.7749,-2.806,-2.806,-2.806,-2.8073,-2.8297,-2.843,-2.8457,-2.8724,-2.7618,-2.5325,-2.5237,-2.2835,-1.834,-1.825,-1.7108,-1.4981,-1.4997,-1.495,-1.476,0.0,0.0,0.0,-1.4306,-1.4183,-1.4156,-1.4156,-1.4163,-1.417,-1.4251,0.0,-1.4299,-1.4156,-1.4014,-1.3871,-1.3743,0.0,-1.3543,0.0,0.0,0.0,0.0,0.0,0.0,0.0,0.0,0.0,-1.2596,-1.2461,-1.2216,-1.2956,-1.3241,-1.2745,-1.3356,-1.3763,-1.3682,-1.377,-1.3892,-1.4014,-1.4027,-1.4075,-1.4197,-1.434,-1.4428,-1.4434,-1.459,-1.4746,-1.4573,-1.0523,-0.7487,-0.7275,-0.3227,0.0,0.0,0.0,0.0,0.0,0.0,0.0,0.0,0.0,0.0,0.0,0.0,0.0,0.0,0.0,0.0,0.0,0.0,0.0,0.0,0.0,0.0,0.0,0.0,0.0,0.0,0.0,0.0,-2.9392,-2.9259,-2.9259,-2.9179,0.0,-2.8958,-2.8871,-2.8577,-2.843,-2.8203,-2.7923,-2.7923,-2.7923,-2.7923,-2.8083,-2.823,-2.8377,-2.8524,-2.8577,-2.8591,-2.8738,-2.8818,-2.8731,-2.7721,-2.5994,-2.3676,-2.2433,-1.9986,-1.6743,-1.656,-1.6026,-1.4855,-1.493,-1.4889,-1.4746,-1.4814,-1.474,-1.4516,-1.4367,-1.4258,-1.4183,-1.4183,-1.415,-1.4082,-1.4367,0.0,0.0,0.0,0.0,0.0,0.0,0.0,0.0,-1.3152,-1.301,-1.3146,-1.2881,-1.2718,-1.2718,-1.2707,-1.299,-1.3363,-1.3471,-1.3383,-1.3078,-1.3539,-1.3749,-1.3539,-1.3783,-1.3987,-1.4061,-1.4129,-1.4204,-1.4278,-1.4353,-1.4434,-1.4509,-1.4584,-1.4624,-1.4638,-1.476,-1.4889,-1.4957,-1.0609,-0.7753,-0.7351,0.0,0.0,0.0,0.0,0.0,0.0,0.0,0.0,0.0,0.0,0.0,0.0,0.0,0.0,0.0,0.0,0.0,0.0,0.0,0.0,0.0,0.0,0.0,0.0,0.0,0.0,0.0,0.0,0.0,-2.97,-2.9486,-2.9432,-2.9259,-2.8958,-2.8958,-2.8958,-2.9032,-2.8778,0.0,0.0,-2.8297,-2.8382,-2.8408,-2.8564,-2.8684,-2.8698,-2.8938,-2.8958,-2.8958,-2.9098,-2.9125,-2.9024,-2.7108,-2.4708,-2.201,-1.9951,-1.7523,-1.4906,-1.4821,-1.4814,-1.4821,-1.5181,-1.5448,-1.5448,-1.5025,-1.4774,-1.4597,-1.4543,-1.4455,-1.434,-1.434,-1.4217,-1.3966,-1.4468,-1.4496,-1.3994,-1.4434,-1.4346,-1.3607,-1.3559,-1.3505,-1.3383,-1.337,-1.3539,-1.3885,-1.3919,-1.3926,-1.3919,-1.3926,-1.3919,-1.3926,-1.4041,-1.4048,-1.3892,-1.3905,-1.3987,-1.4136,-1.415,-1.4211,-1.436,-1.4482,-1.455,-1.455,-1.4665,-1.4733,-1.474,-1.4767,-1.478,-1.4794,-1.4916,-1.5004,-1.4832,-1.0686,-0.7633,-0.7019,-0.319,0.0,0.0,0.0,0.0,0.0,0.0,0.0,0.0,0.0,0.0,0.0,0.0,0.0,0.0,0.0,0.0,0.0,0.0,0.0,0.0,0.0,0.0,0.0,0.0,0.0,0.0,0.0,0.0,-2.9526,-2.9472,-2.9205,-2.9085,-2.8958,-2.8958,-2.8958,-2.9032,-2.9005,-2.8951,-2.8911,-2.8911,-2.8911,-2.8911,-2.8965,-2.8978,-2.8978,-2.9018,-2.8958,-2.8971,-2.9312,-2.9419,-2.9432,-2.9304,-2.6858,-2.2647,-2.2007,-1.9534,-1.558,-1.512,-1.512,-1.5393,-1.7235,-1.8231,-1.8163,-1.627,-1.5181,-1.4909,-1.4645,-1.4502,-1.4482,-1.4482,-1.4468,-1.4428,-1.4631,-1.4645,-1.4428,-1.4502,-1.4428,-1.419,-1.4177,-1.4163,-1.4143,-1.4129,-1.417,-1.4231,-1.4238,-1.4238,-1.4238,-1.4238,-1.4238,-1.4238,-1.4251,-1.4204,-1.4061,-1.4156,-1.4292,-1.4434,-1.4441,-1.4509,-1.4658,-1.4692,-1.4706,-1.4706,-1.4726,-1.474,-1.476,-1.4862,-1.4936,-1.4943,-1.5065,-1.5147,-1.4785,-1.0782,-0.7595,-0.6948,-0.3215,0.0,0.0,0.0,0.0,0.0,0.0,0.0,0.0,0.0,0.0,0.0,0.0,0.0,0.0,0.0,0.0,0.0,0.0,0.0,0.0,0.0,0.0,0.0,0.0,0.0,0.0,0.0,0.0,-2.9726,-2.97,-2.9566,-2.9513,-2.9513,-2.9513,-2.9513,-2.9513,-2.9513,-2.9339,-2.8958,-2.8958,-2.8958,-2.9058,-2.9205,-2.9285,-2.9285,-2.9446,-2.9513,-2.9526,-2.9659,-2.9713,-2.9637,-2.8475,-2.6683,-2.4398,-2.1728,-1.9427,-1.7305,-1.5924,-1.583,-1.7305,-1.9697,-1.952,-1.7032,-1.7202,-1.6609,-1.5179,-1.495,-1.4841,-1.4767,-1.4835,-1.4875,-1.4875,-1.5025,-1.495,-1.4652,-1.4713,-1.4652,-1.4421,-1.4414,-1.4455,-1.4529,-1.4536,-1.4536,-1.4536,-1.4455,-1.4414,-1.4414,-1.4346,-1.4299,-1.4299,-1.4373,-1.4353,-1.4211,-1.4333,-1.4475,-1.4618,-1.4638,-1.4665,-1.4733,-1.4814,-1.4869,-1.4869,-1.493,-1.4977,-1.4984,-1.5038,-1.5086,-1.5086,-1.514,-1.5215,-1.5296,-1.085,-0.7649,-0.7226,-0.3262,0.0,0.0,0.0,0.0,0.0,0.0,0.0,0.0,0.0,0.0,0.0,0.0,0.0,0.0,0.0,0.0,0.0,0.0,0.0,0.0,0.0,0.0,0.0,0.0,0.0,0.0,0.0,0.0,-2.9913,-2.9913,-2.9913,-2.9913,-2.9913,-2.9913,-2.9913,-2.9913,-2.9913,-2.9659,-2.9272,-2.9232,-2.9232,-2.9259,-2.9486,-2.9579,-2.9619,-2.9806,-2.9913,-2.9913,-2.9913,-2.9913,-2.9734,-2.7883,-2.6785,-2.5866,-2.227,-2.0252,-1.9511,-1.7771,-1.8135,-2.0344,-2.135,-2.0067,-1.6939,-1.7584,-1.7118,-1.5275,-1.5215,-1.5181,-1.5079,-1.5215,-1.5289,-1.5296,-1.5398,-1.5282,-1.4923,-1.4977,-1.4896,-1.4638,-1.4584,-1.4618,-1.4726,-1.474,-1.474,-1.4726,-1.4631,-1.4563,-1.4557,-1.4462,-1.4401,-1.4401,-1.4468,-1.4475,-1.4421,-1.4468,-1.4577,-1.4713,-1.4767,-1.4808,-1.4862,-1.495,-1.5018,-1.5025,-1.5113,-1.516,-1.5181,-1.5181,-1.5201,-1.5221,-1.5235,-1.5107,-1.3871,-1.0546,-0.7226,-0.5457,-0.2408,0.0,0.0,0.0,0.0,0.0,0.0,0.0,0.0,0.0,0.0,0.0,0.0,0.0,0.0,0.0,0.0,0.0,0.0,0.0,0.0,0.0,0.0,0.0,0.0,0.0,0.0,0.0,0.0,-2.9913,-2.9913,-2.9913,-2.9913,-2.9913,-2.9913,-2.9913,-2.9913,-2.9913,-2.99,-2.9806,-2.9833,-2.982,-2.9833,-2.986,-2.986,-2.986,-2.99,-2.9913,-2.9913,-2.9913,-2.9913,-2.9913,-2.9631,-2.8346,-2.6502,-2.5582,-2.4021,-2.2188,-2.182,-2.2923,-2.4763,-2.135,-2.0159,-2.0991,-1.7584,-1.5455,-1.5187,-1.5316,-1.5384,-1.5384,-1.552,-1.5594,-1.5594,-1.5608,-1.5533,-1.533,-1.5228,-1.5092,-1.4936,-1.4794,-1.4726,-1.4746,-1.474,-1.4746,-1.4746,-1.4726,-1.4719,-1.4713,-1.4713,-1.4685,-1.4685,-1.4584,-1.457,-1.4658,-1.4584,-1.4577,-1.4713,-1.4862,-1.4984,-1.512,-1.5147,-1.5147,-1.5126,-1.5167,-1.5181,-1.5181,-1.5181,-1.5235,-1.5377,-1.5187,-1.4572,-1.2364,-0.9424,-0.5854,0.0,0.0,0.0,0.0,0.0,0.0,0.0,0.0,0.0,0.0,0.0,0.0,0.0,0.0,0.0,0.0,0.0,0.0,0.0,0.0,0.0,0.0,0.0,0.0,0.0,0.0,0.0,0.0,0.0,0.0,-2.9913,-2.9913,-2.9913,-2.9913,-2.9913,-2.9913,-2.9913,-2.9913,-2.9913,-2.9913,-2.9913,-2.9913,-2.9913,-2.9913,-2.9913,-2.9913,-2.9913,-2.9913,-2.9913,-2.9913,-2.9913,-2.9913,-2.9913,-2.9913,-2.9272,-2.8256,-2.6966,-2.5684,-2.458,-2.3198,-2.1636,-2.0067,-2.0344,-2.0159,-1.8321,-1.7678,-1.6658,-1.5281,-1.533,-1.5452,-1.5554,-1.5689,-1.5811,-1.5893,-1.59,-1.5737,-1.5445,-1.5343,-1.5208,-1.4991,-1.4909,-1.4916,-1.4997,-1.4997,-1.4997,-1.4997,-1.4923,-1.4835,-1.4746,-1.474,-1.474,-1.474,-1.4767,-1.474,-1.4624,-1.4706,-1.4746,-1.4652,-1.4828,-1.497,-1.495,-1.5079,-1.5153,-1.5092,-1.5126,-1.5181,-1.5181,-1.5262,-1.535,-1.5316,-1.4028,-1.2864,-1.1407,-0.8144,-0.4208,0.0,0.0,0.0,0.0,0.0,0.0,0.0,0.0,0.0,0.0,0.0,0.0,0.0,0.0,0.0,0.0,0.0,0.0,0.0,0.0,0.0,0.0,0.0,0.0,0.0,0.0,0.0,0.0,0.0,0.0,-2.9913,-2.9913,-2.9913,-2.9913,-2.9913,-2.9913,-2.9913,-2.9913,-2.9913,-2.9913,-2.9927,-2.9993,-3.0034,-3.0034,-3.0034,-3.0047,-3.0034,-3.0034,-3.0087,-3.0127,-2.9993,-2.9993,-3.0127,-2.998,-2.9967,-2.9737,-2.8204,-2.6912,-2.6141,-2.3751,-2.0705,-1.82,-2.0187,-1.9798,-1.6658,-1.7491,-1.7025,-1.5375,-1.5296,-1.5425,-1.5567,-1.5676,-1.5845,-1.6049,-1.6083,-1.5906,-1.5554,-1.5493,-1.5357,-1.5106,-1.5052,-1.5072,-1.5174,-1.5181,-1.5181,-1.5174,-1.5086,-1.4977,-1.4869,-1.4862,-1.4862,-1.4869,-1.4936,-1.4875,-1.4719,-1.4808,-1.4801,-1.4645,-1.4814,-1.4909,-1.4794,-1.497,-1.5065,-1.4991,-1.5099,-1.5194,-1.5248,-1.535,-1.5438,-1.5328,-1.3382,-1.1016,-0.9332,-0.5706,-0.2016,0.0,0.0,0.0,0.0,0.0,0.0,0.0,0.0,0.0,0.0,0.0,0.0,0.0,0.0,0.0,0.0,0.0,0.0,0.0,0.0,0.0,0.0,0.0,0.0,0.0,0.0,0.0,0.0,0.0,0.0,-2.9913,-2.9913,-2.9913,-2.9913,-2.9913,-2.9913,-2.9913,-2.9913,-2.9927,-2.9927,-2.998,-3.0221,-3.0341,-3.0341,-3.0354,-3.0341,-3.0341,-3.0341,-3.0461,-3.0635,-3.0194,-3.0221,-3.0688,-3.0194,-3.0074,-3.0301,-2.983,-2.8433,-2.6294,-2.3984,-2.2673,-2.2207,-2.0082,-1.8879,-1.8144,-1.6479,-1.5368,-1.5281,-1.5201,-1.5276,-1.5404,-1.5438,-1.5649,-1.6008,-1.6069,-1.5974,-1.5811,-1.5689,-1.554,-1.5391,-1.5235,-1.5174,-1.5181,-1.5181,-1.5181,-1.5181,-1.5174,-1.5167,-1.5147,-1.514,-1.514,-1.5133,-1.5038,-1.4964,-1.4909,-1.4841,-1.4767,-1.4726,-1.4855,-1.4889,-1.478,-1.4916,-1.5004,-1.4991,-1.5106,-1.5242,-1.5377,-1.5418,-1.5547,-1.5347,-1.3251,-0.9633,-0.5117,-0.1915,0.0,0.0,0.0,0.0,0.0,0.0,0.0,0.0,0.0,0.0,0.0,0.0,0.0,0.0,0.0,0.0,0.0,0.0,0.0,0.0,0.0,0.0,0.0,0.0,0.0,0.0,0.0,0.0,0.0,0.0,0.0,-2.9913,-2.9913,-2.9913,-2.9913,-2.9913,-2.9913,-2.9913,-2.9927,-3.0127,-3.0194,-3.0247,-3.0515,-3.0635,-3.0648,-3.0835,-3.0808,-3.0648,-3.0635,-3.0702,-3.0768,-3.0568,-3.0595,-3.0742,-3.0568,-3.0528,-3.0608,-3.0528,-2.8364,-2.4675,-2.3467,-2.1301,-1.8454,-1.7181,-1.6634,-1.643,-1.5692,-1.5181,-1.5181,-1.5181,-1.5255,-1.5391,-1.5411,-1.554,-1.5778,-1.5798,-1.5723,-1.5574,-1.552,-1.5425,-1.5269,-1.5208,-1.5181,-1.5181,-1.5181,-1.5181,-1.5181,-1.5181,-1.5181,-1.5181,-1.5181,-1.5181,-1.5181,-1.514,-1.5065,-1.4984,-1.4916,-1.4848,-1.478,-1.4787,-1.4787,-1.4808,-1.4957,-1.5072,-1.5018,-1.5181,-1.535,-1.5432,-1.5574,-1.5744,-1.525,-1.2139,-0.7315,-0.3018,0.0,0.0,0.0,0.0,0.0,0.0,0.0,0.0,0.0,0.0,0.0,0.0,0.0,0.0,0.0,0.0,0.0,0.0,0.0,0.0,0.0,0.0,0.0,0.0,0.0,0.0,0.0,0.0,0.0,0.0,0.0,0.0,-2.9913,-2.9913,-2.9913,-2.998,-3.0047,-3.006,-3.0114,-3.0207,-3.0408,-3.0501,-3.0555,-3.0808,-3.0929,-3.0982,-3.1236,-3.1276,-3.1076,-3.0982,-3.0982,-3.1049,-3.0875,-3.0425,-2.9878,-2.9644,-2.9605,-2.9682,-2.9695,-2.7404,-2.3598,-2.2459,-1.9801,-1.598,-1.5554,-1.5486,-1.5459,-1.533,-1.5255,-1.5255,-1.5215,-1.5235,-1.533,-1.5337,-1.5384,-1.5472,-1.5493,-1.5472,-1.5411,-1.5411,-1.5343,-1.5208,-1.5181,-1.5181,-1.5181,-1.5181,-1.5181,-1.5181,-1.5181,-1.5181,-1.5181,-1.5181,-1.5181,-1.5181,-1.5181,-1.5133,-1.5052,-1.5038,-1.4984,-1.4916,-1.4936,-1.4957,-1.5004,-1.5187,-1.5248,-1.512,-1.5303,-1.5499,-1.5554,-1.573,-1.4956,-1.3034,-1.0301,-0.5829,0.0,0.0,0.0,0.0,0.0,0.0,0.0,0.0,0.0,0.0,0.0,0.0,0.0,0.0,0.0,0.0,0.0,0.0,0.0,0.0,0.0,0.0,0.0,0.0,0.0,0.0,0.0,0.0,0.0,0.0,0.0,0.0,0.0,-2.994,-2.9967,-2.994,-3.0127,-3.0354,-3.0368,-3.0515,-3.0715,-3.0782,-3.0795,-3.0835,-3.1102,-3.1223,-3.1289,-3.1503,-3.1637,-3.1543,-3.133,-3.1356,-3.153,-3.1089,-2.9794,-2.8153,-2.7652,-2.7569,-2.7677,-2.7392,-2.5945,-2.3451,-2.1247,-1.8656,-1.6314,-1.571,-1.5642,-1.5642,-1.5493,-1.5411,-1.5384,-1.5282,-1.5208,-1.5187,-1.5208,-1.5208,-1.5215,-1.5215,-1.5276,-1.5391,-1.5398,-1.5323,-1.5201,-1.5181,-1.5181,-1.5181,-1.5181,-1.5181,-1.5181,-1.5181,-1.5181,-1.5181,-1.5181,-1.5181,-1.5181,-1.5181,-1.5174,-1.516,-1.516,-1.5153,-1.5153,-1.5262,-1.5371,-1.5377,-1.5513,-1.5506,-1.5276,-1.5472,-1.5683,-1.5791,-1.5845,-1.3917,-0.9815,-0.8038,-0.5733,0.0,0.0,0.0,0.0,0.0,0.0,0.0,0.0,0.0,0.0,0.0,0.0,0.0,0.0,0.0,0.0,0.0,0.0,0.0,0.0,0.0,0.0,0.0,0.0,0.0,0.0,0.0,0.0,0.0,0.0,0.0,0.0,0.0,-3.0341,-3.0515,-3.0515,-3.0568,-3.0648,-3.0662,-3.0715,-3.0822,-3.0996,-3.1089,-3.1142,-3.1396,-3.153,-3.1543,-3.1637,-3.1677,-3.1664,-3.157,-3.1583,-3.161,-3.1463,-3.0114,-2.8105,-2.7604,-2.758,-2.7256,-2.5805,-2.4552,-2.3382,-2.1146,-1.8635,-1.6468,-1.5859,-1.5791,-1.5778,-1.5642,-1.5567,-1.5554,-1.5418,-1.5343,-1.533,-1.5235,-1.5181,-1.5181,-1.5181,-1.5208,-1.5248,-1.5255,-1.5228,-1.5181,-1.5181,-1.5181,-1.5181,-1.5181,-1.5181,-1.5181,-1.5181,-1.5181,-1.5181,-1.5181,-1.5181,-1.5181,-1.5181,-1.5181,-1.5181,-1.5181,-1.5181,-1.5194,-1.5316,-1.5411,-1.5452,-1.5642,-1.5689,-1.552,-1.5669,-1.5805,-1.5866,-1.5947,-1.3509,-0.9232,-0.8038,-0.5633,0.0,0.0,0.0,0.0,0.0,0.0,0.0,0.0,0.0,0.0,0.0,0.0,0.0,0.0,0.0,0.0,0.0,0.0,0.0,0.0,0.0,0.0,0.0,0.0,0.0,0.0,0.0,0.0,0.0,0.0,0.0,0.0,0.0,-3.0621,-3.0782,-3.0795,-3.0862,-3.0942,-3.0955,-3.1022,-3.1129,-3.1316,-3.1383,-3.1436,-3.1583,-3.1677,-3.1677,-3.1677,-3.1677,-3.1569,-3.0795,-3.021,-3.0496,-3.1474,-3.021,-2.8068,-2.778,-2.6505,-2.5335,-2.5238,-2.4258,-2.2419,-2.0755,-1.8714,-1.6453,-1.5981,-1.594,-1.5927,-1.5798,-1.5716,-1.5696,-1.5574,-1.5493,-1.5466,-1.5343,-1.5269,-1.5262,-1.5215,-1.5181,-1.5181,-1.5181,-1.5181,-1.5181,-1.5181,-1.5181,-1.5181,-1.5181,-1.5181,-1.5181,-1.5181,-1.5181,-1.5181,-1.5181,-1.5181,-1.5181,-1.5181,-1.5181,-1.5181,-1.5181,-1.5181,-1.5201,-1.5377,-1.5499,-1.554,-1.5764,-1.5872,-1.5818,-1.5879,-1.5934,-1.5954,-1.6022,-1.3655,-0.9644,-0.8038,-0.5231,0.0,0.0,0.0,0.0,0.0,0.0,0.0,0.0,0.0,0.0,0.0,0.0,0.0,0.0,0.0,0.0,0.0,0.0,0.0,0.0,0.0,0.0,0.0,0.0,0.0,0.0,0.0,0.0,0.0,0.0,0.0,0.0,0.0,-3.0835,-3.0835,-3.0849,-3.1022,-3.1236,-3.1249,-3.1383,-3.161,-3.165,-3.1637,-3.165,-3.1664,-3.1677,-3.1677,-3.1677,-3.1569,-3.108,-2.9243,-2.8164,-2.8656,-2.9625,-2.9326,-2.7972,-2.6902,-2.4657,-2.2409,-2.456,-2.3977,-2.0568,-1.9683,-1.8517,-1.6374,-1.6069,-1.6076,-1.6035,-1.5927,-1.5866,-1.5852,-1.5723,-1.5649,-1.5635,-1.5479,-1.5398,-1.5391,-1.5262,-1.5181,-1.5181,-1.5181,-1.5181,-1.5181,-1.5181,-1.5181,-1.5181,-1.5181,-1.5181,-1.5181,-1.5181,-1.5181,-1.5181,-1.5181,-1.5181,-1.5181,-1.5181,-1.5181,-1.5181,-1.5181,-1.5181,-1.5201,-1.5445,-1.5622,-1.5669,-1.5886,-1.6035,-1.6069,-1.6049,-1.6056,-1.6076,-1.6083,-1.3561,-0.9544,-0.7737,-0.5934,0.0,0.0,0.0,0.0,0.0,0.0,0.0,0.0,0.0,0.0,0.0,0.0,0.0,0.0,0.0,0.0,0.0,0.0,0.0,0.0,0.0,0.0,0.0,0.0,0.0,0.0,0.0,0.0,0.0,0.0,0.0,0.0,0.0,-3.1236,-3.1436,-3.1436,-3.149,-3.1557,-3.1557,-3.1583,-3.1664,-3.1677,-3.1677,-3.1677,-3.1677,-3.1677,-3.1677,-3.1677,-3.07,-2.9039,-2.8068,-2.778,-2.7588,-2.6312,-2.6999,-2.6602,-2.388,-2.2507,-2.2321,-2.0764,-1.9495,-1.9782,-1.8129,-1.6864,-1.6175,-1.6083,-1.6083,-1.6069,-1.6035,-1.6022,-1.6001,-1.5872,-1.5798,-1.575,-1.554,-1.5418,-1.5398,-1.5262,-1.5187,-1.5181,-1.5181,-1.5181,-1.5181,-1.5181,-1.5181,-1.5181,-1.5181,-1.5181,-1.5181,-1.5181,-1.5181,-1.5181,-1.5181,-1.5181,-1.5181,-1.5181,-1.5181,-1.5181,-1.5181,-1.5181,-1.5235,-1.5452,-1.5635,-1.5683,-1.5906,-1.6056,-1.6083,-1.6083,-1.6083,-1.6083,-1.5977,-1.3966,-0.9144,-0.8138,-0.5334,0.0,0.0,0.0,0.0,0.0,0.0,0.0,0.0,0.0,0.0,0.0,0.0,0.0,0.0,0.0,0.0,0.0,0.0,0.0,0.0,0.0,0.0,0.0,0.0,0.0,0.0,0.0,0.0,0.0,0.0,0.0,0.0,0.0,-3.1517,-3.1677,-3.1677,-3.1677,-3.1677,-3.1677,-3.1677,-3.1677,-3.1677,-3.1677,-3.1677,-3.1677,-3.1677,-3.1677,-3.1677,-3.021,-2.7972,-2.6613,-2.5529,-2.4269,-2.2994,-2.3199,-2.3686,-2.193,-2.1441,-2.0371,-1.8714,-1.8129,-1.8031,-1.6765,-1.6175,-1.6083,-1.6083,-1.6083,-1.6083,-1.6083,-1.6083,-1.6062,-1.5988,-1.5927,-1.5839,-1.5628,-1.5486,-1.5404,-1.5269,-1.5181,-1.5181,-1.5181,-1.5181,-1.5181,-1.5181,-1.5181,-1.5181,-1.5181,-1.5181,-1.5181,-1.5181,-1.5181,-1.5181,-1.5181,-1.5181,-1.5181,-1.5181,-1.5181,-1.5181,-1.5181,-1.5181,-1.5208,-1.5466,-1.5608,-1.5689,-1.5906,-1.6056,-1.6083,-1.6083,-1.6083,-1.6083,-1.6083,-1.4165,-1.0949,-0.8539,-0.6537,-0.2117,-0.0807,0.0,0.0,0.0,0.0,0.0,0.0,0.0,0.0,0.0,0.0,0.0,0.0,0.0,0.0,0.0,0.0,0.0,0.0,0.0,0.0,0.0,0.0,0.0,0.0,0.0,0.0,0.0,0.0,0.0,0.0,0.0,-3.1677,-3.1677,-3.1677,-3.1677,-3.1677,-3.1677,-3.1677,-3.1677,-3.1677,-3.1677,-3.1677,-3.1677,-3.1677,-3.1677,-3.1677,-3.0115,-2.7191,-2.5141,-2.2321,-2.0853,-1.9978,-2.047,-2.0175,-2.2019,-2.0666,-1.8228,-1.9002,-1.7932,-1.6864,-1.6175,-1.6083,-1.6083,-1.6083,-1.6083,-1.6083,-1.6083,-1.6083,-1.6083,-1.6069,-1.6008,-1.5886,-1.5716,-1.5567,-1.5452,-1.5269,-1.5187,-1.5181,-1.5181,-1.5181,-1.5181,-1.5181,-1.5181,-1.5181,-1.5181,-1.5181,-1.5181,-1.5181,-1.5181,-1.5181,-1.5181,-1.5181,-1.5181,-1.5181,-1.5181,-1.5181,-1.5181,-1.5181,-1.5181,-1.5445,-1.5594,-1.5716,-1.5927,-1.6056,-1.6083,-1.6083,-1.6083,-1.6083,-1.6083,-1.5068,-1.2447,-0.964,-0.7035,-0.4328,0.0,0.0,0.0,0.0,0.0,0.0,0.0,0.0,0.0,0.0,0.0,0.0,0.0,0.0,0.0,0.0,0.0,0.0,0.0,0.0,0.0,0.0,0.0,0.0,0.0,0.0,0.0,0.0,0.0,0.0,0.0,0.0,-3.1677,-3.1677,-3.1677,-3.1677,-3.1677,-3.1677,-3.1677,-3.1677,-3.1677,-3.1677,-3.1677,-3.1677,-3.1677,-3.1677,-3.1474,-2.923,-2.5443,-2.3977,-2.1539,-1.7543,-1.9199,-1.8616,-1.7932,-1.9683,-2.0077,-1.8616,-1.7345,-1.6665,-1.6175,-1.6083,-1.6083,-1.6083,-1.6083,-1.6083,-1.6083,-1.6083,-1.6083,-1.6083,-1.6083,-1.6062,-1.5967,-1.5764,-1.5608,-1.5527,-1.5316,-1.5194,-1.5181,-1.5181,-1.5181,-1.5181,-1.5181,-1.5181,-1.5181,-1.5181,-1.5181,-1.5181,-1.5181,-1.5181,-1.5181,-1.5181,-1.5181,-1.5181,-1.5181,-1.5181,-1.5181,-1.5181,-1.5181,-1.5208,-1.5357,-1.556,-1.5771,-1.5967,-1.6062,-1.6083,-1.6083,-1.6083,-1.6083,-1.6083,-1.4869,-1.2353,-0.9644,-0.6935,-0.4326,-0.1715,0.0,0.0,0.0,0.0,0.0,0.0,0.0,0.0,0.0,0.0,0.0,0.0,0.0,0.0,0.0,0.0,0.0,0.0,0.0,0.0,0.0,0.0,0.0,0.0,0.0,0.0,0.0,0.0,0.0,0.0,0.0,-3.0592,-3.1664,-3.1677,-3.1677,-3.1677,-3.1677,-3.1677,-3.1677,-3.1677,-3.1677,-3.1677,-3.1677,-3.1677,-3.1677,-3.1569,-2.9421,-2.5819,-2.3004,-1.9987,-1.7055,-1.7543,-1.7353,-1.6665,-1.7353,-1.8129,-1.7932,-1.6857,-1.6175,-1.6083,-1.6083,-1.6083,-1.6083,-1.6083,-1.6083,-1.6083,-1.6083,-1.6083,-1.6083,-1.6076,-1.6056,-1.594,-1.5764,-1.5533,-1.5445,-1.5269,-1.5181,-1.5181,-1.5181,-1.5181,-1.5181,-1.5181,-1.5181,-1.5181,-1.5181,-1.5181,-1.5181,-1.5181,-1.5181,-1.5181,-1.5181,-1.5181,-1.5181,-1.5181,-1.5181,-1.5181,-1.5181,-1.5181,-1.5215,-1.5337,-1.5527,-1.5818,-1.5988,-1.6069,-1.6083,-1.6076,-1.6076,-1.6076,-1.6076,-1.5068,-1.2353,-0.9644,-0.7035,-0.4328,-0.1715,0.0,0.0,0.0,0.0,0.0,0.0,0.0,0.0,0.0,0.0,0.0,0.0,0.0,0.0,0.0,0.0,0.0,0.0,0.0,0.0,0.0,0.0,0.0,0.0,0.0,0.0,0.0,0.0,0.0,0.0,0.0,-2.9375,-3.1677,-3.1677,-3.1677,-3.1677,-3.1677,-3.1677,-3.1677,-3.1677,-3.1677,-3.1677,-3.1677,-3.1677,-3.1677,-3.1677,-3.0115,-2.6312,-2.1832,-1.784,-1.6474,-1.6374,-1.6374,-1.6175,-1.6374,-1.6474,-1.6182,-1.6182,-1.6083,-1.6083,-1.6083,-1.6083,-1.6083,-1.6083,-1.6083,-1.6083,-1.6083,-1.6083,-1.6083,-1.6076,-1.6035,-1.592,-1.5764,-1.5554,-1.5323,-1.5215,-1.5181,-1.5181,-1.5181,-1.5181,-1.5181,-1.5181,-1.5181,-1.5181,-1.5181,-1.5181,-1.5181,-1.5181,-1.5181,-1.5181,-1.5181,-1.5181,-1.5181,-1.5181,-1.5181,-1.5181,-1.5181,-1.5181,-1.5228,-1.533,-1.5513,-1.5784,-1.5934,-1.6015,-1.6035,-1.6042,-1.6042,-1.6049,-1.6049,-1.4725,-1.2353,-0.9644,-0.7035,-0.4328,0.0,0.0,0.0,0.0,0.0,0.0,0.0,0.0,0.0,0.0,0.0,0.0,0.0,0.0,0.0,0.0,0.0,0.0,0.0,0.0,0.0,0.0,0.0,0.0,0.0,0.0,0.0,0.0,0.0,0.0,0.0,0.0,-2.9428,-3.1677,-3.1677,-3.1677,-3.1677,-3.1677,-3.1677,-3.1677,-3.1677,-3.1677,-3.1677,-3.1677,-3.1677,-3.1677,-3.1664,-2.9039,-2.4269,-1.979,-1.6963,-1.6182,-1.6083,-1.6083,-1.6083,-1.6083,-1.6083,-1.6083,-1.6083,-1.6083,-1.6083,-1.6083,-1.6083,-1.6083,-1.6083,-1.6083,-1.6083,-1.6083,-1.6083,-1.6083,-1.6083,-1.6049,-1.6001,-1.5866,-1.5655,-1.5377,-1.5262,-1.5201,-1.5181,-1.5181,-1.5181,-1.5181,-1.5181,-1.5181,-1.5181,-1.5181,-1.5181,-1.5181,-1.5181,-1.5181,-1.5181,-1.5181,-1.5181,-1.5181,-1.5181,-1.5181,-1.5181,-1.5181,-1.5181,-1.5221,-1.5323,-1.5493,-1.5655,-1.5811,-1.5879,-1.5893,-1.5893,-1.59,-1.59,-1.5815,-1.4663,-1.1833,-0.934,-0.6737,-0.3726,0.0,0.0,0.0,0.0,0.0,0.0,0.0,0.0,0.0,0.0,0.0,0.0,0.0,0.0,0.0,0.0,0.0,0.0,0.0,0.0,0.0,0.0,0.0,0.0,0.0,0.0,0.0,0.0,0.0,0.0,0.0,0.0,-2.8175,-3.1582,-3.1677,-3.1677,-3.1677,-3.1677,-3.1677,-3.1677,-3.1677,-3.1677,-3.1677,-3.1677,-3.1677,-3.1379,-3.0115,-2.6795,-2.2126,-1.9692,-1.7353,-1.6573,-1.6083,-1.6083,-1.6083,-1.6083,-1.6083,-1.6083,-1.6083,-1.6083,-1.6083,-1.6083,-1.6083,-1.6083,-1.6083,-1.6083,-1.6083,-1.6083,-1.6083,-1.6083,-1.6083,-1.6083,-1.6069,-1.5927,-1.5696,-1.5466,-1.5337,-1.5269,-1.5187,-1.5181,-1.5181,-1.5181,-1.5181,-1.5181,-1.5181,-1.5181,-1.5181,-1.5181,-1.5181,-1.5181,-1.5181,-1.5181,-1.5181,-1.5181,-1.5181,-1.5181,-1.5181,-1.5181,-1.5181,-1.5215,-1.5323,-1.5472,-1.5628,-1.5703,-1.5771,-1.5825,-1.5791,-1.5784,-1.5825,-1.5845,-1.3731,-1.1016,-0.8836,-0.6034,-0.2319,0.0,0.0,0.0,0.0,0.0,0.0,0.0,0.0,0.0,0.0,0.0,0.0,0.0,0.0,0.0,0.0,0.0,0.0,0.0,0.0,0.0,0.0,0.0,0.0,0.0,0.0,0.0,0.0,0.0,0.0,0.0,0.0,-2.7418,-3.1677,-3.1677,-3.1677,-3.1677,-3.1677,-3.1677,-3.1677,-3.1677,-3.1677,-3.1677,-3.1677,-3.1379,-3.0102,-2.7384,-2.3783,-1.9978,-1.9495,-1.7741,-1.6474,-1.6083,-1.6083,-1.6083,-1.6083,-1.6083,-1.6083,-1.6083,-1.6083,-1.6083,-1.6083,-1.6083,-1.6083,-1.6083,-1.6083,-1.6083,-1.6083,-1.6083,-1.6083,-1.6083,-1.6083,-1.6042,-1.59,-1.571,-1.5459,-1.5398,-1.5289,-1.5194,-1.5181,-1.5181,-1.5181,-1.5181,-1.5181,-1.5181,-1.5181,-1.5181,-1.5181,-1.5181,-1.5181,-1.5181,-1.5181,-1.5181,-1.5181,-1.5181,-1.5181,-1.5181,-1.5181,-1.5181,-1.5208,-1.5276,-1.5445,-1.5588,-1.5608,-1.5669,-1.573,-1.5683,-1.5532,-1.5411,-1.4677,-1.2377,-1.0063,-0.8218,-0.5231,-0.1513,0.0,0.0,0.0,0.0,0.0,0.0,0.0,0.0,0.0,0.0,0.0,0.0,0.0,0.0,0.0,0.0,0.0,0.0,0.0,0.0,0.0,0.0,0.0,0.0,0.0,0.0,0.0,0.0,0.0,0.0,0.0,0.0,-2.9151,-3.1677,-3.1677,-3.1677,-3.1677,-3.1677,-3.1677,-3.1677,-3.1677,-3.1677,-3.1677,-3.1569,-3.0401,-2.7672,-2.3286,-2.0853,-1.9396,-1.7833,-1.6765,-1.6182,-1.6083,-1.6083,-1.6083,-1.6083,-1.6083,-1.6083,-1.6083,-1.6083,-1.6083,-1.6083,-1.6083,-1.6083,-1.6083,-1.6083,-1.6083,-1.6083,-1.6083,-1.6083,-1.6083,-1.6083,-1.6035,-1.5825,-1.5683,-1.5554,-1.5384,-1.5221,-1.5194,-1.5181,-1.5181,-1.5181,-1.5181,-1.5181,-1.5181,-1.5181,-1.5181,-1.5181,-1.5181,-1.5181,-1.5181,-1.5181,-1.5181,-1.5181,-1.5181,-1.5181,-1.5181,-1.5181,-1.5181,-1.5181,-1.5215,-1.5357,-1.5547,-1.5506,-1.554,-1.5554,-1.5547,-1.5479,-1.5314,-1.4802,-1.2319,-0.9241,-0.7405,-0.4222,0.0,0.0,0.0,0.0,0.0,0.0,0.0,0.0,0.0,0.0,0.0,0.0,0.0,0.0,0.0,0.0,0.0,0.0,0.0,0.0,0.0,0.0,0.0,0.0,0.0,0.0,0.0,0.0,0.0,0.0,0.0,0.0,0.0,-3.0708,-3.1677,-3.1677,-3.1677,-3.1677,-3.1677,-3.1677,-3.1677,-3.1677,-3.1677,-3.1677,-3.1677,-2.9517,-2.5335,-2.1539,-1.9199,-1.784,-1.6573,-1.6083,-1.6083,-1.6083,-1.6083,-1.6083,-1.6083,-1.6083,-1.6083,-1.6083,-1.6083,-1.6083,-1.6083,-1.6083,-1.6083,-1.6083,-1.6083,-1.6083,-1.6083,-1.6083,-1.6083,-1.6083,-1.6083,-1.6029,-1.5879,-1.5716,-1.5628,-1.5411,-1.5276,-1.5201,-1.5181,-1.5181,-1.5181,-1.5181,-1.5181,-1.5181,-1.5181,-1.5181,-1.5181,-1.5181,-1.5181,-1.5181,-1.5181,-1.5181,-1.5181,-1.5181,-1.5181,-1.5181,-1.5181,-1.5181,-1.5181,-1.5181,-1.533,-1.5506,-1.5411,-1.5472,-1.5486,-1.5425,-1.5404,-1.5221,-1.4681,-1.3051,-0.9797,-0.6492,-0.3514,0.0,0.0,0.0,0.0,0.0,0.0,0.0,0.0,0.0,0.0,0.0,0.0,0.0,0.0,0.0,0.0,0.0,0.0,0.0,0.0,0.0,0.0,0.0,0.0,0.0,0.0,0.0,0.0,0.0,0.0,0.0,0.0,0.0,-3.1677,-3.1677,-3.1677,-3.1677,-3.1677,-3.1677,-3.1677,-3.1677,-3.1677,-3.1677,-3.1284,-3.0198,-2.6987,-2.3199,-2.0175,-1.784,-1.6275,-1.6083,-1.6083,-1.6083,-1.6083,-1.6083,-1.6083,-1.6083,-1.6083,-1.6083,-1.6083,-1.6083,-1.6083,-1.6083,-1.6083,-1.6083,-1.6083,-1.6083,-1.6083,-1.6083,-1.6083,-1.6083,-1.6083,-1.6056,-1.5995,-1.5866,-1.5716,-1.5581,-1.5432,-1.5303,-1.5201,-1.5181,-1.5181,-1.5181,-1.5181,-1.5181,-1.5181,-1.5181,-1.5181,-1.5181,-1.5181,-1.5181,-1.5181,-1.5181,-1.5181,-1.5181,-1.5181,-1.5181,-1.5181,-1.5181,-1.5181,-1.5181,-1.5242,-1.5371,-1.5466,-1.5364,-1.5404,-1.5411,-1.535,-1.5337,-1.5167,-1.436,-1.2612,-0.9158,-0.6065,-0.3819,0.0,0.0,0.0,0.0,0.0,0.0,0.0,0.0,0.0,0.0,0.0,0.0,0.0,0.0,0.0,0.0,0.0,0.0,0.0,0.0,0.0,0.0,0.0,0.0,0.0,0.0,0.0,0.0,0.0,0.0,0.0,0.0,0.0,-3.1677,-3.1677,-3.1677,-3.1677,-3.1677,-3.1677,-3.1677,-3.1677,-3.1677,-3.1569,-3.0687,-2.6987,-2.3578,-2.0371,-1.8228,-1.6566,-1.6083,-1.6083,-1.6083,-1.6083,-1.6083,-1.6083,-1.6083,-1.6083,-1.6083,-1.6083,-1.6083,-1.6083,-1.6069,-1.6049,-1.6062,-1.6083,-1.6083,-1.6083,-1.6083,-1.6083,-1.6083,-1.6076,-1.6062,-1.5988,-1.5879,-1.5737,-1.5588,-1.5445,-1.5296,-1.5187,-1.5181,-1.5181,-1.5181,-1.5181,-1.5181,-1.5181,-1.5181,-1.5181,-1.5181,-1.5181,-1.5181,-1.5181,-1.5181,-1.5181,-1.5181,-1.5181,-1.5181,-1.5181,-1.5181,-1.5181,-1.5181,-1.5194,-1.5276,-1.5371,-1.5425,-1.5411,-1.5404,-1.5377,-1.5323,-1.5255,-1.4747,-1.3668,-1.1722,-0.834,-0.5846,-0.4013,0.0,0.0,0.0,0.0,0.0,0.0,0.0,0.0,0.0,0.0,0.0,0.0,0.0,0.0,0.0,0.0,0.0,0.0,0.0,0.0,0.0,0.0,0.0,0.0,0.0,0.0,0.0,0.0,0.0,0.0,0.0,0.0,0.0,-3.1677,-3.1677,-3.1677,-3.1677,-3.1677,-3.1677,-3.1677,-3.1677,-3.1677,-3.07,-2.9039,-2.5529,-2.2409,-1.9782,-1.7452,-1.6083,-1.6083,-1.6083,-1.6175,-1.6083,-1.6083,-1.6083,-1.6083,-1.6275,-1.6083,-1.6083,-1.6083,-1.6083,-1.6076,-1.5995,-1.6022,-1.6049,-1.6069,-1.6083,-1.6083,-1.6083,-1.6083,-1.6049,-1.5995,-1.59,-1.5832,-1.5622,-1.5472,-1.5411,-1.5262,-1.5194,-1.5181,-1.5181,-1.5181,-1.5181,-1.5181,-1.5181,-1.5181,-1.5181,-1.5181,-1.5181,-1.5181,-1.5181,-1.5181,-1.5181,-1.5181,-1.5181,-1.5181,-1.5181,-1.5181,-1.5181,-1.5181,-1.5228,-1.5316,-1.5404,-1.5404,-1.5411,-1.5404,-1.5371,-1.5303,-1.5215,-1.4796,-1.3818,-1.1406,-0.8326,-0.6643,-0.5124,0.0,0.0,0.0,0.0,0.0,0.0,0.0,0.0,0.0,0.0,0.0,0.0,0.0,0.0,0.0,0.0,0.0,0.0,0.0,0.0,0.0,0.0,0.0,0.0,0.0,0.0,0.0,0.0,0.0,0.0,0.0,0.0,0.0,-3.1677,-3.1677,-3.1677,-3.1677,-3.1677,-3.1677,-3.1677,-3.1677,-3.1677,-2.9625,-2.6505,-2.387,-2.1245,-1.8813,-1.7154,-1.6083,-1.6083,-1.6175,-1.6765,-1.7154,-1.7444,-1.7253,-1.7253,-1.7253,-1.7154,-1.6467,-1.6029,-1.6015,-1.6069,-1.5886,-1.5934,-1.6015,-1.6042,-1.6029,-1.6083,-1.6083,-1.6083,-1.6042,-1.594,-1.5825,-1.5764,-1.556,-1.5371,-1.5343,-1.5228,-1.5187,-1.5181,-1.5181,-1.5181,-1.5181,-1.5181,-1.5181,-1.5181,-1.5181,-1.5181,-1.5181,-1.5181,-1.5181,-1.5181,-1.5181,-1.5181,-1.5181,-1.5181,-1.5181,-1.5181,-1.5181,-1.5181,-1.5201,-1.5316,-1.5398,-1.5377,-1.5364,-1.535,-1.5316,-1.5255,-1.5187,-1.5248,-1.452,-1.1442,-0.8506,-0.7132,0.0,0.0,0.0,0.0,0.0,0.0,0.0,0.0,0.0,0.0,0.0,0.0,0.0,0.0,0.0,0.0,0.0,0.0,0.0,0.0,0.0,0.0,0.0,0.0,0.0,0.0,0.0,0.0,0.0,0.0,0.0,0.0,0.0,0.0,-3.1677,-3.1677,-3.1677,-3.1677,-3.1677,-3.1677,-3.1677,-3.1677,-3.1379,-2.8739,-2.4366,-2.1539,-1.9002,-1.6963,-1.6175,-1.6182,-1.6083,-1.6182,-1.7154,-1.8912,-1.8517,-1.9298,-1.9396,-1.901,-1.7444,-1.6432,-1.5974,-1.5961,-1.6056,-1.5805,-1.5845,-1.5967,-1.5981,-1.5974,-1.6069,-1.6083,-1.6083,-1.6056,-1.5913,-1.5778,-1.5628,-1.5466,-1.5323,-1.5242,-1.5201,-1.5181,-1.514,-1.514,-1.514,-1.514,-1.514,-1.5153,-1.5181,-1.5181,-1.5181,-1.5181,-1.5181,-1.5181,-1.5181,-1.5181,-1.5181,-1.5181,-1.5181,-1.5181,-1.5181,-1.5181,-1.5181,-1.5194,-1.5316,-1.5323,-1.5309,-1.5309,-1.5303,-1.5255,-1.5201,-1.5194,-1.5248,-1.5242,-1.2283,-0.8888,-0.759,0.0,0.0,0.0,0.0,0.0,0.0,0.0,0.0,0.0,0.0,0.0,0.0,0.0,0.0,0.0,0.0,0.0,0.0,0.0,0.0,0.0,0.0,0.0,0.0,0.0,0.0,0.0,0.0,0.0,0.0,0.0,0.0,0.0,0.0,-3.1677,-3.1677,-3.1677,-3.1677,-3.1677,-3.1677,-3.1677,-3.1379,-2.9816,-2.7095,-2.387,-2.1147,-1.8517,-1.6765,-1.6275,-1.6374,-1.6374,-1.6182,-1.7543,-1.9782,-1.8912,-1.8813,-1.9101,-1.8714,-1.7154,-1.6333,-1.5947,-1.5859,-1.592,-1.5696,-1.5744,-1.5872,-1.594,-1.6035,-1.6069,-1.6069,-1.6049,-1.5927,-1.5784,-1.5642,-1.5493,-1.535,-1.5235,-1.5174,-1.5167,-1.5126,-1.5045,-1.5038,-1.5038,-1.5045,-1.5045,-1.5092,-1.5153,-1.5174,-1.5181,-1.5181,-1.5181,-1.5181,-1.5181,-1.5181,-1.5181,-1.5181,-1.5181,-1.5181,-1.5181,-1.5181,-1.5181,-1.5208,-1.5309,-1.5296,-1.5248,-1.5337,-1.5337,-1.5235,-1.5181,-1.5181,-1.5228,-1.5248,-1.3531,-0.976,-0.739,-0.478,0.0,0.0,0.0,0.0,0.0,0.0,0.0,0.0,0.0,0.0,0.0,0.0,0.0,0.0,0.0,0.0,0.0,0.0,0.0,0.0,0.0,0.0,0.0,0.0,0.0,0.0,0.0,0.0,0.0,0.0,0.0,0.0,0.0,-3.1677,-3.1677,-3.1677,-3.1175,-3.0401,-3.0306,-2.9911,-2.8644,-2.6216,-2.4074,-2.2312,-2.0657,-1.9199,-1.784,-1.7444,-1.8327,-1.8525,-1.784,-1.9987,-2.1832,-2.0085,-2.0568,-2.0371,-1.8616,-1.7452,-1.6517,-1.5906,-1.5811,-1.5927,-1.5622,-1.5574,-1.5689,-1.5852,-1.5872,-1.5913,-1.5927,-1.5954,-1.5825,-1.5689,-1.552,-1.5398,-1.5282,-1.516,-1.512,-1.5079,-1.5038,-1.4936,-1.4896,-1.4896,-1.4903,-1.4943,-1.5004,-1.5092,-1.5153,-1.5167,-1.5181,-1.5181,-1.5181,-1.5181,-1.5181,-1.5181,-1.5181,-1.5181,-1.5181,-1.5181,-1.5181,-1.5181,-1.5215,-1.5296,-1.5262,-1.5228,-1.5323,-1.5289,-1.5181,-1.5181,-1.5181,-1.5033,-1.495,-1.2859,-0.9176,-0.6119,-0.3392,0.0,0.0,0.0,0.0,0.0,0.0,0.0,0.0,0.0,0.0,0.0,0.0,0.0,0.0,0.0,0.0,0.0,0.0,0.0,0.0,0.0,0.0,0.0,0.0,0.0,0.0,0.0,0.0,0.0,0.0,0.0,0.0,0.0,-3.1677,-3.1677,-3.1677,-3.021,-2.8068,-2.7576,-2.6119,-2.388,-2.1343,-2.0273,-2.0068,-2.0166,-1.9683,-1.988,-1.9978,-2.1147,-2.2419,-2.0853,-2.2809,-2.4657,-2.2809,-2.3101,-2.193,-2.0175,-1.7741,-1.6468,-1.5852,-1.5778,-1.5961,-1.5574,-1.5384,-1.5472,-1.5655,-1.5703,-1.5744,-1.573,-1.5757,-1.5642,-1.5567,-1.5411,-1.5296,-1.5215,-1.5099,-1.5031,-1.497,-1.4882,-1.4787,-1.4733,-1.4733,-1.4774,-1.4848,-1.493,-1.5011,-1.5099,-1.5147,-1.5181,-1.5181,-1.5181,-1.5181,-1.5181,-1.5181,-1.5181,-1.5181,-1.5181,-1.5181,-1.5181,-1.5181,-1.5181,-1.5221,-1.5208,-1.5201,-1.5208,-1.5208,-1.5181,-1.5181,-1.5013,-1.4757,-1.3418,-1.0931,-0.7918,-0.5043,0.0,0.0,0.0,0.0,0.0,0.0,0.0,0.0,0.0,0.0,0.0,0.0,0.0,0.0,0.0,0.0,0.0,0.0,0.0,0.0,0.0,0.0,0.0,0.0,0.0,0.0,0.0,0.0,0.0,0.0,0.0,0.0,0.0,0.0,-3.1677,-3.1677,-3.1677,-3.021,-2.7384,-2.3783,-2.2799,-2.3491,-2.1147,-1.997,-1.997,-1.997,-2.0265,-2.0068,-2.193,-2.3199,-2.3491,-2.3394,-2.3588,-2.388,-2.3189,-2.1823,-2.0273,-1.8813,-1.6963,-1.6271,-1.5839,-1.5696,-1.571,-1.5418,-1.5411,-1.5574,-1.5567,-1.5601,-1.5554,-1.5466,-1.5425,-1.5391,-1.5357,-1.5262,-1.5153,-1.5059,-1.4977,-1.4936,-1.4841,-1.4733,-1.4618,-1.4584,-1.4577,-1.4604,-1.4624,-1.4713,-1.4977,-1.5018,-1.5052,-1.5174,-1.5181,-1.5181,-1.5181,-1.5181,-1.5181,-1.5181,-1.5181,-1.5181,-1.5181,-1.5181,-1.5181,-1.5181,-1.5181,-1.5181,-1.5181,-1.5181,-1.5181,-1.5181,-1.5194,-1.5127,-1.4506,-1.2494,-0.9902,-0.6404,-0.3589,0.0,0.0,0.0,0.0,0.0,0.0,0.0,0.0,0.0,0.0,0.0,0.0,0.0,0.0,0.0,0.0,0.0,0.0,0.0,0.0,0.0,0.0,0.0,0.0,0.0,0.0,0.0,0.0,0.0,0.0,0.0,0.0,0.0,0.0,-3.1677,-3.1569,-3.0592,-2.8056,-2.4366,-2.0273,-1.9495,-2.0371,-1.9101,-1.8517,-1.8714,-2.0657,-2.1539,-2.2019,-2.4269,-2.6023,-2.718,-2.6012,-2.5722,-2.5141,-2.2614,-2.1343,-1.9585,-1.7444,-1.6474,-1.5974,-1.5832,-1.5683,-1.5628,-1.5506,-1.5459,-1.5418,-1.5459,-1.5466,-1.5391,-1.5242,-1.5086,-1.5072,-1.5052,-1.5018,-1.495,-1.4875,-1.4848,-1.4794,-1.4692,-1.4577,-1.4455,-1.4434,-1.4434,-1.4448,-1.4462,-1.4584,-1.4821,-1.4882,-1.5038,-1.5147,-1.5181,-1.5181,-1.5181,-1.5181,-1.5181,-1.5181,-1.5181,-1.5181,-1.5181,-1.5181,-1.5181,-1.5181,-1.5181,-1.5181,-1.5181,-1.5181,-1.5181,-1.5181,-1.5215,-1.5248,-1.3614,-1.168,-0.851,-0.497,0.0,0.0,0.0,0.0,0.0,0.0,0.0,0.0,0.0,0.0,0.0,0.0,0.0,0.0,0.0,0.0,0.0,0.0,0.0,0.0,0.0,0.0,0.0,0.0,0.0,0.0,0.0,0.0,0.0,0.0,0.0,0.0,0.0,0.0,0.0,-3.1379,-3.0985,-2.8356,-2.4463,-1.9978,-1.7444,-1.6374,-1.6083,-1.6374,-1.6175,-1.7253,-2.1646,-2.3588,-2.388,-2.6505,-2.9039,-2.9517,-2.8835,-2.7095,-2.7384,-2.456,-2.2126,-1.9101,-1.7345,-1.6275,-1.5981,-1.5818,-1.5635,-1.5655,-1.5506,-1.5296,-1.5187,-1.5215,-1.5248,-1.5228,-1.5052,-1.4909,-1.4848,-1.478,-1.4719,-1.474,-1.4706,-1.4658,-1.4557,-1.4496,-1.4441,-1.4346,-1.4306,-1.4299,-1.4346,-1.4401,-1.4489,-1.4658,-1.4821,-1.5018,-1.5133,-1.5174,-1.5181,-1.5181,-1.5181,-1.5181,-1.5181,-1.5181,-1.5181,-1.5181,-1.5181,-1.5181,-1.5181,-1.5181,-1.5181,-1.5181,-1.5181,-1.5181,-1.5181,-1.5201,-1.5303,-1.4578,-1.1497,-0.7018,0.0,0.0,0.0,0.0,0.0,0.0,0.0,0.0,0.0,0.0,0.0,0.0,0.0,0.0,0.0,0.0,0.0,0.0,0.0,0.0,0.0,0.0,0.0,0.0,0.0,0.0,0.0,0.0,0.0,0.0,0.0,0.0,0.0,0.0,0.0,0.0,-2.8752,-2.826,-2.3783,-2.1049,-1.9782,-1.7253,-1.6083,-1.6083,-1.6083,-1.6175,-1.7154,-2.1254,-2.388,-2.4463,-2.826,-3.0795,-3.108,-2.9721,-2.8164,-2.6023,-2.388,-2.1156,-1.7932,-1.6665,-1.6083,-1.5981,-1.5805,-1.5554,-1.5432,-1.5309,-1.5228,-1.5187,-1.5181,-1.5181,-1.516,-1.497,-1.4787,-1.4733,-1.455,-1.4516,-1.4563,-1.4563,-1.4536,-1.4475,-1.4428,-1.436,-1.4299,-1.4299,-1.4299,-1.4319,-1.4326,-1.4468,-1.4679,-1.4869,-1.5031,-1.5153,-1.5181,-1.5181,-1.5181,-1.5181,-1.5174,-1.5174,-1.5174,-1.5181,-1.5181,-1.5181,-1.5181,-1.5181,-1.5181,-1.5181,-1.5181,-1.5181,-1.5181,-1.5181,-1.5093,-1.5269,-1.5348,-1.0633,-0.5694,0.0,0.0,0.0,0.0,0.0,0.0,0.0,0.0,0.0,0.0,0.0,0.0,0.0,0.0,0.0,0.0,0.0,0.0,0.0,0.0,0.0,0.0,0.0,0.0,0.0,0.0,0.0,0.0,0.0,0.0,0.0,0.0,0.0,0.0,0.0,0.0,-2.6023,-2.5539,-2.1735,-1.9298,-1.8129,-1.6665,-1.6083,-1.6275,-1.7353,-1.7833,-1.8327,-2.1832,-2.388,-2.4269,-2.826,-3.0795,-3.07,-2.8931,-2.6698,-2.4355,-2.2321,-1.9593,-1.7551,-1.6175,-1.6083,-1.6001,-1.5771,-1.552,-1.5282,-1.5201,-1.5187,-1.5181,-1.5181,-1.5174,-1.514,-1.4909,-1.474,-1.4726,-1.4448,-1.4373,-1.4428,-1.4421,-1.4421,-1.438,-1.4353,-1.4299,-1.4299,-1.4299,-1.4299,-1.4299,-1.4306,-1.4468,-1.4658,-1.4808,-1.497,-1.5113,-1.5181,-1.5181,-1.5181,-1.5174,-1.5153,-1.5126,-1.5174,-1.5174,-1.5099,-1.5099,-1.5174,-1.5181,-1.5181,-1.5181,-1.5181,-1.5181,-1.5181,-1.5181,-1.4737,-1.4456,-1.2745,-0.9107,0.0,0.0,0.0,0.0,0.0,0.0,0.0,0.0,0.0,0.0,0.0,0.0,0.0,0.0,0.0,0.0,0.0,0.0,0.0,0.0,0.0,0.0,0.0,0.0,0.0,0.0,0.0,0.0,0.0,0.0,0.0,0.0,0.0,0.0,0.0,0.0,0.0,-2.3189,-2.2614,-2.0363,-1.8228,-1.6275,-1.6083,-1.6083,-1.6573,-1.8813,-1.988,-2.0175,-2.2604,-2.3783,-2.4754,-2.6119,-2.8452,-2.8943,-2.6602,-2.4452,-2.2799,-2.1147,-1.9396,-1.7939,-1.6374,-1.6134,-1.5913,-1.5696,-1.5513,-1.5323,-1.5242,-1.5181,-1.5181,-1.5181,-1.5181,-1.5092,-1.4923,-1.474,-1.4665,-1.4489,-1.4326,-1.4306,-1.4299,-1.4312,-1.4306,-1.4299,-1.4299,-1.4299,-1.4299,-1.4299,-1.4319,-1.434,-1.4509,-1.4665,-1.4808,-1.4964,-1.5113,-1.5181,-1.5181,-1.5181,-1.5181,-1.5099,-1.5052,-1.5126,-1.5126,-1.5052,-1.5079,-1.5153,-1.5181,-1.5181,-1.5181,-1.5181,-1.5181,-1.5181,-1.4912,-1.4285,-1.3103,-1.0334,-0.7646,0.0,0.0,0.0,0.0,0.0,0.0,0.0,0.0,0.0,0.0,0.0,0.0,0.0,0.0,0.0,0.0,0.0,0.0,0.0,0.0,0.0,0.0,0.0,0.0,0.0,0.0,0.0,0.0,0.0,0.0,0.0,0.0,0.0,0.0,0.0,0.0,0.0,-1.9495,-1.7551,-1.7055,-1.6474,-1.6182,-1.6083,-1.6083,-1.6566,-1.8805,-1.997,-2.0755,-2.2614,-2.388,-2.387,-2.4269,-2.5529,-2.6012,-2.3783,-2.2214,-2.0657,-1.988,-1.9495,-1.8813,-1.7338,-1.6215,-1.5771,-1.5594,-1.5398,-1.5316,-1.5235,-1.5181,-1.5181,-1.5181,-1.5167,-1.5133,-1.4936,-1.4726,-1.4652,-1.4489,-1.4299,-1.4299,-1.4299,-1.4299,-1.4299,-1.4299,-1.4299,-1.4299,-1.4299,-1.4299,-1.4333,-1.4407,-1.4557,-1.4699,-1.4841,-1.5004,-1.5113,-1.5181,-1.5181,-1.5181,-1.516,-1.5072,-1.5004,-1.5072,-1.5099,-1.5065,-1.5099,-1.5153,-1.5181,-1.5181,-1.5181,-1.5181,-1.5181,-1.5181,-1.4461,-1.3831,-1.1362,-0.8791,-0.6228,0.0,0.0,0.0,0.0,0.0,0.0,0.0,0.0,0.0,0.0,0.0,0.0,0.0,0.0,0.0,0.0,0.0,0.0,0.0,0.0,0.0,0.0,0.0,0.0,0.0,0.0,0.0,0.0,0.0,0.0,0.0,0.0,0.0,0.0,0.0,0.0,0.0]}]]